GFSWCAN_prec_cthk_000.txt.gz
RH
90 86 77 61 47 44 43 43 42 40 40 42 45 50 63 69 74 77 50 41 37 36 39 42 43 45 45 43 44 41 44 44 48 51 60 69 73 71 66 63 62 62 66 60 58 58 53 40 41 42 43 44 44 45
97 91 87 68 54 48 45 44 41 39 39 40 42 46 55 66 72 73 79 68 55 48 45 39 39 42 46 50 47 46 51 51 58 69 69 69 72 69 67 68 58 56 52 52 47 47 42 43 44 45 47 49 50 50
98 92 91 77 68 58 48 45 43 40 40 39 39 41 48 58 68 72 72 77 73 68 64 58 51 46 46 52 54 50 50 49 56 59 62 66 68 68 69 65 59 51 46 48 46 45 48 49 50 51 51 52 51 49
97 92 93 80 78 68 58 51 47 44 42 40 38 37 39 51 58 66 72 71 74 75 73 72 69 65 60 56 56 61 62 64 66 68 71 70 70 68 68 63 61 51 47 48 49 47 48 51 51 51 51 49 47 46
98 92 95 85 82 77 68 62 55 50 48 47 44 42 42 44 55 60 66 75 74 71 77 80 76 74 73 73 70 69 70 67 70 73 74 73 71 70 64 58 56 47 44 48 50 46 47 48 48 48 48 49 51 50
98 95 95 88 85 81 75 72 65 58 56 55 52 51 50 50 51 55 58 62 65 72 65 67 70 72 73 76 82 83 79 78 77 76 78 73 61 56 57 55 44 41 42 43 46 48 48 48 50 50 50 47 45 47
98 98 97 91 90 86 80 78 73 67 63 62 59 57 52 52 53 54 52 54 57 61 66 72 66 63 68 69 70 70 72 77 78 78 72 61 56 56 59 54 47 45 47 48 49 50 51 50 49 49 48 48 48 48
98 99 99 95 95 90 87 84 79 76 70 69 68 64 56 56 58 59 58 58 59 62 59 60 68 67 66 70 71 72 75 73 71 70 64 60 58 57 54 46 47 48 50 52 50 51 52 53 53 51 49 48 49 49
98 98 98 99 98 95 92 90 87 83 82 78 76 72 64 63 61 59 60 59 61 65 64 61 60 63 62 69 70 68 67 68 67 67 64 62 62 58 47 47 50 54 55 52 54 56 57 55 50 48 46 44 47 48
98 98 98 97 96 98 98 97 95 91 89 87 83 80 75 69 70 70 68 67 66 66 62 61 59 61 57 63 67 67 67 68 67 65 64 65 58 54 52 54 56 54 55 57 58 59 55 49 47 45 46 47 48 47
97 98 98 98 99 98 99 99 98 95 95 92 89 85 85 81 80 80 72 68 66 61 59 57 57 59 59 63 64 60 63 64 64 62 66 63 57 52 49 49 53 57 59 58 54 49 49 48 48 48 48 48 50 53
97 97 98 98 98 99 99 99 99 98 97 95 90 91 92 88 85 82 75 68 64 57 60 61 64 63 61 61 61 60 55 57 60 60 66 63 53 53 55 59 59 56 52 50 49 49 49 49 50 48 48 49 50 49
97 97 97 98 98 98 98 98 98 99 99 98 97 97 91 90 82 71 71 66 64 61 66 69 75 79 73 66 63 63 63 69 68 75 70 61 56 58 61 59 55 52 50 50 52 51 47 46 46 48 50 49 47 38
97 97 97 97 98 98 98 98 98 98 99 98 98 97 94 88 78 69 61 58 61 65 69 76 81 84 82 78 79 79 81 80 81 82 74 68 67 66 61 56 52 53 53 52 50 48 45 44 45 49 50 47 42 39
97 97 95 97 97 98 98 98 98 98 98 98 97 93 86 74 70 70 73 69 67 72 73 75 76 77 82 83 80 81 84 84 80 76 72 65 60 58 58 55 51 49 49 50 52 52 50 50 50 51 51 49 48 44
97 96 96 97 96 97 98 98 98 98 99 98 94 87 82 78 74 72 70 71 72 72 75 74 72 75 71 69 72 74 74 73 72 70 59 55 53 50 48 47 47 49 49 49 56 59 56 52 52 52 53 53 52 52
96 96 95 97 97 98 98 98 98 99 98 97 92 83 77 79 77 72 71 71 70 72 70 66 66 65 72 74 74 73 71 67 63 59 58 58 55 53 51 48 51 53 52 52 55 61 58 59 59 57 56 56 58 61
90 95 94 97 97 97 98 98 98 98 98 95 89 81 77 73 76 78 81 84 80 70 67 63 61 68 69 71 71 63 59 61 61 58 58 55 53 52 50 49 49 50 51 52 58 62 60 60 60 59 60 61 65 67
82 96 96 97 98 98 98 98 98 98 98 96 96 91 88 83 77 75 73 77 75 73 70 69 67 67 65 61 59 58 58 53 53 55 54 54 53 53 52 51 51 51 53 57 60 58 58 60 61 65 70 73 74 79
71 93 97 98 98 98 99 98 97 97 98 98 97 96 92 86 81 76 74 73 73 73 75 70 66 61 59 57 58 58 57 56 55 54 51 50 50 49 50 52 54 54 55 57 57 58 60 64 71 77 77 79 84 85
66 83 97 98 99 96 99 98 98 98 98 98 98 98 98 97 92 88 86 81 80 78 73 66 59 58 60 59 55 55 56 54 53 52 50 48 47 47 49 52 54 57 60 60 61 64 69 75 79 80 82 82 77 73
65 81 98 98 99 97 98 96 96 96 96 98 98 97 96 94 93 92 92 90 87 78 71 66 64 64 62 61 57 54 51 49 48 48 48 49 50 51 52 54 60 64 69 69 70 74 79 82 83 81 78 74 71 70
66 78 98 98 98 98 98 99 98 97 97 97 98 97 97 94 93 92 92 85 79 73 75 73 69 61 56 54 53 52 50 49 48 47 48 51 53 53 55 60 65 70 75 78 80 83 86 84 81 77 73 70 70 71
73 75 88 97 98 98 95 98 98 97 98 98 98 98 98 98 98 98 91 81 80 79 72 64 59 54 53 51 51 49 48 47 48 49 50 51 52 57 61 68 71 74 79 83 86 84 81 78 75 73 73 74 72 66
84 80 73 78 93 95 91 92 96 97 97 97 97 97 96 97 97 93 80 73 67 60 55 53 54 53 52 52 53 54 54 55 55 54 55 56 58 59 63 70 77 82 85 85 82 79 78 77 76 75 72 68 60 52
92 85 69 66 66 77 89 90 91 94 96 97 97 96 96 94 91 76 65 56 51 52 52 54 57 58 57 57 57 55 54 53 53 54 56 61 64 66 72 80 83 84 83 82 83 82 79 76 73 70 63 55 51 48
87 80 71 66 67 65 65 65 70 75 78 76 76 77 78 77 70 57 52 51 51 52 52 56 57 56 56 56 56 55 55 56 57 58 62 72 82 88 87 86 86 86 86 85 84 79 75 71 64 57 54 52 48 44
83 78 76 76 75 76 78 75 72 71 70 69 71 74 70 62 55 53 55 59 59 55 53 55 56 57 59 58 58 59 59 61 69 76 86 94 95 93 93 92 90 88 86 83 80 74 68 61 58 55 51 47 45 44
83 78 80 79 79 77 72 68 68 66 64 64 66 66 61 56 53 53 53 55 56 57 58 61 62 63 64 65 70 74 75 83 90 95 96 96 97 95 93 91 89 86 84 80 74 67 64 61 57 52 47 45 43 42
84 86 83 81 80 75 72 69 63 61 61 60 58 56 55 54 56 58 59 61 63 63 62 62 66 73 79 82 87 89 90 94 97 97 97 97 95 95 93 91 89 85 80 74 70 67 64 59 52 47 46 45 45 45
77 77 78 78 78 76 75 76 82 82 80 77 74 71 67 66 70 70 70 69 69 69 74 82 87 91 92 94 95 95 95 96 98 98 97 97 96 94 93 90 85 80 76 73 70 64 57 50 46 46 47 48 50 46
79 74 73 73 72 71 72 72 72 72 73 75 77 77 78 79 79 77 78 79 84 91 94 95 96 97 97 97 98 98 99 99 98 98 97 97 96 95 91 85 83 80 75 66 58 54 50 50 51 53 54 52 46 42
98 98 96 90 88 87 88 90 92 92 93 91 90 91 91 91 88 87 90 94 96 97 96 96 96 97 98 98 98 98 99 99 98 98 98 98 98 94 90 85 76 66 61 56 52 53 55 57 59 58 52 43 41 42

GFSWCAN_prec_cthk_006.txt.gz
RH
62 90 96 99 97 98 94 79 62 56 54 51 50 48 51 60 69 73 36 42 62 59 57 62 60 62 60 61 61 59 61 60 64 70 75 75 71 68 71 68 66 64 68 67 68 65 60 48 47 47 50 52 49 45
67 91 97 98 98 97 98 84 58 55 54 53 52 49 53 57 68 75 61 38 50 57 56 56 59 59 56 55 50 47 48 46 48 57 57 58 58 56 54 56 51 49 49 63 66 63 59 59 59 55 50 45 44 44
69 91 97 97 97 97 95 87 63 57 54 54 52 50 53 57 65 74 81 53 41 50 57 56 55 54 59 57 54 47 44 43 42 42 48 52 53 52 56 61 62 65 69 70 64 60 61 58 52 45 45 46 47 47
76 92 97 97 98 98 94 88 57 58 54 55 52 49 52 56 61 72 79 85 64 46 49 53 56 56 53 56 61 60 56 53 53 54 57 57 61 62 65 64 65 64 64 65 68 67 62 55 53 52 51 50 48 46
81 95 96 93 94 94 93 88 63 60 55 52 51 48 49 53 60 68 77 81 86 85 69 59 55 54 55 54 53 58 63 61 59 58 59 65 65 66 71 69 67 63 62 64 64 62 61 59 56 52 50 49 46 44
86 95 94 93 95 93 95 89 77 63 56 51 48 47 47 50 57 64 70 78 81 81 85 92 80 68 61 57 55 54 54 55 57 61 64 65 64 63 65 63 57 59 52 58 64 63 59 60 54 51 48 48 45 42
91 97 97 96 96 95 98 91 87 72 67 55 49 50 50 49 54 57 53 57 73 80 81 86 89 88 81 74 68 66 64 65 64 65 61 60 64 64 63 61 56 59 52 50 54 53 53 52 50 49 49 47 42 40
91 97 97 97 99 98 99 95 92 81 74 62 60 61 59 59 63 62 54 54 58 71 75 81 80 77 80 82 84 80 77 77 78 78 77 76 76 75 72 68 73 61 56 50 49 48 49 49 49 48 45 41 41 41
88 96 98 99 99 99 99 99 97 88 79 76 74 75 72 69 70 68 64 60 62 60 68 71 74 77 76 77 77 77 78 79 78 79 76 71 71 71 58 55 48 45 45 46 48 50 52 51 49 45 44 42 42 41
85 96 97 98 99 99 99 99 99 95 90 87 87 83 82 74 72 70 68 64 65 69 63 60 61 64 64 69 77 78 81 87 83 79 77 77 71 65 60 57 49 44 48 50 53 56 53 47 44 42 41 40 38 41
88 96 97 98 98 98 98 99 99 98 97 97 91 88 86 87 82 76 74 70 67 65 61 61 62 64 64 67 69 67 74 73 73 70 72 69 62 54 53 54 52 51 52 53 51 46 44 42 39 39 41 42 43 46
89 97 97 97 98 98 99 99 99 98 97 95 91 93 95 92 87 82 77 72 68 62 61 62 63 62 65 63 64 67 68 66 65 63 65 56 46 42 42 43 44 48 51 53 47 44 43 43 47 48 46 44 44 44
94 97 97 97 98 98 98 98 98 99 99 98 97 98 95 97 97 88 81 74 71 65 65 65 70 71 70 65 67 66 66 65 58 62 55 47 41 41 40 40 43 46 45 46 49 49 52 52 48 45 44 44 43 44
93 96 97 97 98 98 98 98 98 98 98 98 97 97 97 95 82 76 73 69 67 70 76 76 75 76 78 75 74 67 67 63 66 64 55 45 42 43 40 40 43 47 52 55 55 52 49 47 45 44 44 43 43 45
92 96 97 97 98 98 98 98 98 98 99 98 97 96 91 82 77 74 73 71 72 75 76 80 80 80 83 80 73 74 76 76 66 65 56 49 49 52 52 53 53 55 53 51 49 48 46 43 43 43 43 45 47 48
88 97 97 97 97 98 98 99 98 98 98 98 97 94 90 88 83 79 75 78 78 81 80 78 82 82 84 82 80 77 77 74 67 65 57 58 58 56 55 56 55 54 52 51 49 46 43 41 41 42 44 47 48 49
84 97 97 97 97 97 98 98 99 98 98 97 94 90 87 85 86 86 83 84 83 84 82 81 85 84 83 80 81 78 76 67 62 59 58 57 56 55 54 53 52 52 50 49 46 44 43 42 42 44 46 46 46 47
74 94 97 97 97 97 97 98 98 98 98 95 91 90 88 85 88 87 87 87 87 90 84 81 81 86 79 76 75 69 65 64 61 59 57 57 56 55 54 53 51 50 49 46 44 43 42 44 47 48 48 49 52 54
62 86 94 96 97 97 98 98 98 98 97 96 94 94 92 89 86 85 88 90 90 91 87 82 77 74 71 69 66 63 61 59 56 58 59 58 57 55 54 52 51 51 49 45 44 45 46 48 49 50 51 54 57 59
55 74 87 95 97 97 97 97 98 97 97 97 96 95 94 91 89 90 92 91 89 92 93 83 75 72 69 65 63 60 57 56 56 58 58 57 56 56 55 53 51 49 47 47 48 50 51 52 51 52 55 58 62 67
41 55 75 93 96 98 98 97 98 98 97 97 97 97 95 94 95 95 97 94 93 92 89 76 73 69 67 65 64 62 59 58 58 57 58 58 57 57 57 56 54 52 51 51 52 53 53 54 55 57 60 62 66 67
39 45 60 95 97 98 97 96 98 98 96 96 98 97 97 97 95 97 98 99 99 94 87 78 76 72 69 66 65 64 61 59 58 58 59 60 62 62 61 57 55 54 54 54 54 54 55 55 56 58 61 62 61 62
42 44 56 86 98 95 98 98 98 98 98 98 98 98 98 98 98 98 99 98 98 97 93 90 85 80 75 72 69 66 64 63 63 64 64 63 62 60 58 58 56 56 56 55 55 56 56 58 60 60 58 57 61 64
55 52 58 74 96 98 97 98 96 97 98 98 98 98 98 98 98 97 97 96 96 96 95 92 91 87 81 74 70 69 68 67 65 64 63 62 61 61 60 58 56 55 55 55 56 58 60 62 63 62 61 63 66 68
68 67 63 69 86 96 98 98 97 95 97 97 97 97 97 98 98 97 97 95 96 94 91 88 85 82 78 75 70 67 66 67 67 66 64 62 60 59 58 58 57 55 56 57 59 60 61 65 67 70 70 69 71 64
77 74 63 63 77 86 92 97 98 97 98 97 97 97 97 97 97 95 93 93 94 92 88 85 81 77 74 72 69 67 66 64 64 64 63 62 60 58 57 56 55 57 59 60 62 63 68 73 74 75 74 69 64 63
79 77 72 65 61 74 83 87 90 94 96 97 97 97 96 94 93 89 87 85 81 79 76 73 72 73 72 72 71 70 67 64 62 60 57 55 54 54 55 58 61 63 66 67 68 74 77 78 78 74 67 65 64 63
76 75 75 76 72 67 72 79 83 84 86 87 88 91 88 83 80 80 79 78 78 78 79 79 76 76 74 72 68 64 60 57 55 54 55 56 56 58 62 65 68 70 72 74 76 79 81 79 72 68 67 66 66 64
78 77 77 76 78 74 70 67 72 72 75 79 82 85 85 83 86 84 81 80 77 75 73 75 76 74 70 66 61 58 55 54 55 56 57 57 60 64 70 73 76 78 80 81 81 82 79 73 70 69 68 68 65 60
78 81 82 80 77 77 73 69 65 63 65 67 67 69 74 78 79 79 78 76 73 70 68 67 66 63 60 56 54 55 56 56 55 57 60 63 70 76 80 82 85 87 86 85 82 78 76 74 73 72 70 64 49 39
76 79 79 78 82 81 78 75 71 67 65 62 62 61 64 66 67 66 65 64 63 62 60 59 58 58 57 55 54 55 56 59 65 69 75 83 87 90 92 92 91 89 86 82 80 79 77 75 72 66 47 37 38 38
87 83 78 76 76 76 79 80 80 76 74 71 69 70 68 67 64 63 62 65 65 62 60 62 61 60 60 61 64 66 71 80 86 90 95 96 95 95 94 93 91 88 84 82 81 77 71 59 48 39 37 37 36 37
96 96 94 87 83 81 81 79 77 75 73 72 70 71 71 67 63 59 60 63 65 65 65 66 68 70 74 76 79 86 94 97 97 96 95 95 95 95 95 93 89 86 81 74 65 57 50 45 42 41 41 41 42 45

GFSWCAN_prec_cthk_009.txt.gz
RH
53 51 54 65 82 96 98 97 92 81 62 57 54 52 51 54 61 72 73 56 54 74 72 65 68 72 73 74 82 85 84 84 93 93 92 84 82 80 78 74 73 73 77 76 78 75 67 61 58 56 55 54 54 59
50 57 53 70 87 96 98 97 95 80 68 66 58 53 53 55 61 71 77 66 49 68 75 67 65 66 68 65 69 75 77 74 77 83 86 83 81 84 75 77 75 72 69 70 67 60 56 51 51 51 55 53 56 56
48 56 60 74 89 97 98 97 95 89 72 69 64 57 55 57 61 69 80 78 46 56 75 70 66 66 65 62 57 59 58 53 54 57 65 68 67 69 69 66 64 59 56 58 54 60 68 65 62 65 65 61 51 47
42 57 66 75 93 96 96 98 97 90 74 70 64 62 56 58 61 68 78 88 62 47 63 72 67 64 64 62 56 52 49 48 48 48 52 51 52 52 54 52 56 57 62 68 72 71 69 67 64 60 56 56 54 52
41 61 68 81 93 95 95 95 96 96 75 69 64 64 57 60 62 67 77 87 87 59 58 62 68 65 60 62 64 62 58 54 56 57 58 61 61 64 63 63 64 64 64 64 62 59 62 64 67 68 66 62 57 53
39 62 72 84 93 94 94 96 97 99 71 68 68 63 56 60 62 67 75 83 88 88 72 67 61 65 64 61 59 61 65 65 65 65 64 62 58 58 61 61 55 57 56 55 54 50 54 61 68 70 68 64 58 48
37 68 73 88 96 95 98 97 98 96 76 70 66 60 54 58 63 70 68 72 82 85 88 90 84 73 66 63 63 61 62 62 63 67 68 66 65 62 61 58 51 55 57 56 57 53 55 58 61 67 66 55 46 40
38 67 83 94 96 97 98 97 99 91 73 68 65 60 55 59 61 67 61 62 70 78 83 88 87 90 88 80 73 68 66 64 64 65 63 63 65 62 59 52 52 53 59 59 56 56 50 51 52 51 46 41 39 40
38 69 85 95 97 98 99 98 99 95 80 71 65 63 64 63 62 63 60 62 61 66 78 77 78 85 86 87 88 86 83 83 78 75 74 72 72 69 59 62 64 65 57 59 62 59 54 50 47 43 40 42 44 42
42 77 88 97 97 98 99 99 99 99 91 83 82 80 73 69 69 73 72 66 69 65 61 66 69 75 78 83 85 82 82 83 81 78 75 72 62 58 57 56 53 56 53 46 48 50 50 49 46 47 45 41 37 32
41 81 95 97 97 98 99 99 99 99 98 90 87 84 76 80 82 80 77 73 68 69 64 62 62 65 69 72 74 77 84 85 81 78 79 74 67 62 62 61 61 61 60 55 54 54 50 46 43 40 38 35 34 39
38 80 96 97 97 97 98 98 98 98 97 92 88 89 92 90 86 81 77 74 70 65 63 62 63 62 66 67 70 71 71 69 69 68 71 63 49 44 48 51 54 55 54 48 45 45 43 41 40 39 37 42 46 45
33 76 96 96 97 98 99 99 98 99 99 98 97 98 95 97 95 82 77 71 68 62 63 63 65 65 66 62 66 66 67 69 62 65 58 48 42 42 42 46 50 54 52 47 46 44 42 41 42 49 50 50 47 44
29 72 95 96 97 97 99 98 99 98 98 98 97 96 97 95 85 75 68 67 64 64 68 71 70 70 71 68 66 63 66 62 61 58 53 46 43 43 44 44 47 52 52 49 47 44 46 53 54 53 52 49 45 42
35 71 96 96 97 98 99 98 98 98 99 98 98 97 93 85 81 77 76 73 73 76 78 78 79 78 79 75 72 70 68 63 56 58 53 50 51 50 48 49 51 51 51 51 53 54 53 52 50 48 46 43 41 40
33 72 97 96 96 97 98 98 98 98 98 98 98 96 90 88 84 79 76 76 78 82 80 75 80 81 81 78 76 74 70 65 60 60 58 59 58 54 56 57 55 53 53 54 54 53 50 47 45 43 41 41 41 42
25 70 94 95 96 97 98 98 99 99 98 98 97 95 91 90 88 85 81 81 82 83 80 79 78 76 77 76 74 71 69 64 62 63 65 67 63 62 60 59 59 58 56 55 52 48 47 45 44 42 43 44 44 44
31 68 94 94 96 97 98 98 98 98 98 97 97 97 93 94 93 90 87 86 87 85 79 79 79 81 78 74 73 69 66 64 64 67 68 67 65 65 62 59 59 58 56 52 49 48 48 46 45 46 46 46 46 47
37 62 89 93 96 97 97 98 98 98 97 97 97 96 96 95 93 94 92 92 90 83 78 79 78 77 72 68 67 66 66 66 69 69 68 68 65 61 60 60 58 55 54 52 51 50 49 49 49 49 48 48 49 50
39 59 77 90 95 97 98 97 98 97 97 97 98 98 96 94 94 93 95 94 92 90 88 87 78 72 71 71 71 69 66 67 65 66 67 64 62 60 58 56 54 53 51 51 53 53 52 52 52 51 51 53 54 56
29 41 61 86 97 97 97 97 98 97 97 97 98 98 98 97 97 97 97 96 97 96 92 83 79 76 73 71 70 70 68 68 67 65 63 61 58 56 57 57 56 55 55 56 56 55 56 56 56 57 57 57 58 59
34 34 45 77 97 97 97 97 98 97 96 96 97 98 97 98 97 98 98 98 98 94 86 83 80 76 72 69 68 66 64 63 61 61 61 62 61 60 60 60 61 61 61 61 61 61 60 60 60 60 60 61 60 57
42 37 41 64 90 93 98 97 97 98 98 98 98 98 98 97 98 98 98 97 95 97 90 83 77 74 72 71 69 67 67 67 65 64 63 63 64 65 67 68 66 64 63 63 61 60 61 62 63 63 60 58 57 61
48 46 44 58 77 94 95 97 97 98 98 98 97 95 96 97 98 98 97 96 97 98 96 91 84 80 79 77 74 72 70 69 68 69 71 72 72 70 68 67 66 65 64 63 63 64 64 63 62 60 59 61 64 63
54 58 51 58 72 81 93 97 98 97 97 98 97 97 97 98 97 97 97 97 98 98 97 96 91 88 85 81 80 79 79 79 78 76 73 69 66 65 64 64 63 63 63 65 65 64 62 62 61 62 64 65 65 62
62 64 59 57 67 74 86 97 98 98 98 97 97 97 97 98 97 97 97 98 98 97 97 97 95 92 88 84 81 80 78 75 71 68 67 66 64 64 64 64 63 61 61 63 63 64 65 66 67 67 65 65 59 55
67 67 64 62 58 64 76 88 90 93 97 98 98 97 97 97 97 95 98 98 98 97 96 93 89 86 83 81 79 76 74 72 71 69 66 65 63 61 60 60 62 62 62 64 66 69 71 70 68 66 62 58 58 60
69 68 65 63 64 59 60 77 81 82 83 87 94 96 93 90 91 93 92 91 90 89 86 83 83 82 79 76 73 72 71 69 66 63 61 60 60 61 61 61 61 62 65 69 72 71 71 70 66 62 62 62 63 62
69 72 72 68 66 65 63 56 65 73 77 80 83 90 91 89 88 86 86 87 86 87 86 86 84 81 79 76 73 70 68 67 65 63 61 60 61 62 63 63 65 68 70 72 73 72 69 67 66 67 68 68 66 65
71 74 78 78 76 72 70 65 61 58 61 70 72 79 86 93 92 90 90 88 86 84 83 82 81 79 77 74 72 69 66 63 63 63 63 63 65 66 67 68 73 74 74 74 73 72 72 73 73 73 71 68 59 41
74 72 73 76 77 79 78 78 74 68 65 62 62 68 74 77 81 84 84 84 83 81 81 81 79 77 74 69 66 63 63 63 63 63 64 66 68 72 74 76 79 81 81 81 79 77 77 77 76 69 57 44 34 33
91 91 86 80 77 75 78 83 85 82 77 74 71 66 66 68 71 70 70 71 71 72 72 72 71 70 69 67 67 66 65 66 68 68 68 73 77 81 85 88 89 88 86 83 81 81 78 67 59 49 40 36 36 39
94 97 97 96 90 82 80 80 79 80 79 78 76 74 73 71 68 64 63 63 65 68 71 72 72 70 68 68 69 68 68 70 71 74 82 88 92 95 94 92 91 90 88 85 76 66 58 52 45 39 37 40 47 51

GFSWCAN_prec_cthk_012.txt.gz
RH
29 31 41 64 73 71 74 93 98 98 92 71 61 65 65 63 62 68 77 72 64 57 77 76 72 82 88 93 94 87 91 91 97 95 92 92 86 79 72 71 71 75 76 72 80 90 75 60 61 59 55 56 55 54
31 31 40 64 70 70 71 90 98 98 97 85 63 63 65 62 61 66 76 73 75 59 75 77 71 77 82 83 90 89 90 89 91 94 89 87 83 85 80 77 78 75 71 71 70 66 66 67 63 59 56 52 54 56
32 31 36 58 69 68 76 91 98 98 94 82 68 68 65 61 60 64 74 76 81 56 71 80 75 72 79 74 80 87 87 81 87 87 88 85 79 78 78 74 73 73 76 72 72 72 65 56 50 60 61 59 62 59
36 30 33 59 67 67 80 92 98 97 95 79 66 69 64 63 62 66 73 76 80 60 57 77 76 75 72 72 69 71 76 70 67 73 77 79 77 73 73 72 67 67 64 60 61 60 58 62 70 68 65 63 62 59
45 31 31 56 64 71 86 92 98 98 95 84 67 68 66 66 65 68 75 78 82 77 54 68 78 77 73 68 66 63 60 55 55 55 57 61 59 56 57 55 55 54 54 55 56 63 63 62 63 65 66 67 67 66
38 29 29 56 65 72 87 95 97 98 96 85 76 74 74 71 68 71 77 78 82 90 66 60 67 78 74 72 71 68 61 57 55 56 59 61 61 61 62 58 54 54 57 60 60 60 59 55 53 54 59 63 66 66
37 29 26 61 67 82 89 96 98 98 98 92 77 80 78 75 75 73 75 76 82 91 90 71 67 65 70 71 71 72 70 67 65 66 65 63 61 58 57 53 47 49 49 49 51 52 57 55 54 55 57 59 62 62
37 28 33 63 73 88 91 95 98 98 99 93 81 84 79 77 78 80 74 76 83 90 94 97 84 71 66 66 68 67 70 70 72 73 72 68 68 63 58 50 49 50 49 52 53 54 54 52 54 57 58 58 49 40
36 30 37 66 85 90 93 94 98 99 99 97 87 85 82 77 76 79 76 80 79 82 88 86 86 87 88 83 81 77 72 69 66 64 63 63 60 59 48 45 51 55 56 58 58 58 59 63 60 59 53 45 42 40
38 33 34 67 89 90 94 95 99 98 99 98 93 88 83 78 74 79 83 77 81 78 73 73 79 86 84 87 87 86 87 86 82 79 77 73 58 52 53 53 52 52 51 51 55 52 53 55 52 45 40 41 42 42
40 30 36 72 86 95 98 99 99 99 99 96 86 80 77 75 73 74 75 74 70 73 67 64 67 72 80 84 84 84 88 87 84 79 77 68 57 52 54 54 56 58 59 62 63 55 55 54 50 50 48 43 38 34
37 29 37 79 88 97 98 99 98 98 98 93 79 76 82 81 77 75 77 73 69 63 61 60 63 68 71 70 75 79 78 76 76 73 76 69 54 51 57 60 62 63 65 68 66 58 51 46 43 40 38 36 34 37
34 24 42 77 94 96 97 99 98 99 99 98 93 91 82 83 82 74 74 71 67 63 63 64 68 67 68 65 66 66 70 71 66 68 63 52 48 49 55 56 57 59 61 61 55 48 45 42 40 37 36 39 49 49
30 19 46 82 95 97 98 99 98 99 98 98 98 95 90 92 79 69 62 60 59 65 67 69 71 70 66 65 63 65 65 63 64 62 51 43 45 47 52 55 56 59 55 52 50 47 42 38 37 44 52 52 48 46
27 18 41 81 95 97 98 98 98 98 98 98 97 95 90 83 78 74 71 67 69 73 71 73 73 71 72 69 64 66 67 63 54 48 42 43 48 49 50 57 57 56 55 55 52 45 45 50 53 52 50 48 46 44
23 20 46 81 95 97 98 99 98 98 99 98 97 93 87 87 85 80 75 74 78 80 77 74 78 78 78 74 70 67 62 59 52 52 53 55 55 57 55 62 64 64 62 55 53 54 55 54 51 50 49 47 45 44
21 28 52 89 95 97 98 99 99 99 98 98 95 90 91 89 88 85 80 82 83 82 82 80 79 81 82 80 76 69 64 60 61 61 61 60 57 58 62 65 61 56 56 58 58 57 55 52 50 49 48 47 45 45
25 33 52 86 95 97 98 98 98 98 97 96 95 96 93 93 90 87 86 87 87 82 81 80 80 83 80 78 73 68 66 63 62 63 63 60 63 63 62 61 61 60 59 59 58 56 53 52 51 51 51 50 49 48
27 35 48 84 95 97 98 98 98 97 96 96 95 96 96 96 93 91 91 92 91 85 82 79 76 75 71 68 67 69 69 67 68 71 66 66 66 67 68 65 64 62 61 60 57 55 54 53 53 54 54 52 52 51
22 24 37 80 96 97 97 97 97 97 97 97 97 98 98 97 98 97 96 97 95 92 90 84 74 71 72 70 70 70 70 73 74 73 72 72 71 69 66 65 63 61 60 58 56 55 55 55 56 56 56 55 55 56
26 23 29 72 97 97 97 97 97 97 98 98 98 98 98 98 98 98 98 98 98 97 94 90 89 87 83 79 76 74 75 76 74 73 74 75 71 68 64 63 62 61 59 57 57 58 58 59 60 59 59 59 58 58
32 30 31 63 97 97 97 97 97 98 97 97 97 97 98 98 98 98 98 97 97 97 89 86 85 85 83 82 80 80 78 75 74 74 72 71 68 67 67 65 63 61 60 60 61 60 61 61 61 61 60 60 58 56
38 34 34 52 88 94 98 97 98 97 97 97 98 98 98 97 97 98 97 95 93 92 89 86 84 82 80 80 78 77 76 75 74 69 67 67 67 65 64 64 63 65 65 63 62 61 61 61 60 60 60 59 58 59
38 38 40 49 70 87 96 98 98 97 97 97 97 97 97 97 97 98 96 95 94 96 95 91 85 82 79 76 72 71 70 70 69 70 71 70 70 69 71 73 71 67 65 63 61 60 60 59 61 61 61 61 61 61
42 46 45 51 61 72 90 97 97 97 97 97 97 97 97 98 97 97 96 96 98 98 97 93 89 84 79 78 76 74 74 74 74 73 75 77 78 78 73 68 65 64 62 61 58 59 63 65 61 62 63 62 62 61
53 53 51 52 60 69 82 90 97 98 97 97 97 97 98 97 97 97 96 98 98 98 97 97 94 90 87 84 82 82 82 83 83 81 79 76 73 71 68 65 62 60 58 60 63 63 61 62 63 63 64 64 60 55
56 58 55 54 55 58 72 81 90 94 98 98 97 97 97 97 97 95 95 98 98 98 98 98 98 97 93 91 89 87 84 81 79 77 73 71 68 65 63 62 61 61 62 62 62 62 62 63 65 65 63 58 55 54
58 59 57 55 56 55 56 71 82 87 88 95 98 97 97 95 95 97 98 98 98 98 98 98 96 94 92 89 86 82 80 78 75 72 68 64 62 63 64 63 63 63 63 63 62 65 66 66 66 62 58 57 56 56
59 59 60 61 58 57 57 55 68 80 85 86 88 93 94 94 97 98 98 98 98 97 97 96 95 93 90 88 85 81 77 75 72 69 66 65 66 65 65 65 65 64 65 68 69 69 69 66 63 61 60 60 61 62
63 62 64 65 65 64 63 60 57 62 74 75 80 84 87 91 94 94 95 96 96 97 97 96 95 93 90 88 85 82 79 76 71 67 64 64 64 65 67 68 69 70 70 70 71 70 69 67 65 65 67 68 65 56
74 73 72 71 70 72 73 71 68 64 62 64 69 76 87 91 92 94 95 94 93 92 92 92 91 89 87 84 82 78 73 70 68 67 67 67 68 69 69 70 70 72 73 73 74 73 71 72 73 74 71 61 45 33
84 86 85 82 79 75 73 75 78 74 71 67 66 63 65 71 77 82 85 87 88 89 89 89 87 86 84 83 81 77 75 73 72 71 71 71 70 70 71 72 73 74 77 77 77 78 78 79 74 64 50 37 33 32
92 92 93 92 91 87 81 77 75 78 78 77 75 74 71 68 67 64 67 71 73 74 75 76 77 78 79 78 76 74 72 72 72 73 74 72 71 71 75 79 81 82 84 84 85 82 72 61 50 39 35 34 37 44

GFSWCAN_prec_cthk_015.txt.gz
RH
53 43 43 29 36 49 72 82 84 93 98 87 91 85 76 73 73 72 75 85 85 68 60 78 81 79 97 97 92 90 94 89 86 87 89 86 83 73 74 76 83 83 88 89 92 90 83 65 61 61 61 58 56 53
58 43 45 30 32 50 76 83 78 90 97 89 89 79 74 71 71 72 74 82 84 71 67 75 76 77 91 96 95 90 92 91 92 94 87 84 83 77 68 71 72 80 71 71 69 71 69 65 64 63 62 60 57 54
56 47 43 33 32 55 72 82 78 89 96 93 91 86 76 67 71 70 71 82 85 79 71 74 80 77 82 92 95 94 94 93 93 94 93 90 89 85 78 72 70 69 71 69 68 69 70 70 70 67 61 54 60 59
53 51 38 34 30 55 71 84 76 88 96 97 96 83 72 75 77 67 69 82 85 81 73 70 84 79 80 83 86 95 95 92 89 92 94 92 84 80 81 79 76 74 74 73 71 73 71 67 59 54 58 69 66 64
56 53 39 28 24 51 73 81 76 91 96 96 86 84 70 70 70 69 71 80 84 82 77 67 76 83 80 78 77 83 84 86 83 86 86 88 84 80 74 73 72 72 68 67 62 57 54 54 57 63 65 63 63 63
55 52 39 27 23 53 76 79 78 94 98 98 99 86 72 76 72 70 73 78 81 82 83 73 65 83 84 78 76 73 76 78 72 70 68 68 70 69 68 61 52 53 54 53 55 58 56 60 62 62 59 54 55 57
57 51 38 27 23 55 81 77 83 97 98 99 99 82 79 81 79 72 72 78 81 86 84 86 64 67 82 85 79 78 71 70 67 62 61 60 59 60 58 55 46 46 50 52 54 53 53 53 54 55 56 56 55 53
55 48 38 28 24 57 80 75 88 97 98 99 99 80 81 84 78 74 76 74 90 85 83 89 83 62 65 81 84 81 82 79 76 70 65 62 61 58 55 47 47 47 47 46 46 45 48 51 54 57 55 55 57 55
54 52 40 28 27 58 79 78 92 97 99 99 98 86 89 84 78 77 80 85 86 93 95 87 89 87 69 65 69 75 76 78 76 76 73 69 65 64 54 50 46 44 46 49 55 57 58 58 60 63 64 62 58 52
54 50 38 28 28 63 74 81 93 98 98 99 99 95 94 86 83 82 91 95 89 90 89 96 90 92 89 83 79 73 72 73 74 68 66 67 59 46 47 45 46 49 54 53 53 53 52 50 52 57 58 54 45 39
48 47 34 24 35 68 78 90 97 99 99 99 97 95 94 93 92 89 96 94 89 86 82 81 84 89 90 91 89 89 89 87 84 77 78 66 56 51 50 52 52 54 54 54 51 52 53 53 56 57 50 44 44 42
45 47 28 23 47 71 84 92 98 98 98 98 95 95 94 93 90 91 90 91 81 74 74 71 71 75 81 81 87 91 91 88 84 74 78 67 57 56 54 57 61 61 61 60 59 62 64 64 61 55 49 43 39 34
47 40 24 28 53 79 91 97 98 98 98 98 99 97 94 93 89 82 77 75 71 64 63 65 69 69 72 72 76 78 85 81 73 73 67 56 52 51 54 57 60 65 65 63 66 64 57 51 46 41 39 36 36 35
47 28 18 34 52 83 97 98 98 99 99 98 98 94 90 87 73 68 62 61 57 56 61 66 67 72 68 72 70 72 65 64 67 64 55 47 48 51 56 59 59 61 62 61 60 56 49 45 42 39 38 37 38 44
29 20 19 35 57 90 97 98 98 98 98 98 97 91 79 73 69 65 61 58 60 62 65 74 76 74 78 76 67 69 71 67 56 48 43 42 43 47 54 56 56 60 60 57 54 50 46 43 41 42 43 46 52 50
18 18 27 40 65 94 97 98 98 99 98 98 96 90 80 76 74 67 63 65 69 74 73 75 80 81 78 73 69 66 63 57 49 47 43 45 49 53 58 57 59 59 56 55 55 52 45 44 46 49 54 53 50 48
18 28 28 39 74 96 97 98 98 99 98 98 96 89 85 80 76 72 71 75 80 83 82 78 80 78 75 75 70 63 60 58 56 55 56 57 57 60 65 64 62 61 60 63 55 48 51 56 57 56 55 52 51 50
18 18 24 41 82 96 97 98 98 98 97 97 94 92 88 86 83 80 81 83 85 85 82 84 79 81 76 75 71 70 70 69 66 64 64 65 64 69 70 68 69 71 64 55 56 58 60 59 59 56 54 54 54 54
20 17 20 46 87 98 98 98 98 97 96 95 94 95 93 91 90 90 89 92 90 85 83 82 81 79 76 72 72 74 74 69 67 67 66 68 71 76 77 76 68 60 60 60 61 61 61 60 58 57 57 58 57 56
22 19 20 43 84 97 97 97 97 97 97 97 97 97 95 95 95 94 95 94 92 89 90 85 74 70 69 71 72 74 72 73 72 70 70 66 64 62 61 62 63 63 63 64 63 61 60 59 60 62 61 59 57 56
23 21 20 39 82 95 97 97 97 97 97 98 98 97 96 95 94 96 98 98 98 98 96 86 81 79 76 73 72 73 74 79 76 74 72 71 71 69 68 66 64 63 62 61 60 60 62 63 63 61 60 59 59 59
25 24 24 32 75 90 97 97 97 97 97 97 97 97 98 97 98 99 98 98 98 97 97 96 97 97 95 92 89 84 80 78 75 75 76 75 75 73 69 66 65 64 64 65 66 65 65 65 63 62 61 60 59 57
23 24 27 37 64 88 97 97 98 97 97 98 98 97 98 97 97 97 97 96 95 97 97 95 92 89 86 87 84 84 84 83 80 80 81 79 73 69 69 70 71 70 68 68 69 69 67 65 63 61 59 57 55 56
27 27 31 38 53 81 90 97 98 97 97 97 97 97 97 97 98 97 95 92 93 96 96 93 89 87 86 84 84 83 83 82 81 80 74 69 71 74 73 71 71 71 72 71 68 65 62 61 59 57 57 57 58 57
31 34 34 41 50 66 89 95 97 97 97 97 97 97 97 97 97 96 97 97 97 98 98 94 89 86 84 83 83 83 81 79 76 75 75 76 75 76 78 78 77 76 72 66 64 62 58 57 58 57 57 57 58 58
40 41 40 42 51 60 79 96 97 97 97 97 97 97 97 97 97 96 96 98 97 97 98 97 93 88 86 84 82 81 80 79 77 75 77 78 80 82 79 79 75 70 67 63 59 58 59 58 57 58 59 59 58 56
44 45 44 43 46 50 62 79 90 95 97 97 97 97 97 97 96 95 97 97 97 97 98 98 97 92 87 85 84 85 85 84 85 85 84 82 80 77 72 69 66 63 61 60 61 59 59 60 60 60 60 58 56 53
48 47 47 46 47 47 50 62 77 92 94 97 97 97 97 97 95 95 96 97 97 98 98 98 98 97 97 97 96 94 93 90 86 83 81 78 74 70 67 63 62 62 61 60 60 60 61 61 60 61 60 57 55 53
53 51 50 51 51 49 49 49 64 79 90 91 93 97 97 97 97 97 97 98 98 98 98 98 98 98 97 95 93 90 88 85 81 76 75 71 69 66 64 62 62 61 62 62 62 62 62 63 62 59 57 55 55 56
60 57 56 56 55 55 55 53 55 64 74 81 86 91 94 98 98 98 98 98 98 98 98 98 98 98 96 94 91 88 85 83 79 75 71 68 67 66 64 62 63 64 63 64 65 66 64 62 61 60 59 60 60 59
68 68 66 62 63 62 64 62 59 57 60 70 77 86 90 94 97 98 98 98 98 98 98 98 98 97 95 93 90 88 85 82 77 72 68 67 67 67 66 67 67 67 68 67 66 64 64 63 64 63 62 63 63 54
76 78 76 75 72 68 66 67 69 67 62 59 63 69 80 89 93 95 96 97 96 95 96 95 94 92 90 89 87 85 82 79 76 74 74 75 74 73 72 71 70 70 69 66 66 65 66 68 67 69 69 54 41 32
87 86 86 86 82 79 76 71 68 71 71 69 66 63 61 65 70 73 78 80 84 86 87 88 88 88 88 87 86 84 83 82 80 78 77 75 74 73 73 73 72 69 67 68 70 71 72 75 68 51 38 32 29 29

GFSWCAN_prec_cthk_018.txt.gz
RH
51 55 56 53 44 32 33 57 72 74 82 91 85 93 98 83 76 72 77 82 87 86 93 66 76 87 94 98 97 96 95 95 94 90 91 92 84 83 90 88 86 90 94 92 92 91 87 67 65 63 64 60 57 55
45 48 54 56 42 40 30 54 70 78 85 90 89 98 97 79 76 73 78 79 87 87 91 69 73 85 84 97 97 96 95 91 89 94 94 87 82 80 77 89 81 82 76 79 79 78 71 70 70 65 64 63 61 58
48 51 59 59 48 35 31 51 67 80 86 88 92 97 97 88 73 73 78 79 86 89 88 70 74 80 83 92 98 96 95 92 90 87 88 82 82 79 78 70 70 70 75 74 73 72 72 69 70 69 67 64 62 57
53 55 57 58 52 31 30 50 67 84 84 90 95 95 97 78 73 77 77 78 82 90 86 76 73 80 82 88 95 97 97 96 96 95 94 90 88 83 86 81 72 68 72 74 73 74 72 73 71 70 71 62 53 63
59 59 56 55 53 28 28 43 68 85 83 89 92 92 93 88 81 78 78 76 84 91 87 81 72 78 81 86 93 96 98 97 94 97 95 95 91 86 85 83 80 74 74 76 74 73 71 71 67 62 59 60 62 63
60 60 57 47 50 30 23 38 73 84 80 90 95 94 91 79 85 81 78 73 78 86 86 84 76 74 83 86 87 88 91 95 90 90 91 87 87 84 83 80 68 70 72 72 70 64 58 55 51 54 63 62 61 58
57 61 57 49 47 34 21 41 74 81 76 89 94 96 98 89 84 80 81 72 74 85 85 83 79 73 76 89 87 86 85 86 84 82 82 78 76 77 75 72 60 56 57 56 56 59 63 61 59 59 59 57 56 56
63 64 59 54 48 32 24 50 78 80 80 95 98 99 98 92 82 84 81 73 77 85 84 84 82 78 69 78 92 84 82 81 85 79 73 72 70 66 66 54 50 49 49 50 50 49 48 49 48 49 52 54 54 54
62 65 52 50 43 29 25 59 79 77 86 97 98 99 99 89 80 78 80 80 79 88 87 79 79 84 77 67 79 90 89 88 83 82 78 71 66 61 50 51 49 48 47 47 48 49 50 50 52 56 59 60 60 61
62 64 50 44 34 22 37 66 79 79 92 98 98 98 96 89 84 86 90 89 85 81 92 97 79 81 87 85 67 70 78 84 84 80 77 75 67 57 53 51 48 46 44 47 50 55 56 58 58 56 56 59 58 55
60 60 42 42 27 21 47 77 84 87 97 99 98 98 96 89 91 95 95 90 91 84 81 89 95 98 93 94 93 82 77 73 74 68 70 70 60 55 55 52 51 52 53 52 53 52 51 50 51 52 55 57 53 46
44 40 42 28 18 31 52 83 91 96 98 97 98 100 98 92 93 97 90 88 84 84 80 76 81 95 95 93 95 95 92 87 84 73 75 67 58 55 54 55 53 54 56 58 57 55 55 57 58 60 60 56 49 45
33 31 24 17 18 34 56 90 95 98 99 99 99 98 98 96 91 86 77 78 77 76 75 73 75 78 84 83 84 84 89 89 79 77 69 61 59 52 51 54 60 64 68 67 68 68 70 70 66 61 54 45 40 38
22 18 14 21 26 38 62 88 96 98 98 98 98 98 94 93 78 72 68 67 66 65 70 74 76 79 78 79 80 78 76 72 74 72 62 56 52 54 55 57 59 61 65 65 67 68 67 62 55 51 46 41 39 39
16 13 19 24 24 42 71 93 96 98 99 98 98 93 81 78 75 72 69 66 66 68 72 76 76 77 79 80 76 72 69 69 60 52 48 48 49 52 55 58 59 63 64 64 63 63 60 51 48 43 40 40 40 40
17 13 15 16 25 52 75 93 97 98 98 98 95 88 79 80 78 73 71 69 68 71 73 72 78 79 82 76 73 69 66 61 53 52 47 45 47 51 52 54 57 61 60 60 58 56 51 48 44 43 43 43 43 45
20 18 13 14 30 60 86 96 98 98 98 98 94 88 85 80 77 73 72 73 74 74 75 74 75 74 75 78 73 65 62 57 55 51 49 49 55 58 60 62 64 64 62 59 58 54 50 47 48 48 47 51 56 58
20 18 15 14 34 64 92 97 98 98 98 96 93 91 88 85 84 81 81 79 79 78 75 76 74 78 76 74 70 66 65 62 58 55 58 61 64 66 68 69 69 67 64 64 60 52 52 53 55 57 60 62 60 58
22 19 17 16 36 72 92 97 97 98 97 95 93 92 92 91 89 89 87 88 84 82 79 79 82 81 77 74 73 70 67 65 64 66 67 66 69 71 70 69 65 66 70 65 56 54 56 59 61 62 61 60 59 59
20 19 17 17 32 70 94 97 97 97 97 97 98 97 94 93 94 94 94 92 89 87 86 80 77 76 75 73 72 72 70 70 72 73 70 71 74 73 72 70 71 73 62 58 58 59 60 61 62 63 62 61 60 57
18 17 15 18 32 62 90 97 97 97 97 97 98 99 98 97 97 98 98 98 98 98 95 87 83 81 78 74 76 77 77 75 78 76 75 77 77 76 79 77 63 60 59 60 61 63 63 63 63 63 63 62 60 59
21 20 19 22 36 60 81 97 97 97 97 97 98 98 98 98 97 98 98 98 98 96 95 90 93 90 85 79 79 78 77 77 79 83 84 82 79 73 66 65 63 62 61 62 62 62 64 66 68 66 63 61 60 58
24 23 23 28 36 56 78 91 97 97 97 98 98 98 97 97 97 98 98 94 92 96 97 97 97 96 94 93 91 89 89 85 82 78 75 73 71 69 65 65 65 62 62 65 67 71 71 71 67 64 62 59 55 53
28 26 24 29 36 53 69 88 97 97 98 98 98 97 97 98 97 97 96 94 94 96 98 98 98 97 95 95 94 92 89 85 81 79 79 76 72 70 70 70 71 72 73 72 73 72 70 66 64 61 57 53 52 53
31 33 29 31 34 44 63 84 93 97 97 97 97 97 97 98 98 97 95 95 97 96 97 97 97 95 92 91 91 91 88 86 84 83 83 78 75 74 74 75 77 77 76 74 73 70 67 65 61 57 54 53 53 54
39 39 36 35 38 43 55 78 93 97 97 97 97 97 97 98 97 97 96 97 97 97 97 97 97 94 92 92 90 89 88 86 84 81 82 78 77 77 78 78 79 79 78 75 70 66 63 60 57 55 55 55 55 53
45 42 42 38 38 39 47 54 73 94 97 98 97 98 98 97 97 96 97 97 97 97 97 97 97 94 92 90 89 88 86 84 83 82 83 84 84 82 80 77 76 74 71 68 66 63 60 57 56 57 56 55 53 53
52 46 45 43 42 40 42 45 57 84 95 96 97 97 97 97 98 99 98 98 97 97 97 97 97 96 95 93 90 89 89 88 88 89 88 86 84 82 79 76 73 71 68 65 62 60 58 58 57 56 55 54 54 53
57 51 48 48 46 45 44 44 51 63 80 91 96 98 97 97 97 97 97 97 97 97 97 98 98 98 97 97 97 97 97 96 94 90 87 84 82 79 76 73 70 67 64 63 61 61 60 58 58 58 58 57 55 54
62 59 55 52 51 50 49 49 50 50 58 77 88 95 97 97 98 98 98 98 97 97 98 98 98 98 98 98 98 97 96 93 90 86 82 79 76 75 73 70 68 65 64 64 63 62 62 60 60 61 59 57 57 57
66 66 64 60 58 57 56 54 53 53 52 58 73 87 94 96 97 97 98 98 98 98 98 98 98 98 98 98 97 94 90 88 84 82 79 77 74 72 70 69 68 67 67 67 65 64 63 62 60 59 58 58 58 57
69 72 73 71 70 65 63 59 59 60 60 55 57 69 85 94 97 98 98 98 98 98 98 98 98 98 98 97 94 91 89 86 83 80 76 73 71 71 72 72 72 71 69 67 64 64 63 60 60 60 59 59 55 44
78 78 80 79 77 75 69 66 63 61 62 63 60 57 62 73 83 89 93 93 95 96 97 97 96 96 94 93 91 89 89 87 85 83 82 80 78 77 76 74 73 70 68 66 65 63 62 62 62 62 57 46 36 28

GFSWCAN_prec_cthk_021.txt.gz
RH
39 39 48 47 54 57 46 42 42 59 78 75 86 90 95 94 99 91 83 82 80 86 92 94 83 78 94 97 98 98 98 97 97 95 94 90 88 82 82 79 84 85 91 93 91 92 87 64 65 62 62 60 58 55
36 46 52 52 54 60 51 32 41 64 72 74 83 91 98 98 99 93 79 79 82 87 92 98 85 77 92 93 96 98 97 94 96 95 90 89 87 84 86 89 84 88 81 88 80 77 72 70 67 64 63 62 63 57
39 47 56 56 57 56 52 30 33 62 73 70 79 89 95 97 97 91 76 80 82 87 90 93 81 73 90 90 95 97 97 98 96 93 88 88 92 84 81 79 81 77 75 78 76 70 69 70 70 69 67 64 65 62
43 47 57 60 57 55 53 31 31 55 64 72 78 86 92 98 98 83 78 81 84 87 91 89 81 74 88 88 95 98 98 97 97 91 93 94 92 81 80 75 73 71 70 69 72 73 71 70 68 69 68 67 67 63
48 51 52 59 56 48 50 35 29 50 65 77 78 89 93 98 98 83 78 81 83 86 90 88 86 72 83 87 94 97 98 98 97 96 92 91 89 83 82 82 79 75 70 71 73 71 71 71 70 72 72 69 62 58
47 53 56 60 58 55 52 33 32 49 68 78 79 91 94 99 98 92 79 78 80 84 92 91 85 78 75 87 94 95 99 97 97 96 95 92 90 88 88 86 75 74 71 70 74 73 74 73 69 68 63 59 59 62
51 50 53 59 58 54 49 28 27 52 73 78 80 88 95 99 97 84 74 73 75 83 87 85 85 79 75 82 90 94 95 96 94 93 93 91 88 87 86 85 69 64 69 75 73 67 64 62 62 61 59 60 63 61
45 48 55 57 57 48 37 20 30 60 75 75 79 93 97 99 91 84 83 77 78 81 86 85 81 82 78 75 87 90 94 91 86 87 85 84 81 79 81 69 63 60 60 59 56 55 60 65 61 58 56 55 54 53
39 44 55 56 45 41 23 15 42 64 76 73 85 96 97 97 93 81 84 83 78 81 85 81 80 79 82 78 75 90 89 89 88 87 83 80 75 75 62 58 54 53 52 53 54 55 55 53 52 52 52 52 54 58
32 39 40 37 39 28 16 26 42 71 76 77 97 99 98 97 95 89 92 98 87 86 79 81 84 79 79 86 78 73 90 94 90 86 84 81 70 62 58 56 54 53 51 49 49 52 54 55 55 56 59 61 62 61
21 25 28 26 22 16 19 34 49 80 82 94 99 99 98 98 99 98 95 90 89 88 76 78 82 83 80 83 89 83 75 78 78 77 79 76 73 62 54 51 50 50 50 50 51 53 55 56 58 56 55 55 57 57
18 16 15 14 14 22 28 39 61 86 90 97 98 99 99 99 98 98 89 87 82 80 74 67 73 93 95 92 92 88 88 85 81 74 74 68 57 57 57 58 59 59 58 56 55 58 59 60 59 57 60 60 61 58
15 13 11 14 22 22 30 46 72 89 97 98 99 99 98 96 94 86 79 78 76 74 74 72 73 82 93 97 96 95 95 92 82 77 70 62 61 55 49 49 55 61 62 62 65 70 71 71 72 72 71 67 57 47
15 14 12 10 14 19 36 55 84 92 98 98 98 98 98 88 77 70 65 68 65 68 73 76 79 82 79 83 86 87 87 79 77 75 63 58 58 56 52 54 57 61 64 67 72 74 74 75 74 69 61 56 48 45
15 15 13 10 11 20 42 59 85 95 98 98 98 98 87 80 74 71 68 69 68 70 72 80 84 83 86 85 80 78 79 73 62 52 47 46 49 53 56 59 60 63 67 66 70 73 71 69 65 58 54 47 43 43
17 16 14 12 9 24 47 61 84 97 98 98 98 96 85 83 79 73 72 72 73 73 77 80 86 85 85 81 78 72 67 60 51 50 48 47 49 50 52 55 58 61 62 62 65 65 63 60 52 48 48 49 47 44
19 17 14 12 9 25 51 66 87 97 98 98 97 90 89 85 80 74 75 77 78 79 83 81 79 76 81 80 72 65 61 53 56 52 50 50 50 52 56 58 60 63 61 60 61 59 58 53 48 48 49 49 48 48
21 17 14 12 10 21 53 69 86 97 97 96 95 95 91 90 84 78 78 82 82 80 76 75 75 78 76 74 69 61 63 65 60 55 53 56 61 64 65 66 68 68 65 64 65 64 57 51 52 54 53 54 56 58
24 18 14 11 12 23 57 72 84 93 97 95 96 96 95 93 90 85 83 84 82 81 77 77 74 73 71 69 68 66 66 62 61 61 60 65 69 70 69 72 70 68 64 63 62 57 53 53 54 56 56 57 60 62
23 17 13 12 15 29 53 71 89 97 97 97 97 98 98 97 95 93 91 88 84 82 82 76 71 71 70 70 71 71 70 67 66 67 69 72 74 73 74 74 70 66 65 66 60 57 54 56 57 58 60 63 64 64
24 17 14 14 21 34 51 68 86 97 97 97 97 97 98 98 99 97 95 94 95 94 86 79 75 73 73 72 74 75 75 71 71 71 70 73 76 75 75 74 70 70 71 66 61 59 58 58 61 64 66 67 66 64
27 20 17 19 27 37 54 64 78 95 97 97 97 98 98 98 99 98 98 98 97 94 94 88 84 82 80 82 84 82 79 79 81 80 81 82 78 76 78 76 75 75 66 61 59 59 60 64 67 67 68 67 64 61
27 22 20 23 26 35 49 58 73 91 97 97 97 98 98 98 97 98 98 97 95 94 95 97 96 92 90 88 86 84 83 84 85 85 88 88 84 82 82 82 73 65 63 63 62 63 66 70 71 71 68 64 61 56
28 25 22 24 26 32 35 54 68 81 96 96 97 97 97 97 97 97 96 94 94 97 97 98 98 97 97 94 89 86 83 85 90 93 92 89 90 89 80 71 67 66 64 65 67 70 74 74 73 70 66 62 57 53
29 28 28 30 30 32 40 48 63 81 88 97 97 97 97 97 97 96 94 93 92 91 92 92 94 96 98 97 97 95 94 96 97 95 94 88 79 73 71 71 70 70 72 75 78 77 75 74 72 68 63 58 55 52
31 33 32 35 35 35 41 49 56 73 87 95 97 97 97 97 97 97 96 97 96 93 94 96 97 97 97 97 97 97 97 96 93 86 84 81 76 72 74 76 79 84 85 84 81 78 76 72 68 63 59 57 53 51
37 38 42 39 37 36 38 39 44 61 81 97 97 97 97 97 97 96 97 98 97 96 96 97 97 97 97 97 97 97 97 96 92 88 87 88 88 86 84 84 85 84 82 80 78 74 70 67 63 61 58 55 52 49
43 46 44 45 43 41 40 40 43 53 71 88 97 97 97 97 97 97 97 97 97 97 97 97 98 97 97 97 98 98 97 95 93 93 93 90 89 89 89 87 84 81 80 78 74 71 67 63 61 58 55 52 52 50
53 53 51 53 47 45 45 43 46 49 55 68 90 97 96 97 96 96 97 97 97 97 97 98 98 98 97 97 97 97 96 95 93 93 93 95 94 92 89 85 81 78 75 71 69 67 65 61 58 56 54 53 51 49
57 57 57 58 51 50 50 50 47 46 47 57 74 91 97 95 96 96 97 97 97 97 97 98 98 98 97 98 98 98 97 98 97 97 95 91 87 85 83 82 79 75 73 71 69 66 62 60 58 57 55 52 51 52
62 62 62 63 61 57 57 55 54 51 51 50 59 79 91 97 96 96 96 97 97 97 98 98 98 98 98 98 98 97 97 97 95 92 89 86 84 83 81 79 77 76 74 71 67 64 62 61 59 57 55 55 54 52
67 66 67 68 68 67 66 62 61 56 56 57 55 63 84 89 93 97 97 98 98 98 98 98 98 98 98 98 98 97 96 93 90 89 86 84 84 81 80 79 78 76 72 69 67 65 64 62 59 57 57 55 52 48
70 70 71 72 74 75 74 69 69 64 58 59 60 57 63 82 90 94 95 98 98 98 98 98 98 98 98 98 97 95 93 92 90 88 86 84 82 81 80 78 75 73 72 70 68 67 64 61 59 58 54 50 44 35

GFSWCAN_prec_cthk_024.txt.gz
RH
37 40 39 45 54 55 53 54 48 36 49 65 79 86 95 97 98 98 99 86 74 80 81 92 95 93 94 96 97 97 99 95 97 93 88 83 82 82 79 72 75 79 82 84 88 89 81 65 64 61 60 57 57 55
35 40 49 50 56 56 50 53 45 34 43 67 77 85 94 96 99 99 94 80 80 79 84 96 96 94 90 94 96 98 96 96 95 93 89 90 89 85 79 82 75 83 79 85 79 76 68 70 67 65 63 63 63 58
40 46 50 56 52 57 49 40 45 34 35 59 72 81 91 97 99 97 98 81 84 78 87 93 96 80 84 95 96 98 97 96 97 95 94 91 86 78 83 82 84 81 79 80 77 71 73 74 72 70 68 66 67 66
41 46 51 55 57 59 50 38 42 36 33 54 69 78 91 96 96 98 99 85 83 79 87 93 95 86 85 94 94 97 98 98 99 98 97 92 87 87 88 82 84 81 78 74 74 74 72 71 71 71 71 69 69 69
40 41 46 53 53 57 52 48 44 32 37 55 62 76 88 91 92 97 95 89 80 83 88 93 90 86 80 91 93 98 99 99 99 98 95 89 92 92 88 83 79 74 77 78 76 70 70 70 72 72 70 69 69 68
37 38 42 50 57 53 50 45 42 28 41 58 68 74 87 92 98 99 92 82 77 83 88 91 88 88 80 88 95 98 98 98 98 96 92 91 89 86 86 84 77 78 77 74 73 71 73 74 75 74 72 72 69 62
27 30 38 47 55 52 41 40 24 22 44 54 64 72 87 92 96 96 90 77 76 84 87 95 89 86 82 83 95 97 97 99 98 96 96 92 91 91 90 88 80 72 75 75 74 76 79 77 75 72 68 63 62 62
24 23 27 31 37 36 36 25 15 26 44 57 62 66 87 93 96 99 91 83 78 84 83 89 87 86 83 81 90 98 97 96 96 96 94 94 91 89 88 79 73 68 70 76 76 71 67 66 66 67 66 62 60 60
19 18 20 22 23 23 20 13 19 32 44 60 58 69 91 96 98 97 99 90 81 83 80 79 82 84 84 85 83 92 96 97 94 92 92 90 87 84 74 68 64 62 61 63 61 59 59 65 68 64 58 55 53 52
18 16 15 13 11 12 15 24 27 39 62 70 71 91 97 96 97 95 94 91 89 81 76 78 76 81 80 83 84 81 91 94 92 92 87 83 76 67 69 64 60 57 56 54 56 60 58 56 55 55 55 54 55 58
19 15 13 11 12 17 18 20 35 55 68 77 89 98 99 99 99 99 96 92 94 86 76 68 77 81 80 82 85 84 79 82 87 87 86 80 72 62 59 58 58 56 54 53 51 49 50 52 53 56 59 59 57 57
22 17 15 12 10 12 16 28 42 61 76 86 94 98 99 99 98 98 94 90 85 86 76 67 67 75 84 83 81 89 88 80 73 74 76 72 63 61 59 58 57 57 56 55 52 52 56 60 61 58 57 56 57 56
24 19 16 14 11 9 17 35 48 61 80 95 98 98 99 97 98 88 81 79 76 74 73 72 74 71 81 93 95 92 91 89 84 82 73 62 57 57 56 54 56 62 65 64 63 60 62 64 66 67 68 67 66 64
26 21 17 15 12 9 13 36 52 62 88 98 98 98 98 94 81 73 68 69 63 67 68 72 74 72 72 90 97 94 91 84 81 78 62 56 55 53 53 52 52 54 59 64 66 67 70 72 73 74 75 71 65 54
27 23 18 14 12 9 12 34 54 65 93 98 98 98 95 86 79 77 73 72 71 74 75 80 81 79 80 85 83 84 84 79 68 58 51 48 49 54 54 55 55 58 63 66 66 70 73 70 71 70 68 60 52 48
29 24 19 14 9 8 11 40 55 67 93 98 97 97 91 85 83 78 76 74 76 79 82 81 84 84 88 84 80 78 74 65 56 54 50 49 49 49 50 53 59 63 67 66 67 70 71 69 68 64 57 51 48 47
31 27 21 14 9 8 13 42 58 71 90 96 96 94 94 92 87 85 80 81 81 84 84 83 81 80 83 83 76 70 64 56 53 54 53 53 52 51 52 55 57 57 60 59 64 65 65 64 57 50 46 48 48 50
35 28 23 15 10 9 19 44 57 69 82 94 94 95 94 96 94 89 88 87 86 85 84 83 81 84 80 75 71 64 64 63 60 59 58 56 55 57 60 62 63 66 66 66 67 65 64 59 53 50 51 52 54 55
38 31 25 19 13 15 29 45 57 66 74 89 94 94 96 97 96 93 90 89 89 89 87 85 84 79 73 72 69 67 66 62 60 60 63 64 63 66 69 71 71 73 70 70 68 66 61 55 52 52 53 55 55 57
39 32 27 20 15 23 33 46 54 65 70 82 94 96 95 97 98 97 93 91 91 90 90 82 76 71 72 70 69 68 67 65 62 64 66 69 72 75 76 76 75 72 69 67 64 63 59 56 55 55 56 57 59 60
41 34 28 20 18 27 34 44 47 64 72 78 90 96 97 97 98 97 97 94 95 93 87 78 74 72 72 71 70 70 70 69 71 69 68 71 78 80 78 76 73 72 70 69 68 63 59 56 58 59 61 62 64 67
46 37 31 24 21 30 39 45 45 56 69 76 85 95 98 97 98 98 98 98 94 93 90 85 81 77 75 74 74 75 75 75 76 74 78 79 78 80 81 81 78 75 73 73 64 62 62 61 62 64 65 68 70 69
47 40 33 26 22 25 34 32 44 54 64 79 86 97 97 97 97 98 98 96 95 94 91 89 86 83 82 81 82 83 85 87 85 84 83 83 87 86 85 82 79 80 80 74 69 66 64 65 67 68 70 72 71 66
49 43 34 25 23 27 25 31 40 51 59 73 86 97 97 97 97 97 97 96 94 95 92 93 93 91 91 91 91 90 89 89 87 88 91 92 91 90 88 85 85 86 75 69 68 66 68 71 73 74 76 74 69 63
51 41 32 26 27 29 33 36 41 52 59 67 83 92 98 97 97 97 96 96 97 97 97 98 98 97 97 96 95 90 86 86 91 94 95 95 94 92 90 92 85 77 71 69 70 73 76 79 81 79 76 71 65 60
48 36 31 30 32 32 34 38 41 46 58 65 78 89 96 97 97 96 96 97 97 97 97 97 96 97 97 97 96 94 91 91 93 95 98 97 97 96 92 83 76 74 76 79 81 84 84 81 79 75 70 65 61 58
45 37 38 36 37 36 37 35 37 44 58 65 71 82 94 97 97 96 96 96 96 97 97 97 96 96 95 95 97 97 98 98 98 98 98 98 96 85 77 76 79 84 88 90 86 81 77 76 73 69 66 63 59 56
45 41 41 42 42 41 40 39 42 46 52 58 66 79 90 98 97 96 96 96 95 96 96 96 97 97 97 96 97 97 97 98 98 97 93 87 84 85 88 90 91 93 91 85 81 78 76 74 70 66 64 61 56 53
47 45 45 48 48 47 45 42 44 46 45 49 59 75 82 92 95 95 95 97 97 96 97 97 97 97 98 97 97 97 98 98 97 97 97 96 96 96 96 96 95 89 83 79 79 77 72 69 67 65 62 57 53 51
51 51 53 53 51 50 49 48 49 47 44 43 51 68 76 82 94 95 95 96 97 97 97 97 97 97 97 98 97 97 98 98 98 98 97 97 97 97 97 94 87 83 80 78 74 71 70 68 66 62 58 56 54 51
56 59 58 58 55 55 58 57 55 52 50 45 45 54 71 80 86 94 95 96 97 97 97 97 98 98 98 98 98 98 98 98 98 98 98 97 96 92 88 85 82 79 78 77 76 74 71 67 63 60 58 56 54 52
63 65 66 63 61 62 66 66 63 58 54 50 49 49 64 81 85 89 96 96 98 98 98 98 98 98 98 97 98 98 98 98 98 97 96 92 89 88 86 84 82 80 78 75 74 72 68 63 61 60 58 56 54 49
69 71 70 67 66 69 72 72 70 65 62 55 52 53 57 74 86 87 90 95 98 98 98 98 98 98 98 98 98 98 98 97 97 96 95 92 89 87 85 84 82 79 76 74 71 68 66 65 63 61 58 54 48 44

GFSWCAN_prec_cthk_027.txt.gz
RH
35 41 47 51 48 50 52 54 47 45 48 37 59 73 86 88 91 91 94 97 98 86 84 85 86 94 98 95 97 96 98 95 84 87 89 83 78 78 76 70 76 79 79 80 85 87 78 67 63 59 58 58 56 56
37 47 46 48 51 53 50 54 42 40 46 38 49 70 86 93 93 95 97 98 93 88 84 83 89 95 95 97 97 97 96 95 87 85 84 85 84 77 78 81 75 77 74 77 80 76 69 70 67 65 61 62 60 59
40 44 42 44 42 48 45 51 45 41 44 36 47 70 84 91 93 94 97 98 91 83 82 85 92 95 89 94 98 97 96 96 92 91 92 88 86 82 84 77 76 76 77 85 81 74 71 70 70 68 66 65 66 64
37 37 35 38 40 44 49 48 42 39 41 28 49 70 82 91 92 93 94 90 87 90 85 84 95 96 93 94 98 98 97 98 98 97 96 92 90 83 79 74 75 75 78 78 79 76 74 72 72 71 70 70 69 69
33 33 31 32 34 39 48 47 38 36 27 24 50 69 83 91 91 92 94 91 86 91 85 86 94 96 87 90 96 97 98 98 98 99 98 95 91 87 83 83 80 76 77 76 75 71 72 70 72 71 72 73 71 70
30 27 25 24 25 30 34 32 35 25 15 21 45 62 80 92 97 97 98 92 86 89 84 90 95 94 91 88 93 98 98 99 99 98 96 95 91 88 87 87 79 73 70 72 74 73 72 73 75 75 75 74 73 72
28 23 20 19 20 22 24 25 20 13 18 28 44 57 75 85 91 90 89 86 84 87 84 94 93 88 91 86 92 98 97 98 99 99 98 96 90 89 87 84 74 73 75 77 76 74 76 77 79 79 73 73 73 67
25 22 19 16 13 12 14 16 21 22 20 29 46 55 71 84 92 93 93 89 84 85 82 90 94 90 88 86 89 98 97 98 97 97 96 96 93 89 88 80 78 77 73 76 78 76 78 79 80 79 76 69 65 63
25 22 19 16 12 10 16 22 23 24 31 47 55 59 77 90 93 92 92 90 87 86 81 80 88 88 89 86 85 97 97 98 96 96 96 96 95 91 78 78 77 71 69 74 80 78 74 72 72 71 69 64 59 56
26 24 20 17 13 9 11 22 28 38 54 60 64 72 87 92 97 98 99 95 90 86 76 75 76 82 84 89 86 86 95 97 94 92 90 91 86 71 70 70 66 64 63 64 63 64 65 67 67 65 63 60 57 56
28 25 21 18 14 11 9 22 35 45 59 64 69 80 89 94 98 97 98 97 92 86 71 68 71 77 81 85 87 84 85 87 90 86 85 81 76 64 63 65 65 60 59 59 58 58 58 58 56 56 56 57 58 60
29 27 23 19 14 11 9 18 35 47 59 68 76 86 94 97 98 97 94 88 82 81 76 66 65 75 84 82 83 88 88 82 71 69 74 74 65 58 55 58 60 59 58 57 56 55 54 54 55 58 59 60 59 56
30 28 24 20 15 11 8 10 32 46 56 71 89 97 94 98 98 90 85 78 74 71 73 76 75 70 75 82 88 88 86 84 82 80 72 64 57 57 58 58 56 59 60 60 59 58 58 58 62 65 65 61 60 60
32 29 26 21 15 9 7 7 26 47 59 79 91 96 95 95 90 85 79 74 70 73 76 79 84 81 78 77 87 90 91 86 83 80 68 57 53 54 54 54 55 56 58 63 64 66 66 65 65 65 67 69 71 68
33 30 27 23 17 10 7 7 30 45 56 86 94 97 98 92 87 85 85 81 77 78 80 82 82 82 85 86 81 83 89 85 74 65 56 47 45 51 55 56 57 57 60 62 64 66 68 70 68 68 71 72 69 61
35 33 30 25 19 13 8 8 32 45 55 80 96 97 96 89 88 87 85 84 84 87 89 86 86 86 85 82 82 76 74 65 59 58 53 49 46 47 50 54 58 63 66 68 69 72 72 72 71 70 70 67 59 51
37 36 33 28 21 14 9 19 34 47 59 68 91 94 95 92 92 93 89 86 90 92 91 89 88 85 85 83 77 71 68 60 57 57 54 53 50 50 52 54 58 61 63 65 66 70 73 69 66 67 64 57 51 50
40 38 34 30 25 16 13 27 38 47 55 62 80 93 94 93 94 95 95 93 93 92 90 84 84 84 78 73 70 65 66 63 61 59 58 56 55 55 56 58 61 64 64 64 66 66 70 66 67 60 52 50 51 53
43 40 37 33 27 22 24 32 38 46 49 57 67 87 92 92 92 96 97 95 95 96 93 88 84 79 76 73 70 68 68 65 62 60 60 59 59 60 61 66 68 69 70 70 72 74 71 69 61 56 54 53 53 55
44 40 38 35 29 29 29 33 36 41 47 50 56 72 86 91 89 96 98 98 98 97 97 89 81 78 78 78 77 75 71 67 62 63 61 61 64 66 69 72 72 75 76 76 76 72 70 63 57 54 52 54 55 57
47 43 40 37 34 35 30 34 35 41 43 47 53 60 72 89 93 95 98 97 98 98 94 87 82 81 81 80 76 72 67 67 65 63 63 65 67 70 74 77 79 79 80 77 73 70 63 59 57 56 56 58 62 62
51 47 44 40 39 39 32 39 33 31 38 42 48 58 67 84 97 98 98 98 98 94 92 92 91 88 84 82 81 77 74 72 70 69 69 73 74 73 76 80 81 80 77 76 74 68 64 61 59 59 61 63 64 66
53 49 46 43 42 32 30 28 30 35 40 45 50 58 70 79 95 97 97 96 95 94 93 93 95 94 92 89 84 82 80 79 78 78 77 77 81 84 85 84 81 80 79 77 73 70 67 65 64 65 66 67 68 70
55 51 47 43 37 31 26 27 30 36 41 47 53 58 66 81 90 97 97 97 97 94 93 95 96 95 93 90 89 87 88 88 87 87 88 86 86 89 88 84 83 81 80 80 76 72 70 69 69 71 72 72 74 73
59 55 49 45 40 32 30 31 33 37 43 44 52 57 66 76 88 96 97 97 97 97 97 97 98 97 97 97 95 96 95 95 94 93 93 93 93 92 90 87 87 85 86 81 77 74 72 72 75 76 77 78 75 69
63 54 48 40 36 31 31 32 34 35 38 46 58 61 65 73 84 93 95 97 97 97 97 97 97 97 97 97 97 97 98 97 95 92 93 95 96 95 93 91 89 92 88 79 73 73 77 80 82 84 81 76 70 65
65 56 48 43 36 33 34 35 34 36 42 49 57 61 66 74 77 87 95 96 97 97 97 97 96 97 97 97 97 97 97 97 94 94 97 98 98 98 97 95 95 85 80 79 81 86 86 87 84 79 76 70 66 61
61 51 45 42 39 37 36 38 37 39 44 46 48 58 68 75 74 76 85 93 95 96 97 97 97 97 97 97 97 97 97 97 97 98 98 98 97 98 98 96 86 81 88 94 95 93 89 81 76 74 70 67 63 61
58 48 44 43 42 41 41 40 38 39 40 43 47 50 55 65 69 72 79 89 94 96 97 97 97 97 97 96 97 97 97 97 97 96 97 97 97 97 92 85 88 97 97 96 94 88 82 78 75 72 70 66 62 58
49 46 46 45 44 43 43 43 45 44 44 45 45 43 45 52 62 70 79 85 91 94 95 97 97 97 97 97 97 97 97 98 98 98 97 97 93 92 95 97 98 97 97 92 85 78 74 75 74 71 68 63 59 56
49 49 49 49 48 49 49 48 51 52 50 50 49 46 43 48 62 69 77 84 91 96 97 96 97 97 97 97 97 97 97 97 98 98 97 96 97 98 98 98 97 95 90 84 81 78 77 75 74 69 65 61 57 55
50 52 53 54 55 55 55 54 58 61 58 56 53 48 46 52 65 72 78 86 95 97 97 98 97 98 98 98 97 97 97 98 98 98 98 98 98 98 98 97 95 90 85 83 82 80 76 75 71 66 63 60 59 56
54 55 57 60 62 61 60 59 64 67 63 60 56 50 46 50 65 74 82 86 94 97 98 98 98 98 98 98 98 98 98 98 98 98 98 98 98 97 95 91 86 85 84 81 78 77 75 72 69 66 64 62 57 51

GFSWCAN_prec_cthk_030.txt.gz
RH
34 32 34 38 38 39 44 36 47 41 40 47 41 51 69 83 85 85 92 91 94 92 91 88 91 92 93 92 98 97 98 98 97 83 80 79 81 79 81 73 77 79 85 82 84 91 82 76 68 62 62 60 59 63
34 31 32 36 35 36 39 36 46 38 37 40 40 48 68 85 87 87 94 94 92 94 94 90 83 83 91 96 97 98 97 98 90 78 75 83 80 80 77 80 74 77 77 79 82 80 74 77 73 69 67 63 62 62
33 30 30 32 31 32 36 40 46 35 30 36 34 46 68 83 84 84 91 93 95 98 90 85 81 90 94 94 98 98 97 97 96 81 84 84 83 77 80 79 77 75 78 83 83 75 74 73 73 71 68 70 67 66
34 29 27 26 22 24 29 38 38 32 30 29 28 43 67 82 88 88 89 92 94 91 83 83 88 92 98 97 98 98 98 98 95 94 88 87 84 81 82 78 75 76 80 78 80 78 75 73 75 75 73 72 71 70
35 25 24 22 19 19 19 24 27 26 19 19 29 41 58 77 86 90 91 95 94 93 87 86 90 92 97 91 97 98 98 98 98 96 93 93 89 87 86 82 77 76 76 79 79 74 75 72 75 75 74 74 74 72
33 24 22 21 17 13 15 13 16 17 18 20 30 42 57 75 86 90 92 90 90 85 91 90 92 91 96 93 95 98 98 98 98 96 97 92 91 87 87 82 74 73 73 73 74 74 74 74 75 77 76 76 76 75
30 25 22 21 18 13 12 13 20 21 20 20 29 43 58 78 88 90 89 91 85 86 88 88 92 91 92 94 92 98 99 98 98 98 95 95 92 88 84 81 74 74 72 73 73 75 77 76 77 78 76 77 76 77
31 27 24 22 19 14 12 12 21 24 25 23 33 48 62 81 92 95 95 93 89 86 85 87 92 92 91 89 91 97 99 98 98 98 97 97 94 90 86 75 74 74 72 73 79 80 77 76 77 80 79 77 77 74
31 29 25 23 20 15 11 10 23 33 37 38 41 56 66 88 97 97 99 95 92 89 86 80 84 91 90 90 86 92 98 98 97 97 95 96 94 90 78 72 75 76 75 74 75 82 81 81 80 80 78 75 72 68
31 30 26 24 21 16 11 9 24 37 43 42 49 66 82 92 98 98 99 94 94 92 86 78 74 84 85 89 88 84 95 98 98 96 95 93 88 79 77 73 74 72 69 69 80 83 79 74 74 71 70 66 62 58
31 31 27 25 21 16 10 8 20 38 44 50 60 73 86 94 97 98 98 95 90 84 81 75 70 75 80 82 87 84 85 90 92 90 89 82 76 68 66 66 68 64 65 65 63 60 61 65 66 66 65 63 62 62
31 31 28 26 22 17 10 7 14 35 49 51 67 84 94 97 98 98 98 93 85 85 84 78 72 71 79 78 80 85 88 84 76 72 75 76 62 60 60 62 66 64 62 61 60 60 60 62 62 60 58 57 58 60
33 32 29 27 23 18 12 7 8 33 51 58 77 95 92 97 97 90 89 88 85 81 82 85 79 73 78 84 86 85 83 81 82 81 73 65 57 57 57 59 61 64 64 63 62 60 59 60 63 63 62 64 66 64
34 32 30 28 25 20 14 7 6 31 47 63 82 96 96 94 88 87 86 85 83 79 82 85 86 81 78 78 79 82 83 82 81 80 72 59 51 53 56 57 59 62 63 64 65 65 65 64 66 67 69 69 67 66
36 33 31 29 27 22 15 9 9 30 40 58 78 91 92 90 87 85 85 82 82 84 86 86 87 85 86 83 78 78 79 78 72 68 60 51 48 49 52 56 58 59 61 62 64 67 69 71 72 73 71 69 70 73
39 35 33 31 29 25 19 12 20 29 37 48 68 84 87 87 86 86 85 85 88 90 92 90 89 88 86 84 85 79 73 65 59 64 52 51 50 49 48 50 54 59 62 63 66 70 74 77 77 75 72 72 72 67
42 39 37 32 30 28 23 24 29 35 40 47 52 71 88 90 88 88 90 88 90 95 94 93 88 85 84 84 79 71 66 60 56 54 51 51 54 53 51 50 53 56 61 66 69 72 75 77 75 73 72 72 69 59
45 41 38 34 31 29 30 35 36 37 40 43 48 54 76 86 89 87 92 93 91 92 94 92 85 88 82 79 75 69 66 61 60 59 56 55 54 55 55 55 56 59 62 66 68 68 69 69 67 67 70 67 56 50
50 46 41 37 34 32 31 37 38 36 38 40 42 45 50 69 83 86 88 96 96 96 98 96 91 82 79 78 76 70 68 66 65 61 59 58 57 59 59 60 62 65 68 69 68 68 73 70 67 72 63 55 53 54
53 48 44 40 36 33 35 40 40 36 37 38 34 39 43 46 64 84 88 92 98 98 98 95 85 79 79 77 78 77 75 72 69 67 64 62 61 62 64 65 68 71 72 72 73 71 75 76 75 63 58 57 56 55
55 50 46 43 40 39 40 42 43 39 34 33 32 33 33 40 47 69 89 94 98 98 97 90 89 86 85 81 79 78 78 77 73 70 68 67 67 68 69 72 73 75 75 76 77 82 79 73 67 63 59 57 57 58
59 54 51 46 42 43 46 48 44 37 31 30 33 37 39 41 47 56 74 93 97 95 96 97 94 92 89 88 87 85 84 81 77 76 73 71 69 70 73 75 78 80 80 81 85 82 75 69 63 61 60 60 61 62
62 57 53 49 45 44 43 44 41 37 34 36 34 37 42 48 52 58 66 76 94 97 97 97 97 96 97 96 90 88 89 89 81 77 75 72 72 74 79 82 83 83 83 85 81 80 75 69 66 64 63 64 65 68
64 61 54 48 45 41 40 39 36 36 34 36 38 35 40 46 51 59 64 70 82 96 97 97 97 97 98 98 98 98 95 91 88 84 81 82 82 82 84 89 89 88 88 85 83 78 74 71 69 67 67 68 71 73
67 62 55 48 48 45 41 40 40 36 35 35 35 38 49 53 57 60 62 70 80 90 96 97 97 97 97 97 97 97 98 97 93 90 88 87 90 90 90 91 95 92 86 85 84 78 76 72 71 71 73 76 78 77
73 60 56 48 47 44 40 37 36 34 33 34 40 45 49 53 56 60 64 72 76 84 96 96 96 95 96 97 97 97 97 98 96 95 95 94 92 92 95 96 96 90 87 86 84 80 77 74 74 78 82 88 83 74
73 65 59 54 50 46 42 37 34 34 35 39 45 46 49 58 63 64 65 66 69 77 91 96 97 97 96 96 97 97 97 97 98 97 96 95 95 97 98 98 94 89 89 92 87 80 78 78 83 87 88 83 76 74
72 63 60 57 53 46 40 37 36 34 36 40 41 43 48 51 49 48 54 61 65 72 84 94 96 96 96 95 97 97 97 97 97 97 96 96 97 97 97 98 96 97 97 92 86 81 85 89 93 90 81 76 75 68
71 64 59 57 51 48 40 35 33 32 34 35 40 41 42 40 38 38 43 52 60 70 79 92 95 96 96 96 96 97 97 97 97 96 97 96 97 97 97 97 98 97 92 87 88 95 97 96 90 80 75 74 71 68
69 63 56 53 50 41 36 36 36 38 39 40 41 41 41 41 38 40 46 52 59 69 80 86 94 97 97 97 97 97 97 97 97 97 97 97 97 97 97 98 97 93 91 96 97 97 95 89 80 76 75 72 69 66
60 57 54 51 46 43 41 41 42 43 44 45 47 47 47 44 40 42 50 58 62 73 83 87 90 95 96 97 97 97 97 97 97 97 97 97 97 97 98 97 96 97 98 98 97 94 86 78 76 77 76 71 67 63
56 56 53 49 46 45 45 46 48 48 49 50 52 52 52 49 45 44 55 62 68 79 86 90 94 94 96 97 97 97 97 97 97 97 98 97 97 97 97 98 98 98 97 96 92 86 82 81 80 75 70 68 65 62
58 56 53 51 48 47 49 51 53 53 52 53 56 55 55 53 45 44 61 66 76 84 93 97 97 97 98 97 97 97 98 98 98 98 98 98 98 98 98 98 97 97 94 91 87 86 86 83 78 73 70 67 64 61

GFSWCAN_prec_cthk_033.txt.gz
RH
34 33 33 30 31 29 31 32 32 38 34 37 45 38 47 73 82 84 90 92 92 91 91 90 89 93 94 94 95 95 98 98 98 97 89 78 79 81 86 80 84 81 84 87 86 86 84 71 65 66 65 65 71 76
30 34 34 31 29 26 25 26 33 36 34 32 39 36 44 71 80 82 87 86 88 90 92 89 89 86 85 88 95 97 98 97 97 95 81 76 80 85 84 85 78 81 78 78 81 78 70 71 69 67 65 62 66 68
30 33 34 31 29 26 22 23 24 23 28 28 33 35 43 66 78 81 85 87 89 90 88 89 88 82 88 92 95 98 97 96 98 92 83 74 86 78 84 80 78 75 76 79 79 75 74 72 72 68 68 68 65 66
32 35 29 28 23 22 18 19 17 15 15 18 26 36 47 59 71 78 86 91 88 96 95 87 87 91 95 95 98 98 97 97 95 89 81 78 78 76 78 76 75 73 77 77 79 78 74 74 77 74 72 70 68 68
34 37 26 23 23 20 15 19 18 18 18 19 23 31 45 57 69 79 84 88 92 94 93 85 88 92 95 96 97 98 97 97 94 90 88 82 78 76 75 76 75 72 72 75 76 76 76 76 78 76 77 76 75 73
34 32 27 25 24 20 16 16 18 19 20 21 22 31 46 60 76 89 89 88 90 93 90 86 88 91 91 97 97 98 98 98 96 94 94 91 88 85 85 83 70 70 70 74 77 77 78 78 79 80 79 78 78 78
35 32 30 27 25 21 17 15 16 23 28 29 27 31 47 59 78 90 90 90 88 87 88 88 92 92 91 93 95 97 98 98 98 97 96 96 93 89 90 87 75 72 76 76 75 76 77 79 81 81 80 79 83 79
34 32 32 29 26 21 17 12 11 25 39 38 32 34 49 64 84 89 92 93 87 87 84 83 87 91 93 89 94 96 98 98 98 98 97 96 95 93 91 79 73 73 76 75 75 76 76 81 82 82 83 82 79 79
36 32 32 30 27 21 17 9 10 24 37 33 33 44 58 81 91 97 97 94 90 88 82 82 83 90 92 93 89 91 97 98 97 98 98 98 97 92 80 81 75 74 78 76 77 81 86 84 85 86 86 88 84 79
38 33 31 32 27 22 17 9 9 25 37 34 39 64 84 96 99 99 97 93 90 87 86 87 78 79 87 91 91 89 89 98 98 97 97 95 88 82 82 79 76 79 81 77 77 83 90 85 82 81 80 77 73 69
38 33 32 32 28 23 18 9 7 25 38 34 46 75 89 98 98 98 98 93 90 87 83 82 75 75 80 88 86 87 87 84 89 92 93 87 80 71 75 75 75 74 74 73 75 76 75 74 78 75 72 70 68 66
39 34 33 32 29 25 20 11 7 20 43 39 54 79 92 97 96 95 93 89 84 83 80 82 79 71 74 80 84 85 85 84 82 76 76 74 63 63 66 69 71 68 67 70 69 67 67 68 69 69 66 63 61 62
41 36 34 33 29 27 22 14 7 14 41 44 61 78 87 96 98 92 87 85 84 81 80 83 84 79 74 78 84 84 82 80 77 82 75 62 55 55 59 62 65 68 68 68 66 66 64 66 67 66 65 64 65 66
42 39 36 33 30 29 24 18 9 13 36 53 67 77 85 93 90 86 84 85 84 85 87 86 89 86 80 80 79 76 79 79 79 79 71 62 49 48 53 56 58 63 64 65 66 66 66 66 66 65 67 69 68 69
45 41 39 35 32 29 26 21 18 21 31 45 65 75 83 87 86 86 85 84 84 87 90 89 86 85 87 85 78 76 76 76 74 67 61 52 48 48 50 52 55 60 61 63 64 66 66 68 69 70 70 72 74 74
49 45 41 37 33 30 27 24 30 29 30 38 48 66 77 83 87 86 84 82 83 85 90 91 89 87 86 84 82 80 77 69 58 60 52 52 52 52 52 52 52 54 59 64 66 65 67 71 72 75 77 80 74 75
54 51 47 41 36 32 29 32 35 36 34 38 42 45 57 76 87 89 89 89 87 87 88 91 89 83 84 86 81 77 71 62 58 54 52 50 52 52 53 55 55 54 56 59 65 69 71 74 75 76 78 75 74 72
59 56 51 44 38 34 33 39 39 39 41 38 38 40 43 48 60 76 83 88 92 91 92 91 88 87 81 77 73 70 69 65 64 64 61 58 54 53 53 55 58 59 60 62 65 69 71 74 73 73 71 71 68 63
64 60 54 48 42 36 33 38 40 40 41 39 37 36 35 35 40 46 61 81 88 93 93 93 92 83 77 77 76 74 74 71 70 67 64 61 58 56 56 57 59 62 65 67 69 68 69 72 71 69 68 71 67 57
70 65 58 51 45 38 36 40 41 41 40 42 36 33 32 31 30 34 41 54 78 91 94 91 86 82 79 80 81 82 80 76 74 72 70 67 64 62 62 62 65 67 70 72 73 72 74 76 75 72 78 70 59 58
73 66 59 54 49 41 40 42 43 45 42 40 36 33 28 30 31 31 38 45 56 73 92 94 91 88 88 90 84 87 85 80 77 76 74 72 70 69 68 68 71 74 75 77 77 76 78 80 77 83 70 64 62 60
76 69 63 57 51 47 47 48 49 45 42 39 35 35 32 30 33 38 41 43 48 52 65 89 95 96 94 94 95 94 85 84 82 81 78 76 74 73 73 75 78 79 80 80 81 82 79 84 87 74 69 67 64 62
80 72 64 60 53 47 46 48 49 46 42 40 37 35 37 38 38 38 42 44 46 51 58 66 86 96 97 97 95 97 98 95 91 91 89 79 79 78 79 81 82 84 84 83 84 85 91 86 77 74 70 67 65 65
81 74 65 58 51 46 44 46 46 44 42 40 39 35 32 36 40 43 43 42 45 52 56 59 64 80 96 97 97 97 98 98 98 97 97 89 83 83 83 84 86 88 89 90 88 92 85 78 76 72 69 68 67 68
80 73 64 56 53 50 47 47 48 44 43 42 38 33 38 43 45 43 41 42 48 49 52 55 61 68 85 96 97 97 97 97 97 98 98 95 91 90 88 88 90 91 92 92 92 87 82 79 78 75 72 71 72 74
81 68 63 56 53 50 47 45 46 45 42 38 37 40 43 43 45 44 46 47 45 46 51 58 64 68 78 95 96 97 97 97 97 97 98 98 96 93 92 93 94 94 96 95 92 85 85 82 80 77 75 76 79 86
83 73 64 60 55 50 51 50 46 41 41 40 40 43 41 45 47 46 46 39 36 40 47 53 61 68 77 86 96 97 97 97 97 97 97 97 98 97 96 96 97 98 98 96 89 92 87 85 81 78 78 84 93 90
81 74 70 66 63 57 52 48 44 41 38 36 38 37 38 40 36 28 27 27 29 32 39 49 58 67 79 89 93 96 97 97 97 97 97 97 97 97 98 98 98 98 98 94 98 93 89 84 80 80 88 96 92 82
79 74 70 70 64 58 49 44 40 33 33 35 35 34 33 31 28 29 31 32 34 37 41 47 56 67 77 86 96 97 97 97 97 97 97 97 97 98 98 97 97 98 98 98 97 95 87 83 87 95 97 91 82 77
77 73 71 68 60 52 45 41 37 36 36 35 35 34 33 32 31 32 34 35 39 45 50 52 58 67 78 86 94 96 97 97 97 97 97 97 97 98 98 97 97 97 97 97 95 93 91 94 97 96 90 82 76 72
76 74 67 58 54 49 44 42 41 40 40 39 40 40 39 39 36 36 35 34 43 49 54 60 66 72 81 89 95 97 97 97 97 97 97 97 97 97 97 97 98 97 97 97 94 94 97 97 97 91 81 75 75 72
70 64 60 57 52 48 47 46 46 44 42 42 42 42 43 45 45 41 34 36 48 55 63 68 74 82 85 91 96 97 97 97 97 97 97 97 97 97 97 98 97 97 97 97 98 98 98 97 87 81 78 76 75 72
65 62 60 55 51 49 50 51 49 46 45 46 44 44 46 49 48 41 35 44 55 64 71 78 84 86 93 97 94 97 98 98 97 97 97 97 97 97 98 98 98 98 98 97 97 97 92 86 82 80 80 78 73 68

GFSWCAN_prec_cthk_036.txt.gz
RH
32 31 38 37 33 25 24 23 20 20 24 31 40 46 46 59 78 88 91 88 91 91 87 88 85 89 91 89 93 94 97 95 96 96 94 78 75 72 81 82 84 81 82 86 89 89 86 73 72 71 69 71 75 86
33 33 41 37 31 21 20 18 20 17 20 20 27 35 41 51 70 79 84 84 87 87 88 86 85 83 88 87 86 93 93 94 93 94 88 80 78 73 80 84 83 79 72 73 77 74 72 75 74 75 70 69 69 75
32 35 43 38 25 21 19 16 20 17 16 15 21 31 45 52 62 73 81 84 82 85 85 85 84 85 82 82 89 93 95 95 96 98 94 80 78 75 83 81 77 75 72 73 75 72 73 74 76 75 72 72 71 72
34 39 43 33 26 22 19 17 22 17 18 17 22 28 39 49 59 66 77 80 82 85 86 83 83 82 85 92 95 97 97 97 98 98 93 85 70 76 80 78 74 71 72 73 73 72 73 73 76 75 74 75 75 75
34 42 44 34 27 24 19 18 22 18 21 24 27 25 37 48 58 67 75 82 85 88 90 88 83 87 92 95 97 98 98 98 98 95 88 78 74 77 77 75 69 64 63 67 69 72 76 74 77 77 77 78 78 78
35 42 38 36 29 23 19 18 20 19 26 34 31 27 38 51 65 78 82 84 85 85 89 85 85 90 93 92 97 98 97 98 97 90 86 78 79 76 78 73 68 66 67 67 69 72 76 78 78 79 80 79 79 80
35 38 37 34 29 22 19 16 15 19 31 40 36 30 40 56 72 81 82 84 86 87 90 86 88 89 93 92 97 98 98 98 97 90 87 86 88 84 83 76 69 68 69 70 70 73 77 77 78 79 80 80 81 82
36 37 37 34 28 22 19 14 9 17 35 37 30 32 46 65 80 86 89 88 88 87 87 84 86 94 96 93 94 96 98 98 98 96 93 92 92 92 87 74 72 72 71 73 75 76 78 78 78 83 84 84 84 83
39 38 39 34 29 23 19 14 9 22 31 30 33 42 60 74 85 91 92 91 87 88 84 81 81 90 93 94 91 93 97 98 98 97 97 96 94 89 77 75 73 72 72 75 77 78 80 84 86 83 83 84 83 85
41 40 40 35 29 23 19 14 8 24 30 31 44 68 86 89 96 95 93 92 90 88 87 85 78 76 84 91 93 91 92 95 98 98 97 96 89 80 77 78 78 76 75 78 77 81 83 88 84 85 84 85 85 78
42 41 41 36 30 23 20 16 9 21 29 32 54 81 95 97 96 96 93 90 89 86 84 84 81 75 79 85 86 86 89 91 91 90 95 91 81 73 72 80 80 82 82 79 78 82 88 88 85 82 81 80 75 71
44 42 43 37 30 25 22 18 11 13 32 38 63 88 96 97 97 94 91 87 85 83 81 80 80 77 74 76 79 82 84 85 88 82 81 77 70 68 70 73 77 74 71 74 75 74 76 79 78 77 76 71 67 64
47 44 46 39 32 26 24 21 15 10 35 43 66 87 92 91 89 86 83 85 83 80 79 82 81 79 78 74 77 80 85 82 78 81 78 65 60 60 63 67 72 73 70 70 70 70 70 71 72 72 70 68 68 68
49 46 47 42 35 28 25 23 19 13 34 48 59 77 83 90 84 83 82 83 82 81 81 83 83 82 82 80 77 79 76 76 78 78 72 62 52 46 54 59 64 69 70 69 70 71 70 69 70 70 69 68 70 71
50 49 48 44 38 31 27 25 23 24 30 43 57 65 75 82 85 84 83 82 81 81 83 85 84 84 88 85 80 76 75 73 73 71 62 55 49 49 52 54 58 63 65 67 69 69 70 70 69 69 69 69 71 73
53 52 50 47 41 34 29 27 31 32 30 38 45 53 65 72 78 82 83 84 84 85 87 88 89 88 87 81 81 79 78 71 61 60 56 52 51 53 55 54 54 56 59 65 68 70 71 69 69 69 72 75 77 82
59 57 55 51 45 38 32 31 36 37 40 40 38 40 47 58 71 77 82 84 85 87 89 91 89 86 83 82 78 74 72 68 65 59 57 56 55 56 55 56 56 58 58 57 62 68 73 71 72 72 74 79 80 85
64 63 59 55 51 43 37 40 38 40 43 42 40 39 39 42 46 52 63 75 84 88 90 92 90 90 83 79 73 69 69 70 68 67 64 62 60 57 54 52 55 58 60 63 64 65 69 71 75 76 76 80 79 74
70 66 64 61 54 47 40 40 40 41 45 43 40 39 38 35 34 35 38 45 56 72 85 90 93 86 83 82 81 79 79 79 77 73 71 69 64 62 61 58 58 60 62 64 68 71 71 72 75 74 73 78 72 72
76 70 68 64 57 50 44 43 42 43 43 45 41 39 36 33 29 29 30 33 41 50 64 72 74 81 86 88 87 86 83 83 84 82 76 73 71 69 68 67 67 66 65 68 70 74 74 75 76 72 82 78 81 72
80 74 71 67 61 54 50 48 49 48 46 46 42 39 35 31 30 30 31 32 37 44 46 49 58 69 79 83 84 86 89 88 85 85 86 82 76 74 74 74 74 72 73 74 78 77 78 76 77 85 80 84 82 66
84 80 75 71 65 59 56 56 57 53 46 45 43 41 39 33 31 34 37 37 39 35 38 41 44 49 61 75 80 83 84 87 88 89 84 86 84 80 77 77 77 77 78 80 83 82 81 84 88 80 83 84 72 69
88 83 77 74 68 61 57 59 57 53 47 47 47 43 39 37 37 35 35 38 36 37 39 41 41 42 42 46 61 75 81 86 91 91 92 86 87 85 80 80 81 84 86 88 88 88 86 85 85 86 87 76 72 71
91 85 79 74 68 61 57 57 56 52 50 49 45 42 37 37 38 40 39 36 33 36 35 34 35 34 37 40 45 52 72 88 91 95 97 98 96 91 88 83 84 88 89 92 96 93 89 91 86 91 79 76 74 70
92 85 79 72 67 63 60 58 57 53 52 51 47 40 38 40 44 42 38 35 35 35 32 32 34 36 36 40 46 51 58 77 89 93 96 97 98 98 98 93 88 90 92 94 95 93 91 88 95 85 80 77 72 71
90 82 76 70 68 64 58 56 56 55 52 48 44 41 43 44 42 39 37 34 37 30 25 25 27 29 36 43 46 53 64 67 82 93 97 97 97 97 98 97 91 92 94 94 97 95 93 98 89 81 79 75 74 72
88 84 76 72 67 64 62 58 55 53 50 44 43 44 43 42 41 35 34 27 21 21 22 25 27 28 30 37 46 52 64 71 74 91 97 97 97 97 97 98 97 97 97 97 97 98 98 93 84 83 81 79 78 76
86 83 83 82 78 69 64 61 58 52 46 41 41 41 35 33 32 27 22 21 22 23 26 30 33 34 35 38 44 56 63 74 78 89 96 97 97 97 97 98 98 98 97 98 98 98 97 89 89 86 85 82 80 90
89 90 87 85 77 72 66 61 54 44 39 37 36 33 31 26 23 23 24 24 25 27 28 31 38 42 44 44 48 57 65 78 82 86 92 97 97 97 97 97 97 97 98 98 98 98 95 95 91 90 86 84 95 94
93 87 82 80 75 71 63 55 48 42 39 35 34 33 29 27 25 26 27 27 30 31 29 36 42 47 51 53 55 61 66 81 85 93 93 97 97 97 97 97 97 97 97 97 97 97 97 96 94 90 89 97 97 89
88 84 81 77 73 67 59 52 47 43 39 38 37 36 33 31 28 28 29 30 32 30 36 46 52 55 61 65 65 65 70 84 90 95 97 97 97 96 97 97 97 97 97 97 97 98 97 97 92 92 97 97 91 84
87 84 81 71 64 60 56 50 46 44 42 41 38 36 36 35 33 29 31 33 32 37 47 55 63 66 70 72 72 72 78 93 93 96 97 97 97 98 97 97 97 97 97 97 98 98 96 95 97 97 97 92 85 78
86 82 75 66 62 57 52 47 47 47 44 41 40 40 40 38 37 34 34 33 38 48 55 63 67 74 80 82 83 82 91 96 97 97 97 97 97 97 97 97 97 97 97 98 98 98 98 98 97 97 92 84 79 77

GFSWCAN_prec_cthk_039.txt.gz
RH
51 43 43 42 42 35 26 28 23 13 13 12 16 27 36 47 64 77 85 89 91 89 85 82 82 83 85 85 89 93 94 96 96 95 95 84 70 65 65 77 82 81 84 89 91 93 89 72 73 76 72 71 72 87
52 44 44 43 42 35 28 29 22 14 16 18 14 26 40 46 54 70 82 87 90 89 91 86 87 87 90 93 89 90 91 93 93 94 93 86 74 70 67 77 78 77 68 84 85 81 74 75 76 76 72 72 74 79
54 46 43 44 42 36 31 30 22 17 19 21 18 19 38 46 54 67 76 83 87 85 84 85 85 83 82 85 86 89 93 96 94 93 93 82 80 74 71 70 76 71 69 71 76 75 75 74 74 75 73 74 73 81
54 44 45 44 42 38 35 31 21 17 20 23 23 25 36 45 53 60 73 78 83 85 87 85 83 84 85 84 89 96 97 97 95 95 93 91 80 73 71 75 75 70 70 67 70 71 72 72 74 75 75 78 76 77
53 43 46 46 41 37 35 31 20 16 21 27 30 31 32 44 50 56 67 77 80 84 86 85 81 81 85 92 98 98 99 98 98 96 95 87 81 76 69 73 70 66 60 60 63 70 73 75 76 76 76 78 79 79
55 43 47 47 38 38 35 27 16 16 25 33 36 34 26 41 53 69 77 79 79 83 90 86 86 84 90 95 93 98 98 98 98 96 94 87 77 75 69 65 63 61 61 62 61 67 73 78 79 78 79 81 80 80
57 44 48 47 38 35 31 21 13 14 33 37 35 28 24 44 65 75 73 78 82 85 88 84 85 87 91 95 95 99 98 98 98 97 90 85 81 71 72 65 64 61 62 66 66 69 72 76 78 79 79 81 81 82
58 46 43 42 38 35 28 19 12 18 30 29 26 20 36 56 71 77 77 82 83 88 87 87 84 90 95 96 93 97 98 98 98 98 90 82 79 75 75 67 67 67 70 70 69 71 72 75 78 79 80 85 87 88
61 47 45 40 40 35 28 18 11 22 29 28 25 39 57 69 80 81 82 83 87 88 87 84 83 88 95 95 96 96 98 98 98 98 92 88 84 81 71 72 73 74 73 71 70 76 77 79 80 82 87 85 87 85
66 49 48 40 41 35 29 19 11 22 26 28 45 68 79 82 83 84 86 86 87 87 83 80 78 78 80 89 92 92 96 97 98 98 97 96 88 77 76 79 80 78 75 74 75 80 81 83 86 85 85 85 86 87
70 54 46 41 43 38 30 22 12 19 23 33 54 72 81 80 84 84 87 85 87 86 82 82 82 81 79 83 87 87 89 92 95 92 97 94 84 76 73 72 77 78 80 81 80 79 81 87 88 85 84 84 84 79
73 60 46 43 43 39 30 23 15 16 26 41 60 75 80 82 84 84 85 85 85 85 83 81 80 82 80 77 79 83 86 85 92 86 87 81 75 74 70 74 78 81 85 83 82 81 84 87 89 85 82 85 79 73
76 62 48 47 47 40 32 25 20 16 31 44 69 77 80 81 84 81 81 83 83 82 81 80 80 79 76 77 75 77 84 86 80 84 84 71 69 60 62 72 76 80 77 77 76 76 78 80 81 80 77 77 72 70
82 61 47 48 50 43 37 27 22 16 38 43 60 73 75 80 74 77 77 81 83 83 83 82 80 80 79 80 78 81 74 73 78 81 80 71 60 50 52 63 68 76 76 74 74 76 77 75 75 76 75 74 70 69
92 61 50 51 53 46 40 32 25 25 30 42 48 62 66 68 75 76 78 79 81 83 85 83 83 83 87 85 80 80 75 68 67 74 72 63 56 55 56 55 59 66 69 72 73 74 75 75 74 73 73 70 68 68
94 69 54 53 54 51 44 38 31 33 29 34 44 49 52 61 68 74 77 81 84 85 86 87 88 88 87 86 83 80 77 75 71 66 59 60 59 58 59 59 58 58 59 64 69 71 71 72 74 73 72 69 70 72
95 75 56 56 58 56 49 44 44 38 36 36 36 38 43 49 57 63 67 72 79 84 88 89 91 87 87 85 81 77 75 75 71 70 68 65 62 64 63 62 60 60 60 61 61 62 66 72 75 75 73 70 71 75
96 78 64 62 61 59 55 51 49 43 43 42 42 38 38 39 48 51 52 58 67 76 82 88 88 90 88 84 77 75 73 74 73 72 68 65 64 61 58 57 58 58 59 60 62 65 66 66 68 70 72 73 74 77
94 83 70 66 67 63 60 56 52 48 47 45 43 39 38 37 37 37 40 42 46 53 61 68 78 79 82 85 86 84 81 80 78 78 77 71 67 67 65 60 60 61 60 61 62 65 68 71 70 68 70 71 72 81
95 83 75 70 71 68 64 60 53 53 48 47 44 41 38 35 33 32 30 31 35 39 43 50 52 56 60 69 80 85 84 83 82 80 80 77 74 73 70 69 68 68 68 68 68 69 70 71 71 71 73 73 72 85
96 87 78 75 74 72 69 66 61 58 54 50 49 45 39 35 34 33 34 34 36 36 33 31 32 36 41 48 55 60 69 77 77 76 77 78 81 83 77 76 74 75 76 76 77 76 78 77 76 76 78 75 85 79
96 89 81 79 77 74 75 73 71 65 59 55 51 46 41 38 38 39 36 36 37 33 34 33 34 35 33 33 34 36 41 49 56 65 73 76 82 86 84 80 78 80 80 81 83 83 83 81 81 82 82 86 89 87
97 93 90 86 82 81 77 79 74 67 62 55 53 48 45 44 44 39 35 36 34 29 31 33 32 31 29 28 28 29 31 35 38 46 54 66 75 83 88 88 84 84 84 84 86 87 88 87 86 84 87 93 91 89
97 96 93 88 85 79 76 79 75 69 63 56 52 49 46 44 42 41 40 36 31 30 31 28 25 24 24 25 26 27 30 32 33 35 40 50 63 77 89 92 91 86 86 88 89 91 92 94 89 88 97 89 92 82
97 97 95 89 82 80 79 77 73 68 63 58 55 48 47 46 44 42 40 34 29 30 31 26 23 20 18 17 18 21 28 32 34 35 37 44 49 69 84 96 98 95 89 91 91 94 95 96 94 98 92 91 91 80
97 96 90 81 78 78 72 71 69 66 62 60 54 50 51 47 46 41 34 29 30 30 23 19 19 20 19 21 20 21 23 28 32 35 40 47 51 61 83 96 97 98 96 94 94 95 97 98 98 95 94 95 85 82
96 93 85 79 76 73 71 67 66 64 62 56 54 55 51 49 42 31 27 29 23 20 19 20 20 21 20 21 25 26 28 30 32 35 42 48 54 58 82 95 95 97 98 98 97 97 98 97 98 97 98 91 88 85
93 87 85 82 80 75 74 72 70 64 58 56 56 55 48 39 30 25 25 23 20 20 21 21 21 22 21 24 28 31 34 36 36 38 44 49 58 63 78 96 97 97 97 97 97 97 97 98 98 98 97 92 87 82
90 87 86 87 87 85 79 75 68 61 60 57 52 46 39 30 25 23 23 22 21 21 22 23 24 23 24 31 34 37 40 42 42 44 49 54 63 70 80 95 97 97 97 97 98 98 97 97 98 98 95 90 86 85
90 88 91 93 90 83 75 69 67 64 59 51 45 40 32 27 25 24 24 23 23 23 23 24 25 27 34 41 44 48 53 52 52 53 56 64 71 79 87 94 97 97 97 97 97 97 97 96 95 95 92 91 91 90
90 91 93 90 84 78 74 72 70 62 54 48 43 37 33 31 26 25 24 23 22 23 24 25 31 40 45 52 56 59 63 64 60 63 66 72 78 86 93 96 97 97 97 97 97 97 97 98 98 97 96 96 94 96
96 95 91 86 83 80 76 69 62 57 52 44 40 37 36 34 31 25 24 24 25 25 26 35 42 48 55 61 65 68 71 70 69 70 72 77 87 98 97 96 97 97 97 97 97 98 97 97 97 97 97 96 97 97
95 92 88 84 83 79 66 60 58 52 46 44 42 40 39 37 34 28 25 26 25 26 35 41 47 54 60 68 74 77 81 81 78 75 83 88 92 97 97 97 97 97 97 98 97 97 97 97 97 97 97 98 97 93

GFSWCAN_prec_cthk_042.txt.gz
RH
62 63 63 49 44 42 40 40 34 28 23 18 20 16 29 43 48 66 80 82 83 82 78 75 74 75 75 79 83 85 88 91 92 93 93 88 77 74 62 74 83 89 91 89 81 88 85 75 76 81 79 78 74 81
64 67 61 50 46 43 42 41 35 29 23 18 21 22 21 39 50 61 83 84 87 86 84 80 77 78 83 86 86 87 89 89 92 92 92 89 84 74 68 70 76 82 73 78 77 79 74 76 78 77 77 75 75 81
68 64 57 52 46 44 43 42 35 29 22 18 25 26 28 34 48 64 80 88 90 89 84 82 83 81 84 86 88 86 88 87 90 91 92 89 84 78 72 68 76 77 71 71 72 75 75 76 76 77 76 77 75 79
70 61 59 51 47 45 44 41 35 28 20 20 26 34 33 28 46 60 81 86 89 86 88 87 81 80 80 82 84 83 90 94 95 96 92 90 89 81 75 73 75 77 73 69 67 66 73 76 76 78 76 79 79 77
70 62 61 51 48 45 44 39 34 25 20 25 30 35 38 27 49 63 74 83 85 84 84 86 82 79 81 85 89 93 96 98 98 97 93 89 87 83 72 70 69 71 70 68 64 63 67 73 77 79 78 79 80 79
69 63 64 47 48 46 43 37 31 21 24 32 37 38 38 31 52 74 82 83 83 84 84 85 85 82 82 88 93 95 97 99 98 98 96 89 83 84 79 67 60 64 65 62 60 59 62 70 75 80 78 78 80 81
67 66 60 43 48 47 36 34 21 20 31 35 30 31 26 35 60 81 76 79 82 81 84 85 89 86 86 92 95 96 98 98 98 97 95 92 89 82 74 67 61 62 63 61 63 65 65 69 74 79 79 78 79 81
68 68 58 42 49 43 36 28 17 17 26 27 25 18 24 55 81 79 78 82 82 84 83 86 84 85 93 97 97 97 98 98 97 97 96 95 93 86 74 65 67 64 65 65 67 67 68 71 74 77 79 79 84 88
72 69 57 44 51 40 34 27 15 18 24 30 31 35 62 81 83 80 81 78 83 85 87 83 83 88 92 95 97 98 98 98 98 98 98 93 87 78 71 70 71 73 73 73 72 72 72 76 79 80 82 84 89 88
74 70 59 47 52 41 33 27 15 15 25 40 56 67 77 82 83 80 80 80 81 86 83 82 80 80 80 84 89 93 96 98 98 98 99 97 91 78 77 76 80 80 80 79 76 76 76 79 82 84 87 88 87 88
79 75 66 53 49 42 33 28 16 15 27 44 58 68 74 77 78 77 79 81 83 82 80 79 78 84 86 83 87 88 90 92 98 97 97 98 96 87 80 76 74 75 80 82 83 81 78 81 85 88 86 86 87 90
83 81 70 55 49 44 36 30 19 18 28 41 63 75 77 79 80 79 81 80 80 83 78 79 80 79 82 82 82 83 88 90 95 92 96 90 88 84 69 75 79 82 86 86 86 86 86 90 92 90 88 86 86 83
90 85 76 61 53 47 40 32 24 20 37 52 65 77 79 80 81 78 78 78 80 78 77 79 79 78 77 76 80 80 83 86 87 92 93 89 83 65 62 77 84 88 90 90 88 87 86 90 90 88 87 85 84 77
96 96 88 60 55 51 45 36 29 22 40 53 65 71 74 80 73 76 76 77 78 77 79 78 78 78 76 77 75 77 78 76 78 82 87 85 70 64 63 68 75 84 85 84 82 84 85 84 84 83 84 82 81 76
96 96 95 62 56 54 51 41 35 32 33 45 55 67 68 68 72 74 76 76 76 78 80 80 80 78 77 77 75 74 74 71 69 79 81 70 68 67 66 63 62 69 78 81 80 80 80 82 82 80 80 79 77 72
96 96 96 64 57 57 56 48 40 41 35 32 45 53 58 62 64 68 71 74 75 78 80 81 80 81 80 78 78 76 74 75 81 76 68 63 66 69 68 66 66 64 63 67 74 78 79 79 79 79 79 79 77 71
96 96 96 74 61 60 60 55 50 50 44 41 37 39 45 49 54 57 61 66 71 76 81 80 80 80 82 80 75 71 72 81 80 78 74 70 67 65 65 68 67 67 67 66 66 66 67 69 73 77 79 80 78 72
97 97 96 83 68 63 62 62 61 56 54 46 41 42 43 41 44 47 51 54 60 64 68 72 73 77 77 78 74 75 76 76 77 78 76 74 72 68 64 63 61 62 64 66 67 68 69 70 71 72 74 78 79 74
97 97 96 87 72 66 65 68 67 65 62 55 49 46 43 41 42 44 45 47 49 53 59 63 66 62 61 66 71 75 77 78 77 77 76 74 74 73 72 68 66 65 62 62 65 66 66 68 71 75 76 78 74 71
97 97 97 90 75 70 71 72 69 68 69 64 55 52 47 42 39 37 36 36 35 37 42 46 46 46 48 51 53 55 56 59 66 72 75 75 72 71 71 73 72 70 68 68 68 68 70 71 72 74 74 75 76 73
97 98 97 91 80 74 76 76 74 75 72 70 64 56 50 43 39 36 35 38 40 36 32 27 30 30 31 33 33 32 31 31 35 38 43 53 64 67 70 71 72 73 74 74 73 75 78 79 80 80 76 75 77 77
98 97 96 88 79 77 81 80 81 82 78 74 68 62 54 49 45 45 45 46 43 31 29 27 29 32 32 30 28 27 26 25 25 25 27 29 33 46 59 66 70 73 77 78 78 79 81 84 85 86 83 83 83 82
98 97 96 88 86 87 84 81 84 84 86 82 76 70 61 54 51 49 48 46 37 29 28 30 31 29 25 22 20 20 21 21 22 23 24 26 26 27 30 42 62 71 78 85 83 84 85 86 86 88 87 85 84 88
97 97 97 97 94 90 80 82 83 87 88 83 75 67 60 56 55 54 52 46 36 31 30 31 27 22 20 18 15 15 16 16 16 16 20 24 26 26 29 30 34 52 71 85 88 88 88 89 89 91 90 89 92 96
98 97 97 94 91 86 81 82 84 89 86 83 76 68 62 57 56 56 52 44 35 32 30 27 26 18 16 15 15 17 18 19 19 17 17 21 23 25 28 32 33 38 51 72 87 91 91 92 92 93 92 95 95 98
96 96 93 91 84 80 77 80 85 88 86 79 71 64 62 61 62 56 47 34 30 29 28 21 19 18 18 18 18 18 19 21 22 20 20 23 23 25 28 32 35 37 46 59 78 96 96 96 95 94 95 97 97 98
94 92 91 85 79 76 77 79 81 80 75 72 69 67 66 67 61 46 33 32 30 24 21 20 20 19 19 20 20 21 20 22 24 24 24 26 27 28 30 33 35 41 48 54 73 94 97 98 98 97 97 98 97 98
87 88 89 87 84 80 85 84 78 75 73 69 69 72 69 60 47 38 34 32 27 23 22 21 21 21 21 21 21 21 23 28 30 31 32 31 33 33 34 36 40 47 52 55 74 94 97 97 98 98 98 98 98 97
85 85 86 91 92 93 87 80 75 71 73 73 73 68 64 55 45 38 33 27 25 24 22 22 22 21 21 21 22 27 33 36 38 38 40 39 39 40 40 43 48 54 58 62 72 95 97 97 97 97 97 97 98 97
88 88 93 95 94 90 86 82 81 77 73 69 66 63 58 49 41 33 28 25 24 24 23 22 22 21 22 24 28 33 42 46 47 48 48 49 48 48 48 52 56 62 66 72 82 97 97 97 96 97 97 97 97 96
89 93 95 94 94 92 92 88 81 75 71 68 66 60 52 43 33 28 26 26 25 24 22 22 23 25 28 31 35 37 42 52 56 58 59 58 58 56 57 62 67 72 74 79 92 97 97 97 97 97 97 98 98 97
95 94 94 95 93 92 90 85 79 77 74 69 61 53 46 39 34 29 25 25 24 24 24 24 27 31 33 36 42 46 52 56 59 64 67 66 66 65 66 71 79 82 81 89 95 97 97 97 97 97 97 97 97 96
95 94 95 96 95 91 85 81 80 73 63 58 53 47 43 40 37 30 28 26 25 25 25 29 32 33 36 41 46 52 57 63 69 74 73 71 71 73 75 83 87 88 96 97 97 97 97 97 97 97 97 97 97 97

GFSWCAN_prec_cthk_045.txt.gz
RH
80 94 76 63 68 59 52 49 45 40 35 31 23 19 21 18 34 57 74 80 81 83 80 74 73 75 70 70 73 76 77 82 87 90 90 87 81 75 73 78 81 84 91 94 93 88 85 74 77 80 76 74 73 78
83 89 73 67 70 60 51 49 45 41 35 30 25 23 26 22 25 57 72 83 84 87 86 80 81 82 78 79 78 80 82 84 89 91 90 88 85 80 77 74 75 86 82 88 78 77 73 77 78 75 76 75 75 79
86 84 77 72 68 59 51 50 45 40 34 28 29 28 31 30 22 57 74 89 88 91 90 87 82 80 80 85 88 87 87 84 85 85 89 89 88 81 83 72 72 84 83 83 78 76 77 76 76 77 76 77 78 79
92 86 83 75 69 57 51 49 44 39 32 26 33 38 32 35 27 55 77 92 92 94 93 89 86 84 82 83 83 84 83 84 90 92 91 89 87 83 84 78 76 82 83 80 73 68 68 71 76 78 79 78 79 80
96 89 87 72 66 54 50 47 43 35 28 27 38 38 38 39 30 55 78 93 96 95 92 92 87 84 83 86 87 90 90 89 93 94 92 90 86 83 80 77 72 73 81 81 76 66 64 65 70 76 80 80 80 82
93 94 84 75 64 52 50 46 39 31 23 32 34 37 37 39 29 63 92 95 92 93 90 88 89 86 84 86 89 95 96 96 95 95 93 89 85 85 87 77 69 68 71 72 70 66 62 63 67 74 78 81 80 81
95 95 81 72 60 51 49 41 34 25 27 28 27 29 30 25 40 85 88 89 90 89 87 90 90 90 88 89 94 97 98 98 97 94 94 92 92 88 83 80 70 69 74 73 72 67 67 69 68 73 75 80 81 81
96 93 77 71 56 50 48 36 25 15 21 25 21 24 23 38 77 86 85 83 84 84 85 88 86 89 92 96 98 98 98 98 98 97 96 95 94 89 91 81 75 75 71 70 68 66 68 71 71 73 74 78 81 86
96 87 77 73 52 51 44 32 22 12 24 32 31 46 60 78 86 82 77 79 82 84 87 83 84 89 91 93 95 97 98 98 97 98 98 98 98 97 91 84 81 79 81 77 76 74 74 75 73 73 78 81 85 89
93 87 82 72 54 53 41 31 20 12 30 48 61 73 82 85 80 76 78 78 80 82 84 82 82 83 82 84 88 92 96 97 98 98 98 99 96 94 85 78 75 75 81 80 79 78 77 77 75 76 80 84 89 90
94 87 84 78 62 50 42 32 21 12 34 51 64 76 81 78 77 77 77 76 78 78 78 78 78 78 86 85 86 89 92 94 97 98 98 98 98 93 77 70 69 71 73 74 78 81 82 81 79 82 85 90 91 91
96 92 92 85 67 48 44 34 25 15 32 46 66 74 78 79 77 77 75 74 74 76 77 76 78 78 80 82 87 85 86 88 95 96 98 96 98 85 76 78 87 85 85 84 82 85 86 85 84 87 90 90 90 91
97 96 97 90 70 50 46 38 29 20 36 55 70 76 76 77 79 74 72 72 75 74 75 77 76 77 78 79 80 80 83 87 88 94 98 98 86 73 72 80 83 93 94 94 94 91 89 92 96 96 93 89 89 88
97 97 97 97 84 54 50 43 35 26 39 55 66 76 73 78 68 71 74 74 75 75 77 77 77 78 78 79 78 77 76 76 79 88 93 90 80 77 73 71 77 90 92 91 91 93 89 90 95 94 90 87 87 87
97 97 97 97 89 57 53 49 41 34 38 49 57 66 68 66 69 69 70 75 79 79 80 81 81 80 81 79 78 74 73 71 72 84 87 75 74 80 79 75 70 70 81 90 89 88 88 88 88 88 87 86 87 87
97 97 97 97 84 62 58 55 48 42 39 38 43 52 60 64 65 67 71 76 78 78 80 80 81 81 79 78 77 72 70 69 78 81 78 73 71 72 73 74 74 73 71 69 74 82 87 87 86 87 87 86 86 86
97 97 97 97 88 70 64 61 58 57 50 46 43 40 44 51 55 57 61 67 73 76 78 77 76 76 78 78 74 71 70 75 76 75 78 78 76 74 71 68 69 71 71 71 70 69 69 70 71 74 79 82 85 86
97 97 97 97 91 76 68 67 69 66 61 57 50 42 40 42 45 45 49 54 61 64 67 70 68 72 72 71 69 70 71 74 76 77 74 73 74 75 72 70 70 67 66 68 70 71 72 71 71 73 74 76 77 80
98 97 97 97 92 81 75 73 72 74 73 69 61 53 48 45 45 42 43 49 54 58 63 66 67 59 53 53 55 58 60 64 67 70 71 69 71 69 67 66 67 66 67 68 67 66 67 69 69 71 73 75 76 77
98 97 97 97 92 82 76 75 74 77 77 76 72 64 57 51 47 44 44 43 44 48 52 54 49 48 50 50 49 48 45 42 41 40 41 46 50 56 60 63 65 64 64 66 68 68 69 70 71 72 72 73 72 72
96 97 97 97 94 83 76 80 79 81 82 80 78 74 69 60 52 45 41 41 42 40 35 29 26 26 31 32 31 29 28 25 22 19 18 16 18 21 25 31 42 57 61 64 68 70 73 74 72 76 77 76 78 75
95 97 97 96 93 85 79 80 85 84 85 85 82 80 74 66 60 53 48 47 45 38 37 34 28 27 28 28 27 25 23 20 19 19 19 19 19 19 20 20 22 24 35 53 63 68 71 76 77 80 81 83 84 82
92 97 97 94 88 84 83 83 84 86 90 87 85 85 83 79 74 66 60 53 44 41 38 36 31 30 30 27 22 20 18 16 15 15 15 15 15 15 16 18 23 25 24 26 42 61 70 74 80 82 85 84 87 86
86 97 96 95 89 90 86 83 84 85 85 88 87 86 85 82 76 69 62 53 47 44 41 38 34 33 27 22 19 16 16 16 16 16 17 18 17 16 17 16 18 22 26 27 30 37 53 71 80 83 88 89 87 87
83 95 96 91 90 88 84 84 86 87 87 91 91 85 80 77 73 70 63 52 49 46 41 37 34 27 23 18 17 17 18 19 18 16 16 19 19 18 18 19 18 18 25 29 33 36 42 55 71 82 89 93 93 94
82 88 90 87 87 86 83 80 82 84 86 94 93 82 79 77 76 68 60 52 46 40 34 32 29 23 19 19 19 19 19 20 19 17 17 20 22 23 22 21 19 17 24 28 32 37 42 47 60 74 85 92 95 97
84 81 81 82 81 78 79 79 79 84 90 92 83 81 77 77 72 60 53 45 40 37 33 30 25 22 20 20 20 20 20 20 20 19 22 24 26 29 29 27 24 24 25 27 33 38 43 47 51 66 79 86 95 98
78 77 81 82 81 81 82 82 86 88 85 75 72 77 80 72 65 56 51 50 49 41 33 27 24 22 22 21 21 21 21 22 24 27 28 28 32 34 36 34 32 32 31 31 36 42 45 49 53 63 75 86 97 97
76 76 80 85 84 83 85 86 86 77 74 75 80 80 76 71 64 58 56 54 46 40 33 28 24 23 23 22 22 22 25 30 30 30 31 30 34 40 45 43 42 40 38 37 41 46 51 54 57 65 82 91 97 97
81 80 81 83 86 89 89 88 84 83 82 79 78 76 74 71 64 59 54 47 39 31 28 26 24 24 23 22 23 28 32 34 36 38 38 38 41 46 51 53 51 47 44 43 49 54 58 60 61 65 84 97 97 97
80 83 85 88 91 89 89 90 89 87 84 82 80 75 70 65 63 55 47 38 32 29 27 25 24 23 23 26 29 29 30 36 40 44 46 47 50 53 57 60 59 54 50 52 58 62 64 64 65 75 96 97 97 97
86 87 90 93 93 93 94 94 92 89 89 86 79 74 69 63 54 43 33 30 29 27 25 24 24 26 29 31 32 34 36 38 42 46 51 56 62 66 67 66 64 60 62 66 71 72 72 74 75 87 97 97 97 97
93 93 93 94 95 96 95 94 90 86 82 79 77 68 59 53 46 36 33 30 27 26 26 25 28 31 32 32 34 37 40 43 47 52 58 65 69 75 71 70 67 70 74 78 79 80 79 80 87 96 97 97 97 97

GFSWCAN_prec_cthk_048.txt.gz
RH
82 82 81 87 87 74 76 68 57 54 49 44 40 33 27 23 19 28 57 75 75 72 73 69 67 64 63 65 66 71 73 77 80 83 84 83 85 77 76 75 75 76 78 92 93 92 87 73 78 84 79 77 77 77
84 86 82 84 84 78 78 69 57 53 49 43 40 33 26 25 26 19 49 78 82 78 80 74 70 71 69 72 73 75 78 80 80 85 87 89 89 85 79 85 79 81 80 90 86 79 73 77 82 80 79 76 79 79
75 81 87 89 83 90 77 67 59 55 45 44 42 31 32 33 32 22 44 76 89 86 85 83 80 79 79 76 77 83 86 84 82 84 86 89 88 86 86 80 81 76 82 88 87 77 82 78 79 80 79 77 79 80
81 80 88 91 90 87 81 64 62 53 43 43 35 34 39 37 37 30 45 83 95 94 91 91 86 84 80 77 87 88 87 87 82 87 90 90 89 86 86 85 85 74 85 87 85 78 73 71 76 77 77 79 80 83
87 91 89 91 95 86 78 64 58 46 40 35 33 39 36 37 41 34 64 89 98 96 91 89 83 83 83 84 84 85 89 89 88 89 90 90 85 84 83 81 79 71 78 88 85 77 73 67 65 69 73 76 79 81
90 91 93 91 93 86 75 61 51 41 32 29 32 30 32 36 40 43 83 91 99 96 95 92 89 87 85 84 87 89 93 95 93 94 93 92 88 89 86 82 76 72 74 80 77 71 68 67 66 66 72 75 79 79
90 93 95 94 90 81 72 56 43 36 24 29 29 27 37 32 40 79 97 97 99 95 93 91 89 86 88 86 86 92 97 99 98 97 96 95 92 90 86 83 79 78 74 75 78 76 72 68 68 69 69 74 76 80
89 94 96 94 86 79 63 50 40 23 21 27 24 27 26 35 78 97 98 96 95 91 89 89 87 88 89 92 96 98 98 98 98 98 98 96 95 92 91 91 86 79 76 76 76 78 75 69 68 71 72 72 76 81
87 95 96 87 87 70 58 45 29 16 25 34 24 33 52 79 90 93 95 93 89 88 87 86 85 93 95 97 95 96 98 98 97 98 98 98 98 97 92 86 85 81 76 77 80 79 77 75 72 73 73 75 80 85
87 94 93 93 83 73 57 39 25 17 37 50 60 74 81 85 86 84 84 81 83 85 86 86 87 88 87 88 89 93 97 98 98 98 98 99 98 96 93 88 83 77 71 73 80 81 81 79 76 75 76 76 81 88
90 95 96 94 83 75 52 37 24 17 44 61 70 78 79 80 83 82 78 77 77 77 78 79 83 84 85 87 88 90 94 96 98 98 98 98 97 95 85 77 75 73 75 77 79 78 79 81 81 80 79 79 84 89
93 96 96 97 85 76 53 38 26 20 39 58 70 80 81 83 79 78 76 73 72 72 74 78 81 80 81 84 89 90 90 88 94 97 98 98 95 84 77 76 83 88 87 85 85 80 80 84 84 84 84 86 88 90
95 97 97 97 92 80 55 41 30 28 37 56 72 81 83 80 79 76 73 69 69 71 74 74 77 78 80 81 83 83 81 82 87 95 96 98 89 79 77 81 87 94 96 93 92 90 90 92 92 87 90 92 89 92
96 97 97 97 97 86 59 47 36 35 45 58 72 78 78 81 73 71 71 71 70 71 73 74 76 78 79 81 82 82 77 75 77 82 89 91 83 82 83 79 77 86 95 95 96 96 94 96 97 98 98 97 96 93
97 97 97 97 97 88 65 53 43 37 48 51 62 71 74 72 78 73 72 74 76 76 76 77 78 78 81 81 81 80 77 73 67 73 79 75 75 81 81 80 78 77 78 85 91 92 93 92 91 92 94 94 90 90
97 97 97 97 97 87 72 59 53 46 48 46 46 55 60 67 71 73 74 75 78 79 79 78 80 80 80 80 79 76 70 69 70 73 76 70 69 73 73 74 75 74 75 74 74 77 83 86 88 90 92 94 92 90
97 97 97 97 97 87 74 67 62 58 53 48 43 38 42 47 57 64 70 74 77 78 79 80 80 77 78 77 75 72 70 70 69 74 73 71 72 72 71 69 68 68 68 70 71 73 72 72 76 80 82 83 85 88
97 98 97 97 97 90 81 76 76 74 68 64 57 51 43 37 38 43 45 52 62 69 71 74 73 75 72 70 69 68 68 69 70 72 73 74 73 73 70 66 65 68 68 65 65 66 69 71 74 74 75 77 79 81
98 98 97 97 96 94 87 82 78 80 80 82 74 65 57 49 44 43 45 48 51 55 61 64 64 59 55 54 53 55 56 57 58 58 58 57 57 59 58 57 57 58 60 63 65 65 67 67 67 68 72 73 74 78
98 98 98 97 95 91 87 84 80 84 81 82 86 79 70 62 55 49 45 47 50 53 56 56 50 48 50 50 49 48 48 47 45 41 37 33 29 26 24 23 25 30 39 48 56 60 63 66 68 70 70 72 73 76
83 95 97 97 96 89 84 82 82 81 84 83 85 91 83 75 68 61 53 49 49 50 45 40 37 36 37 36 34 31 28 25 21 19 18 16 17 16 16 16 16 16 17 18 22 31 47 60 64 69 74 74 76 76
62 71 90 97 93 88 82 80 84 87 87 88 87 87 87 82 75 71 66 61 51 41 35 30 26 29 32 32 27 26 24 21 18 17 16 14 13 13 14 15 15 15 16 19 22 23 26 33 46 61 73 77 80 80
61 65 68 81 84 82 78 79 81 83 89 89 88 88 87 86 85 83 77 72 60 54 44 35 34 37 40 37 30 25 21 20 17 15 14 14 14 15 15 15 16 16 15 15 18 21 23 28 35 43 59 72 83 84
63 65 66 62 69 82 83 81 82 84 87 89 87 85 86 87 86 84 77 75 71 56 50 48 46 46 43 38 30 25 22 19 17 16 17 16 15 15 17 17 17 17 18 17 17 18 22 27 32 37 46 60 73 83
72 71 67 62 63 77 83 80 81 84 86 86 87 89 87 86 84 79 75 70 64 57 53 52 50 46 42 33 28 24 21 20 19 18 18 18 17 16 17 19 19 19 20 20 19 18 19 25 32 36 39 48 65 73
68 67 64 57 58 69 81 78 80 84 85 87 91 91 86 83 82 75 68 67 65 58 54 48 43 40 35 29 25 24 23 21 21 19 17 17 17 19 22 23 21 21 26 27 25 22 21 22 29 36 40 44 53 65
69 62 60 57 58 67 76 76 76 81 85 87 89 90 87 85 76 66 62 60 55 52 49 46 43 38 32 29 26 24 23 22 21 19 17 17 20 25 27 29 27 27 29 30 31 31 27 25 27 35 40 46 48 58
64 57 56 59 62 71 76 76 77 81 83 86 84 83 79 72 67 62 60 58 59 59 57 54 47 40 34 29 26 25 23 22 20 19 19 21 25 29 32 33 33 34 34 35 36 37 36 32 32 37 42 46 50 53
69 51 55 63 69 78 79 78 78 80 83 82 81 77 73 71 72 69 66 65 64 63 60 54 48 39 32 28 25 24 22 21 21 22 24 24 26 31 35 37 38 40 41 41 43 45 45 40 39 42 47 50 51 55
62 56 59 64 71 76 78 77 77 79 81 84 82 78 75 75 73 70 66 66 62 59 54 49 40 33 29 26 23 23 22 24 25 28 29 30 32 34 38 41 44 47 49 51 53 55 51 46 46 48 51 54 55 59
67 71 67 68 76 82 82 84 86 85 84 83 81 80 79 76 77 72 67 64 61 55 48 39 33 29 26 24 22 22 24 28 30 32 35 36 37 39 43 49 56 59 61 63 62 61 56 53 54 56 59 62 62 66
70 73 80 86 88 88 88 89 92 91 90 88 86 84 84 82 77 71 60 54 47 38 33 31 28 25 24 24 25 27 28 30 33 36 39 42 43 45 51 58 67 70 66 64 65 61 59 60 62 65 66 66 66 73
87 88 89 90 91 91 91 94 93 90 87 85 83 83 79 76 72 60 48 39 34 32 30 28 26 24 25 27 29 30 31 34 38 41 44 46 51 56 64 69 77 85 85 72 67 69 71 73 73 72 72 71 75 80

GFSWCAN_prec_cthk_051.txt.gz
RH
56 60 70 68 75 78 76 71 85 80 68 62 59 54 47 43 37 30 25 50 70 73 70 71 74 72 68 69 68 66 65 70 75 78 81 81 82 77 78 75 76 76 74 75 82 95 90 73 81 86 84 81 80 78
59 76 71 72 69 71 75 75 83 79 73 62 59 54 46 43 42 33 24 41 58 72 76 75 75 76 72 71 68 65 68 70 71 73 79 85 88 86 82 87 78 80 71 79 85 84 75 79 78 83 82 80 78 79
77 78 77 77 80 81 76 81 82 77 77 64 58 51 42 37 38 35 30 27 63 78 86 81 76 74 73 70 71 73 76 76 77 76 83 88 91 89 88 84 82 80 76 82 88 86 84 83 81 79 80 81 79 79
79 75 78 75 83 89 82 85 79 79 79 67 55 50 34 39 39 41 37 29 65 88 94 86 80 78 77 77 77 78 81 84 84 81 83 88 89 85 86 85 85 81 75 79 88 85 82 80 75 77 78 79 79 80
81 80 78 76 83 87 90 87 77 80 75 58 49 37 37 32 39 40 41 37 87 98 95 90 86 85 85 83 82 82 89 87 87 88 86 89 87 84 82 80 80 77 78 78 86 84 78 75 71 68 70 74 75 80
80 80 75 81 88 91 91 83 79 79 62 46 34 32 30 32 46 42 37 72 91 98 97 95 91 92 87 84 85 86 86 89 91 90 91 89 87 86 86 87 79 78 77 71 76 80 75 72 69 67 65 71 74 76
75 78 84 86 87 92 90 82 79 65 48 31 29 27 35 38 39 52 90 98 99 99 98 97 92 89 88 88 88 88 88 92 98 98 96 95 93 91 89 89 84 81 79 76 75 81 78 72 69 69 67 69 72 75
79 86 88 83 86 92 88 81 69 53 29 23 22 28 37 48 63 85 96 99 98 98 98 94 90 91 89 91 90 91 97 98 98 98 98 97 96 94 90 87 84 79 77 77 73 79 79 77 75 72 69 70 71 74
80 84 85 83 85 92 85 78 62 33 21 27 26 35 53 73 88 92 96 98 98 96 94 91 90 92 94 95 97 98 99 99 98 98 98 98 97 95 90 88 84 84 82 79 72 75 81 80 78 74 73 72 74 74
81 80 80 84 84 92 86 74 52 24 30 37 52 71 86 88 91 93 96 95 91 90 90 88 87 91 94 94 95 95 98 99 98 98 98 98 95 96 95 92 89 82 80 76 72 70 77 84 81 79 77 75 75 76
80 79 80 84 89 92 86 70 44 23 42 55 69 80 86 87 88 91 89 85 83 83 83 84 88 89 89 89 86 90 95 96 98 98 99 98 95 95 90 82 80 80 79 77 75 74 78 81 82 81 80 77 75 77
81 80 85 90 95 95 86 66 37 24 46 64 76 85 87 86 87 84 81 77 78 75 77 80 83 82 82 83 88 92 94 91 91 96 98 96 95 87 78 76 81 88 92 88 84 81 80 79 81 83 82 81 82 84
82 81 86 95 97 95 85 64 38 28 47 69 82 87 86 83 83 76 77 73 73 71 75 75 80 80 81 81 83 86 84 82 82 92 93 95 91 81 80 83 85 93 99 94 92 89 88 89 87 88 88 87 87 91
86 86 91 97 98 97 85 66 42 37 49 71 82 83 81 83 74 71 68 70 69 69 72 73 76 78 80 82 83 83 80 78 80 78 79 91 87 85 88 87 86 86 91 95 96 96 96 97 97 97 93 93 96 93
94 94 96 97 97 98 87 66 48 41 48 66 80 83 80 75 78 75 73 73 71 73 72 73 75 77 82 83 81 80 80 76 69 68 74 75 71 77 83 84 83 81 82 87 92 93 95 96 95 96 96 97 97 97
97 96 97 97 97 98 88 71 57 43 49 54 67 73 74 79 77 79 76 76 76 79 77 77 81 81 82 80 79 76 70 68 67 67 71 72 68 72 72 73 74 76 78 77 78 78 82 87 88 91 94 97 96 94
97 97 97 98 98 98 91 76 66 57 47 41 36 45 60 67 73 77 77 78 78 80 81 81 80 78 80 80 74 69 67 65 66 66 70 70 69 69 70 69 67 67 68 70 70 73 76 76 76 78 81 84 85 87
97 98 98 97 97 97 92 84 80 74 66 56 49 45 42 41 44 51 60 66 74 77 77 79 76 77 75 72 70 66 68 65 64 63 66 68 68 68 68 65 63 61 60 60 62 64 66 68 70 73 74 75 79 82
98 98 98 97 97 97 94 91 87 87 84 83 75 65 57 52 47 42 44 46 48 55 61 65 67 59 56 56 57 58 56 54 55 56 57 56 56 54 51 47 46 45 44 43 45 48 54 59 63 65 66 68 69 72
97 97 97 97 97 97 97 96 91 93 88 89 91 93 85 72 63 56 52 52 51 51 56 53 47 46 45 45 47 49 49 48 44 42 41 36 30 24 19 15 13 11 11 12 13 14 19 30 45 55 61 64 68 69
85 97 98 98 97 96 91 90 88 88 90 90 91 93 94 94 85 74 67 59 58 54 51 42 39 41 43 45 45 42 39 35 30 24 18 14 14 13 12 12 12 12 13 13 13 14 16 18 22 26 33 48 60 68
60 62 68 85 93 91 87 85 85 88 91 90 89 90 90 89 89 85 77 72 65 53 46 40 36 33 33 32 32 34 33 26 21 18 16 15 14 14 13 13 13 13 13 13 14 13 13 15 19 23 26 32 39 52
60 59 59 58 58 65 77 79 81 82 87 89 90 91 90 89 88 88 89 84 74 65 60 55 47 39 32 32 34 34 33 29 22 18 16 16 16 16 15 15 14 14 14 14 15 15 14 14 15 19 23 27 33 41
63 60 57 55 50 51 53 71 80 80 81 85 88 87 86 86 86 86 82 77 74 74 72 63 54 50 48 45 44 40 37 32 25 21 20 19 19 19 18 16 16 18 19 18 17 16 16 15 16 16 20 26 30 35
66 66 62 59 56 50 48 53 74 78 80 81 81 84 85 87 87 83 79 72 72 68 66 64 63 59 56 54 48 43 36 32 27 25 24 23 22 21 19 18 19 21 23 23 21 21 20 20 20 20 19 23 29 35
66 61 56 52 52 47 47 47 60 77 80 79 81 86 86 85 84 77 70 65 63 61 62 63 59 58 53 50 49 41 35 31 29 27 26 26 24 23 22 21 20 20 24 25 25 25 25 25 25 24 23 22 28 34
61 55 53 51 47 46 45 46 52 68 79 81 87 92 88 86 79 67 61 59 57 55 54 54 55 54 53 52 45 39 36 34 32 30 27 25 25 24 25 25 24 24 24 26 27 28 29 29 30 30 30 27 26 33
55 49 47 48 48 45 46 46 49 64 75 80 84 87 87 80 69 64 61 58 58 59 60 60 61 62 60 54 47 41 38 36 33 30 27 25 23 25 26 26 27 28 29 30 30 31 33 34 36 36 36 35 31 34
48 49 50 49 46 47 44 42 46 56 70 75 78 76 76 74 71 68 69 69 69 70 67 64 65 63 61 56 49 43 40 35 32 28 25 23 24 26 27 29 30 31 33 34 36 38 40 41 43 43 43 43 39 38
48 50 50 47 48 44 41 41 43 61 71 72 73 72 74 77 78 75 71 71 71 68 63 63 62 61 58 53 46 39 34 31 28 27 28 27 27 27 29 31 33 35 37 39 42 45 50 50 51 53 53 52 45 43
54 54 51 48 47 46 51 50 55 67 72 76 76 74 75 75 75 76 77 78 77 74 70 65 60 56 50 42 37 34 31 29 29 29 28 28 29 31 35 38 40 42 43 47 51 58 64 64 57 59 60 54 50 53
73 68 56 52 50 52 59 65 71 73 78 79 78 77 79 78 76 75 75 72 67 63 59 54 48 43 39 35 31 28 28 29 29 28 30 32 35 38 42 43 45 48 52 56 61 68 75 75 66 58 57 57 60 62
78 80 73 65 66 74 76 81 86 84 83 82 81 81 79 77 73 71 72 69 63 54 45 39 36 34 31 29 29 28 27 28 30 32 35 37 39 41 44 48 53 59 66 72 78 84 84 78 66 65 65 65 65 66

GFSWCAN_prec_cthk_057.txt.gz
RH
46 50 56 61 64 64 65 59 61 63 64 64 72 74 72 72 77 77 74 63 57 59 43 47 60 69 73 72 73 72 69 64 66 67 71 75 78 77 80 78 78 76 78 73 72 69 65 55 69 88 89 84 81 80
42 46 58 61 67 65 69 70 65 66 66 66 74 78 79 75 73 73 73 75 78 68 55 50 47 61 67 76 80 75 69 61 60 67 71 74 81 86 83 84 79 80 71 70 66 60 58 64 80 85 87 85 82 81
39 52 51 62 64 64 71 74 70 68 66 75 82 87 81 75 81 80 76 78 79 77 62 48 40 63 69 75 82 79 73 67 63 64 70 73 74 79 87 86 84 79 75 74 72 69 71 80 88 90 88 83 83 81
34 50 53 52 54 76 83 73 72 70 73 82 81 89 88 82 76 68 73 67 61 48 39 27 53 67 74 79 82 80 79 73 67 70 71 72 74 75 81 83 84 80 79 74 72 71 77 83 92 89 86 81 81 80
27 39 54 56 62 76 81 73 74 70 78 81 81 93 85 70 63 63 50 40 42 41 45 40 46 62 76 78 85 83 83 77 74 78 77 76 77 77 77 80 83 78 77 76 78 75 77 84 90 90 85 81 79 78
36 51 49 74 75 69 76 80 75 73 80 74 87 79 70 61 52 43 43 36 41 48 62 75 84 83 84 89 92 94 89 80 76 78 81 78 80 81 82 76 72 74 74 73 73 73 72 76 84 84 83 80 75 73
38 51 57 64 76 73 81 84 77 77 75 80 72 69 55 39 39 46 47 64 70 81 93 97 98 92 92 98 92 95 90 84 80 81 82 83 84 87 83 75 76 78 76 76 75 76 73 71 80 85 83 78 74 72
27 44 74 83 85 78 90 85 83 77 77 66 66 54 41 39 51 62 71 78 84 92 97 98 99 99 97 91 95 91 90 87 86 86 85 86 89 91 82 80 80 81 82 78 79 79 75 73 71 82 84 78 76 75
34 47 71 75 78 90 95 88 83 80 68 60 62 43 46 65 74 76 86 87 90 94 96 98 99 99 95 96 93 94 91 91 89 89 92 96 94 90 88 86 84 83 82 80 78 77 75 74 71 72 82 82 78 76
45 57 90 85 97 98 96 91 87 81 61 61 62 61 73 83 82 87 90 88 89 91 97 98 98 98 93 92 94 95 95 96 94 96 98 95 91 89 88 86 86 84 82 80 80 77 75 71 73 69 73 82 83 83
60 86 94 99 98 95 90 89 86 79 60 73 65 69 85 88 88 91 92 91 91 92 94 94 93 97 96 97 98 94 97 97 96 95 98 96 91 91 93 92 89 88 84 79 77 78 77 76 75 72 71 77 85 88
88 94 98 98 98 93 89 87 87 74 57 78 71 76 90 92 90 93 93 93 92 89 89 91 94 97 98 97 95 97 93 93 93 94 96 91 90 92 90 86 81 80 85 91 94 92 89 85 81 78 72 74 82 89
96 97 98 98 97 93 91 88 89 71 57 84 77 83 91 94 94 92 89 90 90 86 86 89 92 92 92 90 90 92 92 91 88 87 81 79 89 89 83 83 88 92 94 96 97 97 95 93 90 87 82 79 82 87
99 98 98 98 97 94 89 89 92 68 64 84 81 86 92 93 86 88 88 88 83 79 83 82 86 87 87 86 85 86 85 84 83 80 72 73 80 81 84 87 92 94 94 96 98 95 96 96 94 92 92 89 87 89
98 98 98 97 97 92 92 92 91 71 77 86 88 84 90 89 86 88 90 85 82 79 80 80 83 79 80 79 78 78 79 76 70 66 67 70 73 71 73 76 83 84 83 82 84 86 88 92 95 95 94 94 94 94
98 98 97 97 94 91 89 89 82 75 85 89 90 86 86 91 90 89 89 85 81 79 82 80 79 78 76 74 74 72 71 68 65 64 65 70 70 67 67 68 67 68 71 73 75 77 78 79 80 83 86 88 90 96
97 96 96 95 93 92 89 87 82 78 86 86 79 79 82 89 90 88 88 88 85 81 84 81 79 75 76 74 71 66 68 66 64 65 64 65 68 66 65 65 63 63 63 62 60 60 65 68 71 73 75 77 79 81
96 97 94 91 90 90 91 91 86 82 82 81 74 67 63 77 82 82 86 87 88 88 86 85 81 80 77 72 72 70 67 66 66 64 64 65 67 69 68 66 63 61 59 55 50 47 45 45 47 52 56 60 65 69
96 93 92 92 93 94 95 96 91 90 84 82 78 74 67 55 63 73 73 75 79 86 86 84 82 73 70 71 69 67 68 66 66 66 65 64 63 62 62 61 58 54 46 35 29 24 20 16 16 18 21 24 28 33
95 95 96 96 97 98 98 97 97 97 95 93 91 88 82 72 57 56 61 62 63 64 76 74 69 66 61 56 54 56 52 51 50 50 51 51 46 39 35 33 28 17 10 9 9 9 10 11 11 11 11 12 15 18
98 98 97 98 98 97 97 97 97 97 97 98 97 97 97 94 87 72 64 60 57 53 44 38 37 41 43 43 43 46 47 48 48 49 49 44 39 33 26 17 13 11 10 11 12 12 13 12 13 13 12 12 12 14
95 96 95 92 94 94 94 97 97 97 97 97 97 97 97 97 97 97 95 85 70 57 49 43 39 38 38 38 40 41 43 42 42 42 39 35 29 24 18 15 13 13 14 14 15 15 16 17 17 17 16 15 15 14
67 61 56 58 61 65 68 73 78 82 88 94 96 97 97 97 97 97 96 90 84 82 82 80 72 58 49 47 48 48 48 46 43 38 34 30 27 24 22 19 17 16 17 18 17 18 19 19 21 22 21 21 19 18
51 49 47 48 47 50 48 51 57 63 71 80 85 86 88 91 92 92 90 86 81 79 77 76 77 79 76 70 66 63 59 58 56 50 44 38 34 29 26 23 22 22 23 24 23 26 26 25 25 25 25 24 24 23
54 53 50 50 48 47 44 45 49 48 49 54 64 75 79 82 85 88 87 81 72 68 65 67 72 75 78 79 78 72 69 64 59 57 51 47 43 39 34 31 30 30 30 30 30 30 29 28 28 28 28 28 28 27
58 55 53 50 50 47 45 42 42 41 40 41 42 46 59 72 79 81 79 67 62 59 60 64 64 69 70 69 70 70 70 71 69 60 53 49 45 43 42 40 38 37 36 33 33 33 33 34 33 33 33 33 32 31
62 59 58 54 50 48 43 40 38 40 40 39 39 43 45 43 55 64 61 62 62 57 54 57 60 62 64 65 65 66 65 62 59 54 51 49 47 45 43 42 40 39 38 38 39 38 37 36 36 36 36 35 35 34
62 59 59 57 54 50 47 44 42 40 38 35 38 41 39 38 36 32 45 54 58 63 65 63 64 66 68 69 67 66 64 63 62 60 59 55 51 48 48 48 45 42 41 41 40 38 38 39 39 38 37 36 35 36
59 59 57 55 52 50 43 41 39 33 30 31 34 33 30 27 27 28 31 41 56 61 66 70 73 70 67 66 67 66 67 66 64 63 63 60 52 48 45 40 40 40 39 38 39 40 41 40 38 37 36 36 37 39
54 52 52 49 48 44 38 38 35 33 32 32 31 28 26 24 26 26 27 30 42 59 65 68 72 74 75 74 72 69 67 66 64 61 58 53 47 40 37 37 39 40 40 39 39 38 39 39 39 41 43 44 45 46
50 54 55 52 47 42 41 39 37 35 33 31 30 30 29 27 23 24 24 25 34 55 63 65 68 69 70 72 72 71 67 63 61 56 48 43 39 38 39 38 38 37 37 37 38 39 41 43 45 47 50 52 54 57
54 53 51 50 47 45 46 44 42 41 39 38 37 33 31 31 28 25 20 24 34 53 59 62 66 68 66 67 66 65 61 56 51 45 40 37 35 36 35 34 35 37 39 40 42 44 47 51 54 58 63 67 69 72
72 67 61 61 66 66 61 60 58 53 49 50 44 39 34 32 29 24 25 32 46 53 58 63 65 64 64 66 61 51 43 41 39 37 35 35 33 32 33 35 37 39 43 46 49 52 57 64 71 77 80 80 79 75

GFSWCAN_prec_cthk_060.txt.gz
RH
30 39 41 42 40 42 51 55 50 60 66 71 64 62 61 68 73 69 65 64 75 78 65 53 58 69 70 69 70 72 73 71 70 68 63 64 68 74 78 75 75 73 75 74 69 70 62 49 61 71 74 76 84 83
23 26 29 32 35 47 45 57 60 64 73 71 69 62 66 76 76 79 68 67 74 81 73 70 56 49 71 75 76 75 72 71 68 65 62 63 67 75 73 77 75 75 66 69 65 58 54 57 66 68 75 84 87 85
14 25 29 34 33 42 49 51 46 68 78 73 76 68 72 80 81 83 85 77 79 84 80 74 69 60 47 76 77 79 76 75 74 65 64 68 67 71 75 75 76 74 72 70 68 64 62 63 68 77 83 89 87 85
14 16 22 26 33 37 46 54 54 68 80 75 77 73 76 82 86 87 82 78 76 76 73 57 63 75 65 67 82 80 78 81 79 73 66 67 64 65 68 69 75 76 77 74 72 69 71 70 74 84 88 89 86 83
12 11 18 24 28 43 40 48 58 69 70 79 77 73 78 81 79 79 69 58 57 55 46 32 31 24 43 75 86 93 82 86 83 77 70 70 70 70 70 70 67 71 74 73 70 69 67 73 80 88 92 90 85 81
10 9 20 31 33 43 46 49 57 65 70 83 77 75 77 69 74 62 45 35 40 46 54 53 53 42 41 56 93 98 90 88 83 80 73 75 74 73 72 66 62 63 67 73 72 73 71 72 77 80 86 87 84 82
12 14 23 26 41 43 47 46 57 75 83 87 80 76 65 63 55 43 41 59 67 71 86 89 82 66 61 80 96 96 98 94 90 84 75 79 82 79 76 64 70 70 70 73 73 74 74 72 70 71 81 85 84 83
11 13 27 34 38 38 53 57 70 80 91 90 80 64 62 52 48 54 61 74 73 83 95 95 84 96 98 99 95 99 98 96 95 90 81 80 82 79 73 72 81 78 76 76 77 77 78 77 74 72 70 82 85 82
11 10 24 33 39 43 54 56 74 84 94 88 69 66 54 57 65 75 81 89 88 93 95 93 92 96 98 97 98 97 97 98 92 88 85 86 86 82 78 82 84 83 80 78 78 77 76 76 74 71 69 70 79 82
10 11 17 36 54 55 61 77 81 96 93 84 64 78 72 76 84 88 93 92 93 93 94 97 98 97 96 95 97 97 93 90 89 87 91 89 84 88 89 88 86 85 83 81 81 79 76 75 74 71 71 69 70 78
13 17 24 61 54 81 73 90 98 97 94 70 72 79 79 87 90 91 91 90 90 94 94 97 98 98 98 97 96 92 98 96 95 92 95 92 94 92 91 90 90 89 87 85 83 77 74 74 77 76 73 72 69 70
21 20 51 71 84 93 86 96 98 97 91 66 77 81 83 89 90 93 92 91 89 90 89 97 94 98 97 98 97 96 96 95 94 94 95 92 87 91 94 90 88 85 82 84 87 92 92 89 86 84 80 75 73 71
34 45 61 83 92 97 98 98 97 97 82 69 83 91 86 91 95 92 89 89 91 91 92 93 97 99 98 97 96 97 97 94 93 92 83 78 83 89 89 85 89 96 97 96 95 95 96 96 95 92 88 84 79 76
63 90 97 98 98 98 98 97 97 96 70 74 89 97 89 91 86 87 86 90 91 91 89 92 95 96 94 93 91 91 90 89 88 83 76 72 80 79 81 87 95 98 94 96 97 97 97 98 98 97 95 94 88 85
90 98 99 98 98 98 97 97 97 91 70 79 89 95 92 83 88 88 93 92 92 92 88 89 89 88 88 86 83 82 82 77 71 66 65 70 76 75 74 78 83 84 82 82 82 83 84 87 90 92 94 95 96 96
98 98 98 98 98 97 97 97 98 87 76 80 85 92 94 89 89 95 95 96 96 92 88 88 88 85 80 75 76 73 72 67 62 63 63 66 73 69 67 66 65 66 66 68 70 72 74 75 77 81 83 83 85 87
93 97 98 97 97 97 97 97 95 82 78 75 78 91 97 94 88 96 97 98 97 90 88 86 80 75 75 72 71 72 69 63 61 62 62 66 69 68 65 65 63 62 61 60 60 58 58 60 63 67 69 72 74 76
97 98 97 97 97 97 98 93 83 78 78 79 83 82 86 96 94 88 97 99 98 93 88 87 81 77 72 70 69 68 68 67 66 64 64 64 67 69 70 70 67 64 62 59 55 49 46 42 40 39 39 43 47 52
97 97 97 97 97 93 89 87 85 84 81 84 86 84 82 81 85 84 85 94 97 97 94 89 84 75 69 68 71 70 69 67 67 66 67 67 67 65 64 63 64 62 58 50 39 31 25 20 15 10 9 10 15 20
97 98 97 94 91 89 91 92 88 92 93 89 89 90 88 81 74 71 73 82 85 86 91 85 78 76 76 73 71 69 65 61 55 54 53 52 51 50 49 47 39 28 23 16 12 9 9 10 11 12 12 11 11 11
96 95 93 91 92 94 94 95 96 97 97 97 97 96 96 94 89 85 74 66 68 68 68 63 60 60 60 63 64 60 54 47 46 47 48 50 51 48 43 37 30 19 12 11 11 11 12 13 14 14 14 15 14 13
93 95 96 95 96 96 96 97 97 97 97 97 97 97 97 97 97 97 95 85 67 55 56 57 59 49 40 38 36 40 42 42 41 42 45 46 45 41 34 28 23 19 15 14 14 15 15 16 17 17 18 19 20 20
90 86 79 83 83 80 80 84 84 90 95 97 97 97 97 97 97 97 97 94 87 78 68 61 58 57 52 47 41 38 39 41 44 46 46 44 38 29 26 25 23 22 21 20 18 17 16 17 19 23 25 25 24 23
56 53 57 60 59 59 58 61 62 65 69 77 84 89 92 96 97 97 97 96 87 78 74 73 75 76 77 77 74 64 55 57 63 61 58 55 47 41 37 35 33 32 28 24 22 21 21 22 25 28 30 31 31 28
50 51 50 51 47 44 46 49 48 45 46 50 55 58 68 78 87 93 90 81 72 67 68 70 70 71 75 77 79 81 80 78 74 72 70 63 55 49 46 43 41 40 40 38 35 33 33 35 36 36 37 36 35 33
55 54 53 48 48 45 43 43 42 41 39 39 40 41 48 57 67 74 74 68 64 64 65 69 69 66 67 69 71 73 74 74 75 75 73 69 62 56 51 49 48 46 46 44 42 40 40 40 40 40 40 40 40 38
60 56 56 54 51 49 46 43 39 38 38 37 37 40 40 41 45 37 36 42 52 61 66 68 67 67 69 71 71 71 70 69 69 67 66 60 55 53 52 51 51 48 45 43 42 42 44 44 44 44 43 43 42 42
61 62 65 65 61 56 52 48 45 40 36 33 35 38 37 35 36 27 24 25 28 36 47 58 65 68 67 67 68 68 70 70 68 65 63 60 58 58 58 57 57 55 51 46 45 43 42 41 40 39 40 40 40 42
67 67 64 62 58 56 51 50 46 38 34 33 36 33 31 27 25 25 26 26 24 23 27 33 44 57 62 66 67 65 65 66 66 66 64 63 61 59 59 60 57 51 44 40 39 38 38 39 41 42 42 41 40 39
52 51 53 54 53 51 45 44 40 38 37 36 35 33 30 26 24 23 21 19 18 18 20 23 26 39 54 60 65 66 67 66 65 65 66 65 63 62 59 52 43 38 38 39 41 41 41 41 41 40 40 40 40 42
52 50 50 48 45 42 40 40 41 42 42 40 38 37 32 29 24 21 18 16 15 14 15 16 19 25 40 55 60 63 65 66 68 68 65 62 60 56 48 41 39 39 39 38 38 37 38 39 40 41 43 45 48 49
50 51 49 47 44 42 43 45 44 43 40 39 37 36 35 33 28 24 20 18 16 14 12 15 22 28 40 57 62 64 64 65 66 66 62 55 48 42 38 37 37 37 35 36 38 39 41 43 45 48 51 56 61 67
52 52 54 56 56 50 47 54 54 52 49 47 43 40 37 34 30 22 21 19 17 16 16 22 28 32 49 59 61 61 64 64 60 49 42 39 37 37 36 33 33 36 38 41 44 46 48 51 56 64 72 79 82 82

GFSWCAN_prec_cthk_066.txt.gz
RH
24 21 17 16 15 16 19 23 22 24 26 29 33 38 40 42 43 47 52 55 59 62 60 61 68 69 65 83 92 87 81 73 73 71 74 68 63 66 71 68 68 68 74 73 67 71 63 49 51 59 66 64 69 72
19 16 15 13 15 19 20 21 21 25 31 31 31 34 41 46 45 49 52 58 66 67 65 63 71 75 72 73 87 92 93 80 73 75 67 63 62 61 62 64 65 71 64 65 62 63 54 52 55 57 64 67 68 70
17 16 12 12 14 16 18 22 25 24 32 33 39 40 41 48 50 53 60 66 76 75 68 64 69 76 70 72 67 78 95 93 83 78 76 71 68 61 61 57 60 62 61 65 65 60 58 55 58 60 61 61 63 66
18 14 13 13 13 15 17 19 25 25 32 33 42 44 45 50 53 56 62 71 82 78 71 52 52 60 67 68 76 70 75 97 94 91 81 80 75 62 61 60 62 61 64 64 63 63 64 63 60 59 66 64 66 70
13 14 14 15 16 17 21 22 24 30 34 35 43 46 50 55 56 62 66 76 74 73 63 48 46 49 50 61 69 81 71 84 98 97 91 81 75 73 63 61 59 58 61 65 70 64 64 67 68 67 69 71 72 73
20 19 18 17 18 18 18 20 29 27 43 41 46 53 58 56 60 63 68 77 70 64 64 64 58 54 52 51 50 69 81 78 96 99 95 87 80 78 69 61 51 52 52 55 59 60 64 64 65 67 69 67 72 73
25 22 18 19 19 19 17 15 25 32 42 44 48 58 56 60 66 67 79 81 64 55 75 79 68 73 73 57 37 42 76 86 91 98 94 89 89 87 75 64 56 57 56 56 55 54 55 55 61 66 67 69 68 71
25 23 22 22 20 16 12 10 12 26 42 50 56 60 59 69 69 69 81 76 61 67 86 82 80 88 80 70 65 48 54 92 96 98 91 88 90 92 79 62 60 61 59 59 58 56 56 58 60 64 68 69 68 68
27 23 21 20 15 11 9 8 9 19 44 55 61 64 65 66 71 85 86 77 74 84 90 84 89 96 96 94 82 63 66 90 92 94 94 91 91 84 71 69 66 63 61 63 63 62 63 65 64 64 68 70 71 70
25 23 19 14 11 10 9 8 9 22 56 64 68 69 68 76 93 93 89 89 88 90 92 86 89 97 94 97 96 93 97 97 96 98 96 91 82 77 78 75 71 68 69 70 71 70 72 72 72 70 71 71 71 71
25 17 14 14 16 17 13 12 15 37 55 66 69 75 81 98 99 95 93 88 94 91 92 92 95 98 98 98 98 98 99 96 96 97 96 92 82 79 75 75 76 76 77 82 84 83 82 79 79 77 74 72 71 71
15 14 16 19 25 29 24 24 47 54 64 82 85 95 99 98 98 97 94 90 95 94 97 97 98 99 99 98 98 94 98 97 97 95 94 83 80 80 78 80 84 89 90 92 91 90 87 85 83 83 85 82 79 79
13 15 17 26 32 33 33 38 55 52 80 95 95 97 97 98 96 95 94 90 95 94 94 96 98 98 99 98 97 98 96 96 96 95 90 85 85 85 90 93 93 93 93 93 93 93 92 91 92 92 93 92 90 87
15 19 24 34 39 38 40 56 74 90 99 98 96 97 97 97 92 92 93 92 94 93 95 97 98 99 98 98 97 98 97 97 97 94 84 80 79 83 87 88 94 97 98 98 98 98 98 97 97 98 98 98 98 96
22 22 32 40 52 62 70 77 98 98 98 96 95 96 92 89 96 98 96 92 95 94 95 98 98 98 98 98 97 96 96 95 88 82 80 75 74 80 81 85 94 95 96 92 86 82 80 79 79 80 81 84 87 90
29 32 35 47 63 91 83 76 95 98 97 98 96 95 92 94 92 93 98 96 91 97 98 98 98 98 98 97 96 95 92 83 77 74 71 68 69 75 74 78 86 80 73 69 68 69 69 68 68 69 70 70 70 71
46 40 45 55 71 89 96 98 98 98 95 94 91 91 93 97 97 95 96 99 93 93 98 98 98 98 97 96 93 88 86 82 73 68 65 66 67 71 70 73 72 68 66 67 67 66 63 59 54 49 47 49 54 56
64 61 64 71 85 93 98 95 97 95 93 89 87 88 88 90 90 93 97 98 97 97 98 98 98 98 97 94 87 83 79 75 69 68 67 67 67 66 65 67 70 72 74 73 71 67 62 56 50 44 37 34 31 26
91 85 85 93 96 92 93 95 93 91 89 88 86 88 89 85 81 82 89 97 98 98 99 98 97 96 94 93 91 84 78 75 73 70 68 68 67 65 64 67 65 64 64 62 60 55 45 36 27 17 15 12 10 11
98 90 88 94 95 92 92 92 92 92 92 91 88 86 84 80 77 76 79 86 92 97 97 95 92 93 96 94 90 85 79 76 74 73 72 71 69 64 58 49 48 51 53 50 43 33 23 16 11 10 11 11 12 13
98 96 94 96 96 92 91 92 91 90 90 88 85 81 80 80 80 83 85 86 84 86 88 85 88 91 92 89 85 82 81 79 78 76 74 69 66 61 53 46 45 47 48 43 33 22 16 13 11 11 12 13 14 15
98 98 98 97 95 93 92 91 87 86 84 84 83 86 85 85 86 87 89 90 88 81 78 74 74 72 71 73 74 69 62 59 60 62 62 59 54 49 45 42 44 46 44 39 28 23 22 21 21 20 19 17 16 16
97 97 96 95 91 89 92 90 87 87 87 87 87 87 89 92 92 92 93 91 87 85 83 82 78 72 69 69 70 71 70 68 64 57 51 48 49 46 43 43 44 42 37 28 24 23 23 23 23 22 20 19 19 20
97 97 96 93 90 89 88 85 79 78 79 84 86 88 90 94 94 96 96 95 89 86 86 83 78 73 63 55 54 56 60 64 64 63 62 57 48 47 49 50 50 45 39 36 33 33 34 32 31 33 34 34 33 33
93 91 87 84 78 76 72 67 60 55 56 59 62 71 77 83 93 96 95 90 85 85 83 82 82 81 77 70 63 62 62 65 67 68 68 66 64 65 67 65 59 52 50 51 52 51 49 48 46 45 44 44 44 44
74 68 62 60 61 61 54 46 42 38 36 36 37 37 46 55 58 59 61 54 56 64 69 71 72 72 73 74 75 76 75 72 69 67 68 71 72 74 73 74 71 64 60 55 53 53 54 53 53 52 50 48 48 47
56 53 50 45 44 42 40 35 32 33 34 34 35 36 36 38 43 36 26 25 28 33 39 45 50 54 59 65 67 71 73 73 73 74 74 73 72 72 71 69 66 61 60 60 61 62 62 62 61 57 52 47 46 45
50 51 51 48 46 42 40 38 38 37 39 37 37 38 36 34 34 29 25 26 27 25 25 24 25 27 28 27 30 35 45 55 63 68 72 74 74 74 73 71 69 66 63 63 61 60 58 57 55 50 44 42 43 44
58 56 54 54 50 49 47 49 49 46 45 45 48 45 40 36 34 33 34 33 31 30 27 23 19 16 14 15 17 19 22 26 33 40 49 60 66 67 66 66 64 61 59 57 55 53 52 51 48 42 40 42 44 45
59 57 57 57 56 54 51 48 46 43 41 39 38 35 32 30 29 28 27 27 26 24 22 21 19 18 16 14 13 13 15 17 18 21 22 33 48 57 59 58 58 57 56 56 56 55 55 52 45 41 43 44 45 46
50 48 47 46 46 44 42 41 40 38 37 35 33 32 29 27 23 22 21 21 20 20 20 20 19 18 17 16 17 17 16 16 15 16 21 22 28 41 51 55 57 59 60 61 57 50 45 41 42 43 45 47 48 47
51 51 50 48 44 43 43 43 42 40 38 36 35 34 32 32 29 23 19 20 20 20 19 19 17 17 19 20 19 18 18 18 18 19 19 22 28 36 47 54 58 61 57 47 42 41 42 44 46 46 45 46 48 50
51 52 51 50 47 46 45 46 45 42 40 37 32 31 32 36 37 28 24 25 26 22 21 21 20 19 20 22 23 22 19 18 18 19 23 27 31 42 51 53 49 44 42 43 45 45 43 44 46 49 52 57 63 68

GFSWCAN_prec_cthk_069.txt.gz
RH
35 37 37 32 21 20 22 24 27 28 27 28 28 31 29 32 35 35 40 44 49 48 42 53 57 53 58 60 68 85 88 90 94 81 80 80 72 65 65 70 75 72 72 78 75 75 68 50 53 61 63 66 68 66
38 38 33 26 25 22 26 29 28 28 28 29 32 31 31 35 37 37 39 46 53 53 47 59 68 65 63 60 67 73 83 96 98 93 76 73 69 66 65 69 67 75 67 66 66 62 55 54 53 56 62 65 67 69
39 29 26 29 21 22 22 22 26 24 32 31 26 31 33 35 39 42 42 51 54 55 47 62 63 57 55 59 67 82 72 80 98 98 93 83 75 68 70 63 59 58 58 64 65 60 59 57 58 60 63 64 65 65
28 25 22 25 29 24 22 18 19 24 23 30 34 33 33 40 42 45 51 53 59 61 59 63 58 42 43 40 55 77 78 74 87 97 96 88 83 72 72 63 58 57 60 61 59 61 65 64 61 61 64 66 66 63
27 29 30 21 17 19 22 23 24 26 28 29 31 41 38 42 43 47 55 54 59 69 67 71 49 65 64 54 49 62 77 81 80 89 98 97 85 79 75 71 62 59 63 65 66 63 61 64 64 65 65 67 70 70
37 31 22 25 31 31 33 22 19 17 20 30 26 44 42 43 45 52 52 51 54 68 80 63 66 67 78 72 61 54 64 82 86 87 92 94 84 85 82 76 62 55 55 55 57 60 64 67 67 69 68 69 70 70
36 36 36 38 36 36 29 23 19 16 16 27 32 45 44 46 48 53 54 60 67 81 75 74 71 75 83 82 63 57 54 68 86 89 88 95 95 92 91 78 67 63 57 56 57 58 60 61 61 61 60 64 67 69
38 41 43 37 34 30 27 25 17 13 11 19 42 41 50 56 55 60 64 62 72 81 72 91 79 82 90 87 75 53 58 54 72 89 91 95 95 95 88 76 76 70 60 58 59 58 56 56 58 60 61 61 64 68
46 44 38 39 39 34 26 15 14 14 12 19 41 45 56 58 66 64 69 79 83 83 85 93 89 86 92 93 94 70 58 57 52 89 93 96 97 85 74 77 81 74 66 65 64 61 62 61 60 62 65 64 64 67
54 48 48 42 31 24 23 19 13 12 16 29 38 46 58 66 76 69 77 87 91 84 90 88 87 92 92 98 97 95 87 96 83 87 95 91 86 80 78 78 79 76 73 67 66 66 66 67 66 67 67 69 69 67
52 46 37 32 24 21 25 22 17 23 24 33 44 56 70 76 85 81 88 93 94 86 91 91 94 97 97 98 98 97 98 97 99 94 84 87 82 78 76 78 79 75 74 72 72 71 73 74 74 75 76 77 76 73
45 37 28 21 20 23 27 28 25 27 34 43 55 71 82 90 91 94 94 94 93 90 96 97 98 99 99 98 98 98 99 96 95 94 95 89 83 83 81 80 79 80 80 78 77 82 89 89 87 87 86 85 86 83
33 25 20 20 21 28 32 36 39 43 51 63 75 86 94 93 93 91 92 95 95 97 98 98 98 98 99 98 99 98 96 98 97 97 92 87 87 86 87 86 87 87 88 92 93 95 94 93 93 92 94 93 94 92
28 20 20 20 21 28 35 42 48 50 66 72 77 90 95 92 87 85 90 95 96 98 98 98 98 98 99 98 98 99 97 98 97 96 94 88 86 85 88 92 96 98 98 98 98 98 98 98 98 98 98 96 96 97
21 23 28 22 23 34 42 49 58 63 81 87 93 89 87 85 91 95 97 98 97 94 96 98 98 98 98 98 98 98 98 97 95 92 89 85 81 83 88 88 98 98 98 98 92 87 83 82 79 78 76 76 76 77
25 30 30 26 28 42 48 64 70 71 88 94 87 88 87 91 91 92 93 95 98 98 98 99 98 98 98 98 98 97 97 93 89 87 83 79 78 80 82 84 92 93 84 77 75 76 76 74 72 69 67 67 67 68
33 34 38 41 34 44 51 67 74 80 89 83 79 87 91 93 94 96 98 97 97 98 99 98 98 97 96 97 97 97 97 95 88 82 79 77 76 77 76 79 81 76 72 71 72 71 69 66 61 55 49 45 41 37
36 39 47 56 44 50 57 72 81 85 87 83 86 83 88 90 92 94 93 96 98 98 98 99 97 96 96 97 96 97 96 93 85 76 73 73 72 71 72 73 71 71 73 75 76 73 70 62 55 49 44 38 28 23
42 49 54 54 58 61 70 81 86 88 86 84 83 85 89 89 88 88 89 88 93 98 98 97 96 93 93 96 97 97 92 90 86 80 76 75 73 69 65 64 66 65 62 58 58 59 54 43 36 31 27 17 10 10
54 62 66 77 85 82 85 88 88 90 85 83 84 86 86 88 89 85 80 81 83 86 93 95 92 92 93 95 95 95 93 89 83 80 78 77 76 74 71 66 60 57 48 46 48 48 39 27 21 18 15 12 11 12
67 75 86 93 97 96 95 94 94 92 90 90 90 87 87 86 82 79 79 80 81 78 81 84 90 91 92 91 88 83 83 84 85 83 80 78 76 73 68 66 62 57 47 45 48 48 34 22 20 18 16 15 14 14
86 92 98 98 98 97 95 94 91 91 89 89 86 84 83 81 79 78 78 80 81 79 79 81 80 80 80 77 78 77 75 75 71 65 62 64 63 62 62 60 55 54 47 44 44 41 26 22 22 22 22 22 22 21
97 97 98 97 96 94 97 94 94 91 86 86 85 85 84 84 84 84 86 86 84 84 83 84 85 82 80 74 69 65 64 65 69 71 70 66 60 60 57 56 54 53 50 46 43 35 25 24 25 25 24 23 22 22
97 97 97 97 95 96 96 94 90 89 88 88 87 86 84 85 85 91 91 91 87 84 82 83 79 76 74 73 69 66 62 62 62 67 71 70 69 67 64 59 56 58 58 51 42 36 33 32 36 40 41 43 43 42
98 98 97 96 92 91 92 88 82 77 69 69 70 72 74 77 87 89 89 85 84 84 86 88 91 91 87 82 79 76 72 69 66 67 67 69 70 70 69 71 71 70 67 60 52 46 45 47 49 52 54 54 53 50
93 90 90 89 89 86 82 72 57 46 42 39 37 41 50 49 49 47 48 45 52 59 65 69 72 75 76 76 76 77 80 80 77 73 69 67 67 68 69 70 69 69 66 60 53 49 50 55 59 61 62 62 62 60
80 78 75 76 74 67 54 42 37 35 35 33 35 35 36 36 40 34 23 19 23 27 30 32 34 37 39 40 41 43 46 50 59 69 74 76 75 74 73 71 69 67 66 62 61 62 63 64 65 65 65 63 60 53
69 64 56 53 54 45 37 35 34 33 35 35 36 38 37 36 37 33 28 27 27 27 28 28 26 25 23 22 22 24 25 26 29 32 35 43 50 58 65 68 71 73 72 70 68 66 66 65 63 59 57 55 51 42
59 55 50 47 43 41 39 40 41 40 40 41 44 43 41 38 37 36 36 36 35 35 33 31 27 23 20 18 16 15 16 18 22 23 24 23 23 29 36 43 53 61 65 66 64 62 59 57 55 54 52 50 45 38
58 55 52 53 52 51 53 50 48 45 43 41 40 37 35 32 30 28 26 25 24 22 21 20 20 20 19 19 18 18 18 17 17 18 19 19 20 20 24 30 35 40 48 56 57 54 52 54 56 54 48 41 37 38
59 57 55 53 51 48 46 44 42 39 37 34 32 31 28 27 23 21 21 22 22 22 20 19 17 16 16 16 16 16 17 19 19 19 18 18 17 18 20 21 24 28 33 44 53 56 57 57 51 43 40 41 45 49
52 50 48 45 43 42 39 37 35 32 31 29 29 27 28 29 27 22 23 26 25 23 23 24 23 21 21 20 19 17 16 17 18 20 20 19 18 18 18 21 24 28 33 44 54 53 47 41 40 44 50 50 48 49
49 48 48 45 43 41 40 38 37 37 36 35 32 32 32 34 35 30 31 32 30 28 27 28 27 25 24 23 22 22 21 20 19 19 20 19 18 19 22 25 29 31 33 37 41 42 46 50 51 49 49 53 57 60

GFSWCAN_prec_cthk_072.txt.gz
RH
49 47 39 32 32 36 51 39 30 23 25 31 31 32 37 37 33 32 34 36 37 36 34 37 44 48 54 63 67 65 75 90 96 99 96 83 75 66 64 65 74 82 85 82 79 79 69 51 55 59 60 64 65 58
51 46 41 34 31 44 38 30 35 31 29 31 32 32 36 38 34 34 35 40 43 43 38 44 50 54 54 58 69 69 69 87 99 98 98 92 79 64 65 69 67 75 71 73 72 66 55 56 54 52 56 66 70 71
51 33 34 35 44 38 30 43 29 23 27 27 32 37 36 39 37 40 39 42 46 44 37 39 42 51 52 55 53 63 71 78 88 95 98 99 86 70 67 64 64 64 68 73 74 65 62 61 60 61 63 65 70 73
45 43 40 45 39 31 30 25 28 27 24 29 28 35 33 38 40 42 44 45 49 53 50 41 49 50 53 56 59 53 41 74 90 97 97 97 98 80 68 59 61 62 60 60 59 61 66 67 65 65 65 65 66 66
35 38 44 43 36 30 33 35 25 24 29 33 34 36 31 42 46 45 45 44 53 60 58 46 54 48 60 65 64 66 49 59 90 95 95 94 97 96 84 73 66 62 59 61 61 61 62 63 66 68 68 67 67 69
37 47 45 36 29 37 37 27 31 34 34 29 27 27 32 43 49 46 47 43 52 61 64 61 47 63 74 82 82 67 55 67 87 93 92 88 83 98 91 81 62 65 62 58 58 61 62 67 70 70 71 70 69 71
51 44 35 33 34 38 33 42 40 37 29 25 20 26 38 46 52 47 51 56 61 67 67 69 65 66 71 85 86 75 58 67 77 82 88 87 89 98 96 80 66 67 67 62 57 57 58 57 62 67 69 70 69 67
43 37 32 33 43 45 50 42 36 33 30 20 15 21 31 46 43 44 62 65 68 71 78 75 76 76 82 91 88 86 77 61 67 76 77 87 91 95 90 79 74 72 72 70 62 60 58 57 58 57 58 58 60 60
34 37 40 46 52 51 43 43 44 35 21 20 19 29 35 39 50 46 60 68 71 81 89 81 84 80 88 94 95 96 93 75 55 61 69 76 89 95 90 83 78 75 76 72 66 63 62 62 62 60 59 59 60 62
51 53 55 55 56 52 49 44 35 31 22 20 21 30 40 42 42 55 68 76 77 89 86 84 86 87 86 88 95 96 97 98 89 57 68 90 91 84 78 81 80 80 81 77 73 69 68 66 65 65 64 64 64 64
59 60 58 62 57 49 43 40 32 24 22 26 32 39 44 49 62 68 73 76 80 86 86 93 96 94 95 98 99 98 98 98 98 94 97 98 93 84 78 79 83 83 82 80 76 73 70 67 66 67 68 68 68 69
63 63 61 56 49 45 37 34 31 28 28 33 34 41 48 61 70 75 74 83 88 88 90 97 97 98 98 98 98 98 99 99 98 93 94 92 90 87 86 87 85 81 81 81 78 76 75 75 75 74 75 76 79 79
66 63 57 51 42 31 33 35 32 35 38 42 44 53 59 68 79 78 76 85 90 89 96 99 98 99 98 99 99 99 98 99 98 99 96 91 89 87 86 88 88 86 84 83 81 81 81 86 89 92 91 90 92 92
70 60 51 43 36 32 33 38 39 44 43 45 53 61 68 75 72 72 78 87 95 96 97 96 96 98 98 99 98 98 98 98 97 96 95 92 88 88 91 92 95 97 95 94 94 97 98 97 97 98 98 98 97 96
59 50 44 39 34 29 35 43 46 49 47 53 64 66 64 61 67 80 88 93 93 96 97 95 96 98 98 98 98 98 98 97 97 95 92 90 89 89 91 95 98 98 98 97 97 95 93 90 88 85 83 81 80 77
50 47 37 34 37 35 39 46 49 55 62 64 67 67 66 71 77 83 87 89 90 92 94 98 98 98 98 98 98 98 97 97 98 94 90 87 84 86 90 93 99 97 93 82 79 80 81 81 80 77 75 70 65 62
46 41 32 41 42 42 41 50 56 62 66 66 68 71 74 75 78 83 87 86 92 92 96 98 98 97 97 98 97 96 96 98 97 89 88 87 85 87 84 87 90 81 74 77 79 78 78 78 73 68 60 53 49 45
40 39 40 43 47 48 51 55 63 64 64 68 70 73 76 78 79 81 82 88 88 93 97 99 94 94 96 96 96 96 97 96 95 89 85 81 77 76 78 80 77 72 71 74 75 72 70 67 58 50 44 41 37 31
36 39 42 44 50 58 58 61 66 66 73 78 80 79 77 78 79 82 80 82 86 91 95 98 96 93 93 94 96 97 96 95 94 92 86 78 75 71 69 68 66 66 66 64 61 55 52 49 40 36 34 31 27 23
37 44 49 55 58 65 68 69 71 78 80 79 79 77 74 80 82 79 82 85 85 84 84 88 90 91 93 96 96 95 93 93 93 91 89 82 79 79 76 72 70 66 62 58 53 44 45 46 34 22 22 21 19 17
50 52 58 65 75 76 82 85 90 89 90 90 86 80 82 82 82 82 86 88 86 79 75 72 74 84 94 98 95 88 85 84 84 85 85 85 82 80 79 76 69 63 60 58 58 52 44 47 36 24 22 21 20 19
60 64 75 81 87 91 94 93 94 94 90 89 84 87 84 82 80 81 81 80 74 71 69 70 70 70 77 86 85 82 79 78 78 75 75 74 70 68 69 68 65 62 59 57 56 55 48 39 28 21 21 23 24 23
78 85 88 93 98 97 97 97 96 95 91 92 90 84 81 79 78 78 76 75 71 69 70 72 75 76 77 79 80 76 71 69 67 66 67 71 72 72 69 64 63 61 58 58 59 60 57 47 30 26 25 27 28 27
91 97 98 97 96 97 96 95 94 94 94 91 87 84 81 80 79 80 80 76 75 74 76 79 76 75 76 77 76 72 70 69 69 67 63 63 67 69 70 71 71 67 64 63 65 65 59 49 38 32 34 36 39 43
98 98 98 97 95 93 94 93 93 90 86 86 84 78 77 76 82 83 82 75 73 73 75 82 88 89 88 88 86 85 85 81 77 74 73 71 71 71 70 69 70 72 73 74 73 67 60 53 49 47 46 48 53 57
97 96 94 92 91 93 94 92 89 84 74 60 57 56 53 51 53 48 45 39 43 47 52 58 68 71 71 70 67 64 63 66 71 77 80 78 76 74 71 69 68 67 69 68 65 60 55 51 49 51 54 57 62 65
92 89 89 91 92 91 90 83 69 50 41 34 36 37 38 40 41 36 27 23 24 26 27 29 30 31 33 35 37 37 37 38 42 45 46 49 57 63 68 71 72 73 75 73 71 67 63 62 62 63 65 66 65 64
84 83 85 88 88 82 74 60 46 41 40 37 35 37 37 35 38 38 32 28 26 29 31 31 30 28 26 25 23 21 20 21 22 24 26 29 31 32 35 39 42 46 49 57 64 68 68 66 65 65 64 63 61 60
77 74 69 73 72 63 50 44 41 35 33 34 38 39 39 37 39 37 35 34 33 32 32 32 31 31 29 28 24 21 20 18 17 16 15 17 19 22 25 25 25 26 27 31 38 44 50 56 60 61 59 57 56 56
65 59 52 50 47 45 44 42 42 43 43 43 42 40 37 34 32 30 29 27 26 24 23 23 23 22 22 21 20 20 20 20 20 20 20 18 18 18 17 18 20 22 24 27 30 32 34 36 41 48 53 55 57 53
61 58 56 58 57 56 56 53 50 47 42 37 34 32 28 26 22 21 21 20 20 21 20 20 21 21 21 21 21 19 19 19 19 18 17 17 18 19 21 20 19 19 20 21 22 26 30 34 40 48 53 51 43 40
64 62 60 56 52 48 45 42 38 33 29 27 25 24 24 24 24 22 23 24 25 25 27 26 25 24 25 24 23 23 22 21 21 20 20 19 19 18 19 20 20 20 20 22 24 28 34 38 40 39 38 42 47 50
56 55 52 48 43 38 36 32 32 32 30 28 27 28 30 33 33 30 31 33 34 34 35 37 35 33 33 33 32 31 29 27 25 23 22 21 21 21 21 22 22 21 22 26 28 29 26 28 37 44 48 53 56 58

GFSWCAN_prec_cthk_075.txt.gz
RH
95 84 74 68 52 46 35 34 32 27 39 35 30 30 35 32 29 32 35 38 37 35 32 39 41 46 51 55 59 64 72 80 93 98 95 98 89 73 69 68 71 75 82 83 84 83 74 52 55 59 58 61 64 61
95 86 72 60 55 42 35 35 29 35 40 32 32 34 32 31 31 34 36 39 40 41 34 37 39 44 48 55 64 75 79 81 95 97 96 96 98 83 71 70 66 69 66 74 72 65 55 55 54 55 54 57 66 67
93 76 68 60 50 37 36 31 33 50 33 30 34 30 36 37 38 40 37 42 46 44 37 35 34 39 49 57 63 71 67 66 75 83 90 94 96 96 88 72 64 63 62 66 68 61 60 58 58 60 59 62 66 72
84 73 67 53 43 43 39 38 50 52 32 32 29 39 38 43 46 41 46 48 48 50 51 35 38 42 44 55 66 70 72 70 64 76 89 93 93 96 95 88 76 63 64 61 62 65 67 66 65 63 62 64 65 68
82 70 61 46 56 47 37 39 50 37 30 35 35 39 41 49 47 46 52 49 49 53 55 41 41 43 48 66 77 79 79 74 76 66 73 90 92 96 94 97 80 63 59 63 58 51 51 57 63 64 66 66 67 68
76 68 50 51 37 37 41 50 44 35 39 39 39 40 42 46 52 47 51 48 43 55 59 49 48 47 72 82 86 85 77 78 68 63 62 81 87 97 96 94 81 77 68 62 59 54 54 58 60 63 64 70 71 70
68 63 56 39 38 43 53 47 38 38 43 43 42 36 32 44 42 42 49 51 49 58 60 55 56 61 72 77 86 87 86 86 77 64 65 69 86 98 95 88 85 83 82 72 65 60 57 58 59 61 66 69 71 71
61 46 46 41 49 53 45 40 40 49 49 45 36 35 33 35 37 38 49 51 50 61 63 66 65 66 79 86 93 96 89 92 92 75 67 81 83 85 87 72 74 84 81 76 70 66 61 57 59 59 60 64 64 62
57 49 44 51 55 49 44 44 50 54 46 44 41 32 34 34 39 47 51 50 54 62 67 72 80 83 80 89 96 96 92 93 94 87 59 71 81 93 78 77 78 85 87 81 77 75 68 60 59 60 59 59 58 58
45 49 53 53 50 48 51 52 55 55 50 45 39 31 34 37 40 44 52 58 61 62 74 85 94 94 88 89 91 90 90 93 97 93 61 60 71 60 64 86 89 90 86 85 83 81 76 68 64 64 64 63 62 61
57 62 57 55 55 55 55 59 61 56 48 41 32 31 34 38 43 52 57 59 62 66 76 91 97 98 96 93 92 95 94 95 98 95 86 91 89 79 74 77 85 87 86 86 86 84 80 76 73 69 67 64 63 63
59 58 59 62 60 59 64 68 61 53 39 32 30 37 41 47 54 56 57 61 67 73 85 94 96 95 98 97 95 95 96 98 98 94 97 98 98 97 93 85 81 81 84 86 89 86 83 80 77 76 73 72 70 71
67 68 68 67 65 66 67 66 53 41 36 37 38 44 47 52 56 55 56 63 71 78 89 96 93 92 97 97 95 98 98 98 98 99 98 98 96 93 91 89 88 89 91 89 86 84 83 83 81 81 82 82 81 83
77 75 72 71 72 69 60 52 46 43 40 43 48 50 48 51 50 50 55 61 72 86 91 94 90 88 91 95 97 98 98 98 98 97 97 95 92 88 89 92 93 95 94 93 91 90 89 89 89 91 94 95 96 96
81 79 80 82 69 58 53 50 49 45 44 44 46 46 45 42 47 56 62 75 84 88 87 89 87 89 92 93 95 97 97 97 97 98 96 94 94 95 94 98 98 98 98 98 98 97 96 96 95 93 89 86 82 79
82 81 78 70 56 54 56 54 50 52 51 51 48 47 47 51 50 59 76 82 84 87 85 87 95 96 95 94 94 95 96 97 98 98 93 96 92 94 95 98 98 98 97 89 84 84 83 82 82 80 77 74 71 68
73 76 58 52 54 58 57 55 55 60 56 54 50 49 51 54 59 70 78 84 90 86 89 92 96 97 94 94 92 91 92 94 97 97 92 94 95 95 95 97 98 95 81 81 82 82 80 77 74 71 67 61 57 54
65 58 55 61 62 64 61 55 59 60 56 50 50 53 55 63 71 79 84 87 85 87 89 94 92 90 91 91 89 89 91 94 96 93 92 91 90 89 91 96 95 87 80 80 78 72 67 63 59 53 48 43 42 38
55 56 62 66 60 59 61 62 59 60 56 52 53 57 62 69 77 80 83 89 89 90 89 90 88 90 88 86 87 90 93 95 95 94 94 92 91 83 77 77 75 71 66 66 65 62 57 47 41 36 23 21 26 27
59 63 63 62 65 67 68 66 61 61 56 56 58 62 73 77 80 79 79 88 88 91 90 85 76 79 88 89 91 92 94 94 95 97 93 95 94 91 85 81 77 74 72 67 63 59 56 54 45 40 33 22 21 20
59 58 59 63 65 64 63 61 60 65 69 63 65 71 78 82 77 77 81 88 91 89 88 79 72 69 68 78 86 93 93 88 85 84 86 88 88 90 90 86 84 82 74 67 63 63 59 56 54 47 31 24 23 23
59 60 63 67 67 68 67 65 70 76 82 84 87 88 88 86 85 84 87 88 84 78 78 74 67 65 63 65 70 81 86 87 85 81 77 76 77 77 77 77 75 73 70 68 66 63 60 59 57 55 42 26 21 22
59 60 66 70 71 72 73 77 86 90 90 91 92 91 89 88 86 86 85 80 73 68 67 64 62 62 64 66 69 71 72 75 75 74 72 70 68 68 74 77 76 74 71 70 72 67 63 63 63 62 50 42 34 28
65 69 72 75 76 78 79 86 94 94 93 96 96 96 94 91 87 87 82 74 66 64 63 63 62 63 67 71 70 69 68 68 72 74 72 71 70 69 71 72 71 71 71 72 71 69 69 69 68 64 55 49 45 43
71 78 77 78 80 82 87 95 94 92 96 97 97 93 87 87 88 85 78 68 64 60 58 58 62 66 74 78 81 81 81 80 82 83 83 80 77 74 75 76 76 76 75 73 73 76 77 73 68 62 56 50 47 49
77 80 77 79 83 89 92 91 94 96 95 93 87 82 78 74 70 57 50 40 38 35 35 39 48 57 60 59 59 59 58 56 56 57 60 63 70 79 81 78 76 73 74 71 71 71 70 66 60 56 53 54 56 60
88 85 87 86 90 91 93 94 95 94 89 73 66 64 54 46 39 34 30 25 23 24 25 24 23 25 26 25 30 34 36 37 39 41 42 42 42 43 43 43 47 53 57 61 65 67 67 65 63 62 63 63 63 64
88 88 86 92 96 97 97 93 86 72 53 42 41 40 35 30 31 31 29 28 26 27 29 31 32 33 32 32 31 29 27 24 22 21 19 20 22 25 30 32 32 32 32 34 36 38 39 42 45 46 49 52 56 59
87 86 89 97 97 93 87 77 61 49 42 40 42 40 36 32 30 28 28 30 30 30 31 32 32 33 32 31 29 28 27 26 25 23 20 17 16 15 16 16 17 22 25 26 27 27 28 30 34 37 36 36 37 41
88 87 86 87 82 76 66 59 51 43 38 37 35 34 35 34 33 31 30 28 27 26 24 23 22 22 22 22 22 22 22 22 22 22 20 20 21 20 20 19 19 18 18 19 21 22 22 23 25 26 28 29 32 38
72 64 57 53 50 49 46 43 42 44 47 49 48 44 38 33 27 23 21 20 21 21 22 22 23 24 23 23 22 21 22 23 22 22 22 21 21 21 20 20 20 20 20 21 21 21 21 22 24 25 28 32 38 39
60 59 59 61 63 62 59 56 53 48 42 37 31 28 26 24 24 22 22 23 24 25 26 27 28 29 29 29 29 29 27 26 26 25 25 24 23 22 22 22 21 21 21 21 21 20 20 21 25 30 33 29 27 32
67 65 63 59 55 51 47 41 38 35 30 27 25 24 25 27 29 28 29 31 33 37 40 42 43 45 47 47 47 48 47 44 42 39 35 32 28 26 25 25 24 23 23 24 24 25 25 27 26 25 27 30 34 42

GFSWCAN_prec_cthk_078.txt.gz
RH
98 98 98 95 91 83 75 57 50 42 28 23 22 28 37 37 35 36 37 38 35 35 32 35 34 38 43 47 50 54 60 82 86 90 96 92 91 90 89 81 77 77 86 83 86 89 82 63 63 63 57 60 60 61
98 98 97 95 93 86 70 63 52 36 26 25 27 33 39 37 37 38 43 43 42 40 36 36 32 36 41 49 60 65 70 74 79 91 94 94 98 96 93 92 79 73 68 75 76 72 68 61 58 59 59 56 61 64
98 97 96 95 91 84 74 64 45 34 24 27 34 36 44 42 40 46 46 46 46 50 39 31 30 37 43 44 56 69 73 69 71 72 83 91 97 97 98 94 89 74 66 67 69 66 68 64 61 61 58 60 63 65
99 96 91 95 92 89 74 58 45 31 28 37 37 42 51 47 49 54 49 46 50 50 48 31 35 39 43 44 57 72 78 79 75 71 70 76 91 93 93 95 94 86 72 65 63 62 70 72 70 64 61 62 64 64
99 96 89 98 96 87 72 56 44 40 41 46 43 48 54 52 61 57 55 46 49 48 49 36 35 40 47 56 66 77 81 79 79 82 71 72 68 79 85 91 93 86 81 69 63 62 59 63 67 69 67 67 67 68
99 98 98 95 95 79 65 53 43 41 45 49 52 57 56 62 61 55 56 44 47 47 51 44 40 45 54 61 68 77 82 85 83 85 83 62 51 66 82 86 85 86 85 78 68 66 61 58 59 60 62 66 71 72
97 96 96 95 87 71 58 43 38 44 46 53 54 52 50 51 47 52 45 38 45 52 49 46 44 43 48 65 74 80 84 85 85 87 86 78 60 75 74 75 79 79 87 83 73 67 67 66 63 62 63 65 67 72
95 93 97 93 77 61 44 45 47 47 51 52 51 52 53 50 49 54 49 42 50 52 49 51 51 53 64 76 83 86 85 86 87 93 89 87 65 65 64 63 73 81 86 82 82 76 71 70 68 65 64 63 65 70
98 96 92 79 62 48 50 46 44 49 54 52 56 53 53 55 53 43 43 47 49 50 50 54 66 70 76 81 84 87 86 83 83 91 86 80 73 67 48 58 69 79 84 86 80 77 75 73 74 69 67 66 63 61
97 93 75 54 49 52 46 44 50 57 56 56 58 61 61 57 47 40 45 48 49 51 53 60 74 80 82 82 85 85 85 83 87 93 96 91 64 44 51 76 82 87 86 87 85 83 80 79 79 75 71 70 68 66
86 61 55 61 53 51 54 57 60 62 61 65 63 62 53 44 42 44 49 49 52 52 57 65 76 81 87 88 90 90 88 87 86 96 97 96 96 75 67 78 78 82 86 90 86 84 81 83 84 84 80 74 71 68
63 61 54 54 56 57 61 65 68 68 67 65 61 54 47 41 47 48 50 50 52 55 58 67 78 85 89 91 91 94 93 92 92 97 98 98 99 99 90 76 84 80 85 87 86 86 85 87 88 88 86 81 78 75
68 62 59 59 64 68 71 74 73 74 72 65 55 46 43 48 51 47 47 48 53 55 60 73 83 89 90 92 92 94 94 95 98 98 98 99 98 98 98 98 97 91 88 85 86 86 86 88 86 87 89 89 87 86
59 63 67 71 75 75 76 80 78 70 64 53 47 50 48 49 43 41 42 46 50 62 70 74 83 89 90 96 98 96 94 95 96 96 96 97 97 97 97 98 97 96 94 94 93 92 92 92 92 91 91 91 90 88
79 81 79 81 82 84 88 84 74 64 53 49 49 50 49 44 41 43 45 51 57 67 73 75 83 90 94 96 98 97 95 96 97 96 97 95 98 97 98 98 98 98 98 98 97 97 97 97 97 96 95 94 88 82
85 86 86 87 88 85 83 78 69 62 60 52 51 49 46 43 41 44 48 54 63 70 75 78 85 91 97 97 97 98 97 96 94 93 94 96 97 96 98 98 98 99 98 95 93 91 90 89 87 84 81 78 74 71
90 88 88 91 82 81 77 74 75 72 64 59 52 45 44 44 45 47 52 59 64 74 78 82 87 90 96 97 98 97 96 91 90 90 89 91 97 98 98 98 98 97 92 90 90 89 85 81 77 72 65 61 59 57
89 88 79 72 77 80 84 77 68 71 71 58 46 41 44 48 50 54 58 62 71 76 82 87 86 88 91 94 94 95 95 94 92 92 92 89 90 93 96 98 98 96 90 89 89 79 70 67 61 51 41 33 30 37
73 73 71 69 70 71 75 72 70 72 66 60 48 46 46 48 53 58 64 68 73 79 83 84 85 83 82 84 90 91 93 95 95 97 95 94 90 89 88 87 92 91 83 76 72 69 64 60 56 53 41 32 27 22
71 71 80 79 74 74 76 74 69 68 67 59 56 58 58 56 57 63 68 73 78 78 79 82 83 80 81 81 85 89 94 95 93 90 93 97 97 95 93 93 89 85 84 80 76 68 65 64 62 59 55 44 31 24
69 74 78 80 77 73 70 72 73 71 62 58 58 60 59 59 61 63 74 79 77 72 76 76 78 78 84 83 75 72 84 92 91 90 88 84 82 82 84 86 90 89 86 84 78 73 70 67 64 61 61 55 45 35
66 69 70 73 77 74 74 72 71 66 66 67 68 69 72 73 73 77 79 80 72 71 70 70 73 77 81 81 74 70 70 72 78 84 83 80 78 75 72 74 78 78 79 78 75 75 69 68 65 64 66 64 56 47
69 71 71 73 76 78 79 76 74 73 74 74 75 74 74 76 79 79 77 74 71 67 66 65 66 67 69 69 66 63 65 67 67 66 66 71 72 72 72 69 68 73 76 78 77 76 77 77 74 73 72 72 63 52
72 77 77 76 77 76 74 79 77 75 75 75 78 77 79 83 85 85 82 74 67 66 69 69 66 64 63 61 64 64 61 63 66 68 68 68 68 71 73 74 74 74 75 74 75 74 74 73 73 75 75 74 66 56
77 82 82 80 75 75 75 70 72 74 78 81 84 87 85 87 87 85 81 73 69 68 63 58 55 55 57 61 64 66 66 65 64 65 66 69 74 77 80 81 78 76 77 78 78 80 81 81 80 77 71 64 57 53
70 72 70 71 72 70 70 72 76 81 84 91 91 87 86 87 88 82 77 63 55 47 42 40 41 42 46 46 41 43 48 51 54 55 58 59 54 53 55 58 65 72 76 77 78 78 78 78 76 74 69 64 60 59
74 75 72 69 69 71 76 79 84 91 94 91 85 87 84 81 70 60 47 38 31 26 25 25 25 25 27 29 26 26 28 28 27 30 30 31 36 39 40 40 38 38 40 41 42 43 46 47 47 47 46 44 44 43
77 77 76 79 81 84 88 93 96 94 89 81 79 76 69 49 37 36 30 26 23 24 26 29 32 32 33 35 35 35 34 31 29 27 25 22 20 21 21 22 26 28 31 31 32 32 31 30 30 31 31 32 32 32
79 80 81 86 90 93 93 89 85 80 74 64 54 47 40 34 31 28 28 29 30 30 29 28 28 28 29 28 29 29 28 26 25 24 23 23 23 22 21 19 18 17 17 17 18 21 24 26 27 27 28 30 33 34
83 82 86 92 91 88 88 85 75 67 60 52 44 38 35 33 34 34 33 31 29 29 28 27 26 24 23 22 22 21 22 21 21 20 20 20 21 23 23 23 22 21 21 21 21 21 20 20 21 21 24 26 27 27
86 85 85 86 85 80 75 70 64 59 54 48 43 41 40 42 42 39 37 33 27 24 23 23 24 25 25 25 24 23 23 24 24 24 23 23 22 22 23 23 24 23 23 22 22 22 21 21 22 22 22 23 24 26
80 73 69 64 62 58 55 51 50 49 49 52 52 49 43 35 27 22 22 24 25 27 28 30 30 30 31 30 31 33 32 33 36 36 35 33 32 30 28 27 26 26 25 26 26 24 24 24 24 24 25 27 31 27
62 60 61 62 66 68 65 58 55 52 47 40 34 29 27 25 24 25 27 27 28 31 34 35 36 35 36 40 44 49 56 61 65 65 66 62 59 54 48 44 38 34 31 29 28 28 27 27 27 27 28 27 27 30

GFSWCAN_prec_cthk_081.txt.gz
RH
85 95 95 95 98 97 94 90 77 72 61 41 32 34 31 27 29 32 38 39 41 42 38 37 34 34 40 43 47 48 49 59 64 77 81 93 84 87 89 85 91 88 93 91 94 93 84 63 68 71 63 63 64 62
84 90 98 98 99 97 94 89 84 75 64 42 33 39 32 26 32 35 44 44 47 45 42 36 31 35 37 43 46 54 57 62 64 69 74 83 92 92 89 88 92 94 85 84 77 69 63 64 66 63 63 62 63 66
84 91 99 97 99 97 95 93 88 79 60 44 40 35 30 32 36 40 51 55 54 48 41 32 29 34 36 39 45 54 65 68 68 67 66 66 77 91 96 92 94 97 90 82 73 64 66 65 66 66 65 64 65 65
82 90 99 98 98 97 95 96 90 77 58 50 37 32 33 38 40 52 60 61 62 53 41 30 32 36 38 42 48 57 68 74 75 74 74 73 65 69 80 89 85 91 92 86 72 64 64 63 66 68 65 65 65 67
81 91 99 99 99 97 97 95 85 76 62 43 34 38 42 42 52 67 67 67 58 51 44 38 36 39 40 42 51 59 65 75 80 79 82 80 77 69 59 66 70 72 77 84 83 73 67 60 60 64 69 71 72 72
81 94 99 99 98 97 97 96 86 73 55 47 44 43 45 51 66 69 68 62 57 48 45 42 36 38 39 40 48 58 67 76 81 80 84 83 81 78 67 61 54 66 71 81 86 83 69 65 62 60 66 70 72 75
79 96 99 98 98 99 98 94 81 68 58 50 47 47 53 66 67 68 62 56 52 46 46 43 40 37 42 51 60 68 76 79 80 81 87 87 85 82 80 65 44 74 79 92 90 88 82 72 66 65 62 64 67 72
76 95 99 98 98 98 97 92 77 61 57 56 50 50 58 67 63 66 63 57 48 43 44 41 41 42 52 59 67 74 79 78 81 84 88 90 94 81 68 53 42 58 69 78 93 87 87 81 71 68 66 64 64 68
80 96 98 98 98 97 95 80 66 63 56 46 42 51 67 69 70 62 61 50 44 42 43 43 50 53 54 60 71 78 80 78 78 84 85 92 94 84 52 50 49 58 65 78 91 93 91 86 80 78 76 70 68 68
96 98 96 98 98 95 77 69 65 53 44 47 58 71 75 73 68 64 56 46 44 48 47 47 54 58 60 65 74 81 83 80 81 80 83 89 89 87 62 50 55 66 84 93 95 92 91 88 85 85 83 80 75 72
99 97 98 98 96 81 71 61 50 48 52 60 69 76 74 78 72 58 49 47 47 44 47 48 51 59 67 71 80 87 87 84 84 84 88 92 91 95 86 67 64 72 80 83 86 92 92 91 89 88 89 89 87 81
98 98 99 95 76 67 58 51 53 60 66 67 73 76 81 76 64 50 50 48 44 44 44 48 51 60 68 75 85 89 90 91 88 90 94 96 98 98 96 91 89 88 86 89 95 95 94 94 93 92 93 93 92 89
98 97 89 77 67 58 57 59 68 73 75 79 79 81 75 68 58 50 51 44 43 42 44 50 60 63 72 83 88 93 93 92 91 92 93 96 97 98 98 98 88 94 91 91 93 94 93 91 91 90 91 92 92 93
91 79 70 62 62 65 73 77 78 79 76 78 78 75 64 60 52 49 43 39 38 44 50 55 59 61 72 83 92 92 94 95 96 96 94 94 96 98 98 98 98 95 93 93 95 95 95 95 96 95 94 93 94 93
68 67 68 71 78 79 81 82 86 84 80 73 68 65 60 51 49 46 41 40 43 49 54 55 60 66 78 86 91 93 96 96 97 96 95 94 95 96 98 98 98 98 98 98 99 98 98 98 97 96 94 91 84 78
72 84 92 92 89 89 91 91 87 83 75 66 63 60 58 55 52 48 40 40 45 52 56 58 66 75 83 89 92 91 94 97 94 91 92 91 94 96 98 98 98 98 98 98 97 97 96 94 91 88 84 79 75 70
94 95 97 95 96 95 90 84 79 76 71 66 63 61 57 53 48 40 38 43 47 55 58 62 72 77 83 87 89 92 94 94 90 90 89 89 90 95 98 98 98 98 98 97 95 90 87 84 80 74 67 60 55 51
94 95 96 97 94 94 88 81 78 78 78 72 69 63 59 53 49 46 44 49 53 56 60 67 72 79 80 82 84 89 92 90 90 92 91 89 91 93 92 98 98 98 98 95 96 86 78 73 67 59 51 39 30 23
97 96 94 92 86 88 89 88 82 82 79 71 63 60 58 54 50 51 52 53 56 61 67 70 73 74 74 74 73 77 81 88 90 91 88 90 94 96 95 91 93 97 94 91 85 81 75 67 62 60 58 54 47 38
89 83 82 78 82 84 86 84 79 72 70 64 62 65 62 59 55 52 53 56 59 64 68 68 68 70 69 72 77 82 84 79 83 87 86 82 84 89 92 95 97 96 93 92 90 86 81 72 69 67 64 60 58 51
96 94 90 85 85 82 81 82 74 70 68 67 69 69 64 61 58 56 55 60 62 59 64 71 68 66 66 71 78 82 83 78 75 75 78 82 86 84 84 83 81 81 84 88 89 86 82 78 76 74 68 65 65 65
86 89 90 92 87 79 76 74 72 71 71 72 70 69 66 65 66 66 65 65 61 60 65 64 65 66 66 71 74 78 81 83 78 71 67 67 72 74 76 76 76 76 77 79 80 80 82 81 78 77 77 75 71 72
85 88 87 84 82 78 77 75 72 71 74 72 69 68 67 68 67 66 67 65 62 62 61 63 67 67 66 66 67 68 68 68 67 64 59 57 58 61 63 68 72 73 74 76 79 79 80 80 79 80 80 78 77 77
75 78 78 77 76 77 73 77 77 77 74 71 69 69 69 70 71 73 71 67 65 67 68 69 69 68 67 65 63 61 62 61 57 58 59 60 62 65 68 69 69 70 75 78 80 80 81 81 80 80 80 82 83 82
74 78 76 74 73 75 75 76 75 73 71 72 73 73 75 79 79 77 74 72 69 69 70 70 69 64 60 59 59 59 60 57 52 47 46 48 49 50 54 58 66 74 78 78 78 80 81 82 82 81 81 78 75 70
73 77 75 76 76 72 72 72 73 73 74 78 79 81 82 82 82 78 75 70 61 55 52 48 51 49 46 41 33 32 32 29 28 30 34 40 39 40 42 46 46 47 48 50 54 61 68 73 75 75 73 69 62 56
75 76 73 67 70 69 71 72 73 75 79 81 82 84 82 84 79 73 69 60 52 45 38 33 30 30 31 33 33 31 28 28 28 28 28 28 29 29 28 27 29 36 38 39 39 37 38 40 40 41 41 40 38 35
66 64 63 66 68 71 75 76 78 80 79 77 79 84 83 78 61 50 50 46 40 36 30 27 28 31 35 36 35 35 35 35 34 33 33 32 31 26 24 23 22 20 19 21 27 31 32 32 31 30 29 29 30 31
69 68 70 76 77 77 78 79 79 79 77 78 81 79 71 61 51 46 40 38 36 32 28 28 30 31 31 30 28 26 25 24 23 22 21 20 21 23 22 21 22 23 23 22 20 19 19 21 22 24 26 27 27 27
71 73 74 76 77 77 77 79 78 78 76 72 63 55 49 45 40 36 34 33 32 33 33 34 33 33 32 29 26 25 24 24 24 25 23 23 22 22 22 22 22 23 23 23 23 23 23 23 22 22 23 23 24 23
75 75 76 79 81 81 82 83 77 72 66 61 55 51 46 42 40 40 41 42 44 42 38 34 33 31 31 30 30 29 29 30 29 29 29 28 30 31 31 30 28 26 25 24 25 26 25 24 24 24 23 24 25 24
80 80 82 85 84 77 73 71 68 65 62 61 58 54 51 50 47 45 40 34 31 31 30 32 33 33 31 29 27 25 25 28 31 34 37 41 44 48 51 50 48 45 41 36 32 30 29 29 28 28 28 27 27 27
79 78 75 68 63 60 57 57 58 61 62 60 56 49 41 34 30 27 27 28 29 30 32 34 36 35 31 30 31 33 38 45 46 46 45 44 47 54 63 70 76 78 74 66 54 45 39 35 33 32 31 31 30 28

GFSWCAN_prec_cthk_084.txt.gz
RH
98 97 93 99 98 99 99 97 92 87 72 65 55 42 40 34 32 31 32 31 31 41 48 46 43 34 36 38 40 40 46 50 52 61 67 72 75 75 85 87 96 93 96 93 90 89 78 64 66 63 59 64 63 62
98 97 93 96 99 98 98 97 93 87 79 69 59 48 44 34 31 33 33 36 38 43 47 50 41 36 38 40 41 44 49 52 54 56 58 58 70 75 81 79 84 89 85 84 80 70 65 63 63 63 63 65 63 65
98 99 95 95 98 99 99 97 94 89 80 76 64 51 41 36 34 36 34 43 45 48 53 45 38 37 38 39 43 48 52 57 59 63 64 67 68 61 60 72 76 87 96 92 83 70 68 67 66 67 67 68 64 64
98 98 96 95 98 99 99 97 94 92 91 85 67 48 41 40 40 37 39 48 52 50 50 42 38 37 37 38 42 48 54 58 62 66 72 72 74 73 67 61 70 79 90 96 86 78 73 69 65 68 69 68 65 66
97 96 91 94 97 99 99 97 95 96 93 82 63 49 44 49 45 42 54 56 53 53 49 45 37 37 35 32 35 43 55 62 66 70 74 76 79 79 75 71 57 55 66 83 89 89 78 71 65 65 65 69 70 72
98 97 92 92 99 98 98 97 97 96 92 78 60 50 54 53 46 55 64 62 54 55 45 40 36 35 33 37 43 45 54 65 70 73 75 78 78 84 81 70 62 53 52 65 74 80 88 78 68 65 63 63 70 75
98 97 88 93 98 98 98 98 97 97 91 68 62 57 57 54 54 61 61 58 57 50 43 42 37 35 38 46 54 57 63 68 71 73 77 80 81 88 89 66 62 56 67 71 76 81 90 87 80 71 68 64 67 72
98 97 92 96 99 99 99 98 98 97 86 72 64 69 62 61 64 72 67 66 60 48 41 38 37 39 44 49 55 59 66 68 74 74 79 81 83 89 90 65 58 55 62 72 71 72 95 89 86 82 72 67 68 71
98 98 89 91 98 98 97 98 98 97 81 71 71 62 57 64 73 71 72 66 59 46 41 39 40 45 46 51 57 62 66 70 73 75 79 82 80 87 91 71 59 52 64 62 72 87 97 90 88 87 83 79 76 73
98 95 90 97 98 98 99 97 95 85 75 71 61 51 68 78 77 75 74 67 55 48 42 39 43 46 46 52 57 62 71 73 76 73 80 84 81 79 95 84 58 53 61 67 78 87 93 93 92 90 88 85 84 82
98 93 88 98 99 98 98 98 91 82 73 57 61 72 79 86 81 77 73 61 52 47 43 42 42 43 50 53 58 65 72 75 79 78 84 83 85 89 96 96 66 54 67 75 75 83 94 97 94 92 92 92 92 91
98 94 85 89 95 99 99 95 85 70 62 62 68 78 85 86 80 75 69 58 48 43 41 42 42 47 52 55 61 67 74 80 81 84 88 85 89 92 95 98 86 77 81 87 92 96 96 97 96 96 96 96 96 96
99 98 91 89 97 98 95 78 72 68 59 72 78 81 85 84 77 62 60 52 47 42 42 40 47 49 55 60 62 70 77 81 86 88 88 87 92 93 98 98 98 93 94 96 98 99 97 97 96 97 95 95 94 94
98 98 96 97 98 90 77 72 63 65 77 79 82 91 81 75 66 58 47 43 42 43 40 44 48 48 54 59 66 72 73 86 89 92 91 90 92 91 95 98 98 95 93 96 95 95 96 96 96 95 96 96 95 96
98 98 98 96 83 74 68 67 75 81 79 85 86 79 77 66 57 52 48 50 51 45 42 46 48 51 55 62 68 75 80 83 89 91 89 90 91 89 90 96 98 98 97 97 97 97 98 98 98 97 94 92 87 84
99 94 82 74 71 70 78 82 86 86 89 82 75 72 67 60 56 55 54 55 50 45 44 46 52 53 57 66 72 74 81 83 86 87 86 88 87 87 90 94 97 98 98 98 98 97 96 94 91 87 81 77 73 70
87 83 77 81 84 89 91 92 92 94 89 83 78 68 57 55 56 58 56 53 48 46 46 48 49 52 60 69 71 72 75 82 82 85 86 88 89 87 91 96 97 98 98 98 98 92 90 87 84 79 73 64 54 47
92 95 96 96 95 95 96 96 89 86 83 81 74 69 66 63 59 58 55 53 53 49 46 49 51 55 58 64 64 65 75 81 84 86 88 85 89 89 92 94 97 98 98 98 97 92 87 85 81 73 66 59 50 42
96 95 95 96 96 95 93 90 83 80 80 81 76 71 68 67 66 61 58 58 57 55 55 51 51 51 55 57 55 59 69 74 78 79 85 84 86 85 90 95 95 96 98 97 97 96 88 84 78 72 70 67 61 56
97 97 97 97 91 89 90 87 84 82 87 85 76 74 70 67 66 63 62 61 61 61 56 51 46 50 54 57 58 64 72 77 79 78 77 78 83 85 85 85 87 88 93 97 97 96 94 89 85 77 75 73 66 64
96 95 93 89 86 85 86 87 88 86 82 74 72 71 71 70 70 69 67 64 65 60 53 46 42 47 53 60 63 68 72 78 81 84 80 73 70 70 75 77 78 77 78 81 82 85 87 88 87 83 80 78 76 73
94 91 92 90 88 85 90 90 87 81 76 74 74 74 75 73 70 67 67 67 61 49 48 46 47 51 57 60 64 65 71 76 80 83 83 83 80 69 62 62 67 69 69 70 69 76 79 80 82 84 83 81 83 83
95 97 97 97 94 91 92 87 81 76 74 75 76 76 75 73 70 66 62 55 48 46 46 46 49 52 56 59 65 68 70 70 72 75 75 72 63 59 57 58 59 58 59 60 67 71 76 81 82 82 82 83 83 81
93 96 96 93 90 90 84 81 81 79 77 76 72 71 68 65 62 60 56 50 46 44 46 49 54 59 63 65 67 67 68 69 69 67 62 60 57 53 52 52 52 55 57 62 65 67 71 78 82 84 85 85 86 88
98 96 92 87 84 81 80 78 78 77 76 74 72 70 65 62 61 61 57 49 48 48 53 57 64 67 67 66 67 67 67 67 64 61 53 50 49 45 40 39 39 38 38 44 51 62 73 79 80 80 82 83 84 82
86 85 80 79 76 72 72 73 71 69 70 72 71 67 65 65 64 58 55 54 53 49 52 53 55 58 57 54 53 49 41 34 29 28 31 30 29 28 26 24 24 23 29 31 33 37 40 42 46 52 57 60 60 58
77 76 73 71 73 71 71 70 70 69 70 70 70 66 64 64 60 56 57 60 58 50 44 44 46 47 45 43 39 34 31 30 29 29 30 31 32 32 30 28 25 22 20 20 22 25 28 34 38 39 38 37 36 35
71 69 68 68 66 65 66 64 62 61 61 62 62 64 63 61 59 63 55 65 65 55 51 42 37 38 36 33 33 33 33 33 32 31 31 31 30 27 25 24 22 22 22 22 23 23 22 20 22 28 33 34 32 31
65 63 62 65 63 61 60 61 62 63 64 64 66 68 66 67 71 59 49 48 46 41 38 38 39 37 34 30 27 26 28 29 29 26 24 24 23 24 24 24 24 24 22 21 20 20 21 22 23 22 22 21 22 25
63 61 61 63 62 64 63 64 63 65 67 69 70 70 71 71 63 54 47 41 37 37 38 39 39 38 36 35 36 38 37 34 33 32 31 30 30 29 29 28 28 28 28 27 25 24 23 23 23 23 25 26 27 26
60 60 61 63 64 64 65 67 70 73 75 76 71 63 57 52 48 44 42 40 42 45 44 43 43 42 41 37 34 30 28 27 27 28 27 26 26 26 27 29 31 33 35 37 39 39 35 29 27 26 26 27 28 28
65 64 65 68 71 72 73 77 76 70 66 62 59 56 54 52 49 48 47 47 48 48 43 38 35 33 33 32 31 30 30 30 29 28 28 30 33 37 41 45 47 48 49 50 50 51 54 57 51 40 35 32 31 30
72 69 71 74 77 73 68 65 64 63 63 63 63 63 62 56 48 40 37 34 34 34 33 32 31 31 32 34 36 37 36 35 37 42 49 56 61 63 63 63 67 72 77 78 78 74 70 71 75 71 60 47 40 36

GFSWCAN_prec_cthk_087.txt.gz
RH
76 94 98 98 99 96 98 99 98 91 74 68 59 53 42 41 49 41 40 33 32 36 41 36 38 44 38 35 34 35 41 46 47 53 54 58 61 60 70 72 84 91 90 94 94 93 81 64 67 66 65 63 60 59
76 94 98 98 98 98 99 99 96 88 80 74 64 48 44 45 43 46 39 34 34 40 46 40 41 46 38 37 37 35 43 43 47 52 55 56 57 58 62 63 73 81 83 92 83 79 75 72 66 66 65 65 65 66
72 91 97 98 98 96 97 99 95 90 89 81 63 53 52 46 42 46 38 34 38 48 47 45 49 44 38 37 38 42 46 48 51 53 57 61 65 64 61 53 56 68 78 83 77 73 75 75 70 68 70 68 70 66
70 90 95 98 99 98 95 99 96 94 92 88 73 57 48 45 47 47 40 40 44 47 46 52 51 48 39 36 36 42 47 49 53 57 62 65 67 68 66 63 64 58 64 79 79 79 79 77 73 72 72 71 69 68
68 89 96 98 99 98 99 99 97 95 93 90 81 63 56 54 51 44 45 48 49 49 48 54 52 42 38 34 35 38 43 50 55 62 64 66 68 72 72 70 67 62 60 61 70 87 92 81 77 73 73 73 73 70
79 96 98 98 98 99 99 99 98 97 95 94 88 69 63 51 48 45 50 55 53 48 54 57 47 40 37 38 42 46 51 56 60 63 65 68 71 75 77 73 71 67 65 61 59 71 84 87 81 74 70 69 70 72
84 97 98 99 98 98 98 99 98 98 98 97 92 78 63 55 51 50 57 56 54 58 56 53 47 39 38 46 48 51 55 58 61 63 66 68 75 77 80 78 72 71 60 68 62 65 81 85 86 81 73 68 66 67
86 97 97 98 99 99 99 99 98 98 98 95 85 75 67 59 54 59 60 60 59 58 55 48 45 40 42 49 50 52 56 57 61 65 69 71 76 79 77 75 81 72 59 58 60 66 82 79 87 87 83 78 70 68
94 98 98 98 99 99 99 98 98 98 97 94 85 76 71 65 63 69 63 67 68 62 56 43 42 45 42 48 50 54 56 57 63 66 70 74 74 79 73 79 89 66 63 55 58 65 83 86 90 91 89 86 83 76
98 98 98 98 99 99 98 98 98 97 97 90 82 73 70 70 67 69 74 75 67 66 54 42 41 44 44 46 51 53 57 60 65 64 72 77 73 71 79 89 91 66 59 61 63 70 82 88 94 95 90 89 89 89
97 98 98 98 98 98 98 98 98 98 93 88 74 76 76 74 76 78 83 72 65 59 47 43 43 44 45 48 51 55 58 60 65 66 74 74 73 77 84 88 92 67 58 69 68 71 83 95 97 96 94 93 92 92
98 98 97 98 98 96 96 98 97 95 93 75 70 79 83 82 86 84 78 68 63 52 47 46 44 46 49 51 52 56 60 65 66 72 75 75 73 81 82 87 92 84 75 77 84 82 93 96 96 99 98 97 96 96
98 98 98 98 97 96 99 98 97 93 74 76 78 80 81 88 92 81 74 66 59 49 44 45 49 49 51 53 54 56 61 64 70 72 71 72 79 78 78 85 93 95 87 85 91 93 97 98 98 99 99 99 98 95
98 98 99 98 96 98 98 98 94 78 78 79 83 91 88 94 86 77 64 55 49 44 43 49 51 50 52 54 55 59 60 68 72 71 71 77 78 78 78 83 90 95 92 90 97 98 98 97 96 96 96 96 95 95
99 99 99 98 96 98 98 92 86 79 80 87 85 89 90 85 77 68 61 52 46 45 49 54 50 49 52 55 56 59 64 67 65 66 71 74 77 76 77 83 89 96 97 93 93 95 95 95 95 95 93 91 88 87
98 98 98 98 98 97 95 83 82 89 89 91 88 86 84 86 77 61 56 53 52 53 56 53 49 51 50 53 57 56 62 62 65 67 69 72 74 77 78 84 90 95 96 98 95 95 94 93 89 85 81 78 75 71
98 97 96 98 97 92 83 86 90 94 94 93 89 85 78 72 69 62 57 56 56 59 57 50 49 50 54 56 56 56 58 60 63 63 68 74 76 76 78 82 88 96 97 98 98 98 94 89 87 86 82 76 67 56
98 98 98 94 87 86 88 91 96 96 96 93 88 87 78 63 57 54 55 60 62 61 55 53 51 54 54 53 50 51 55 58 59 62 68 74 75 76 76 80 84 94 97 98 98 97 92 90 88 85 80 72 65 58
97 93 88 88 85 92 97 97 96 94 91 91 89 84 78 67 59 59 62 67 64 62 57 55 54 50 46 45 48 51 50 49 52 57 63 68 67 67 72 75 78 88 96 97 98 98 98 98 93 86 80 75 73 69
90 89 93 97 96 96 96 96 94 89 89 88 84 80 73 70 70 71 72 73 70 67 61 55 48 43 43 45 46 45 47 55 57 58 61 66 71 76 72 74 79 81 84 88 91 94 96 97 97 92 86 82 78 76
97 97 97 97 97 95 92 93 92 89 89 86 83 81 75 73 74 77 77 74 72 68 56 48 44 44 43 43 43 42 49 57 60 63 68 72 77 81 73 66 63 67 71 72 75 77 80 84 86 89 90 89 89 87
97 97 95 92 92 94 91 92 92 90 88 89 88 83 82 80 80 79 76 75 69 59 53 49 48 46 45 45 44 46 51 54 58 64 70 71 78 80 78 76 74 66 61 63 67 70 71 71 74 79 82 84 86 87
97 96 91 89 87 89 94 92 92 89 86 83 81 79 80 80 77 76 74 67 58 50 46 44 44 45 44 44 46 48 49 52 56 63 68 72 74 70 68 69 66 58 55 55 58 59 60 63 66 73 79 83 86 87
93 91 94 93 92 95 93 93 90 83 83 82 83 81 79 76 72 70 62 52 46 45 44 44 43 43 45 47 49 51 55 59 64 69 71 71 66 62 59 54 48 45 42 41 42 47 52 57 63 67 71 76 81 87
96 96 96 96 94 91 91 91 88 85 84 82 79 74 68 67 64 62 54 49 47 45 45 46 47 49 50 49 51 56 59 64 68 71 67 60 55 51 50 45 41 39 37 32 29 28 27 28 32 41 58 73 81 84
96 94 92 90 93 90 89 86 83 80 75 76 73 71 68 65 64 58 50 48 49 43 41 42 45 46 45 45 49 52 54 55 54 48 36 35 36 34 30 28 28 26 24 21 20 20 21 23 24 24 27 34 39 46
95 94 90 88 87 83 80 76 72 70 70 70 68 69 67 65 57 49 48 50 51 44 34 34 36 39 43 45 47 47 43 38 34 32 31 31 33 34 34 33 30 28 26 24 24 23 23 22 22 24 22 22 29 36
85 83 81 78 75 72 73 71 71 70 68 67 64 63 61 56 49 49 49 48 50 50 43 37 34 36 38 39 39 39 39 37 35 32 33 34 34 32 30 28 26 24 24 24 23 22 21 20 20 22 23 23 22 23
77 72 71 74 74 71 67 64 62 60 59 59 60 59 58 53 51 49 45 42 39 45 49 46 44 43 43 42 39 36 32 30 29 30 30 33 36 36 35 33 33 33 31 30 29 27 26 25 24 23 22 22 22 24
72 71 70 70 68 66 63 60 60 62 61 61 59 56 54 53 51 52 51 42 37 35 37 38 37 35 36 37 39 40 40 40 40 38 36 33 31 30 29 29 28 28 27 27 27 28 29 30 31 30 29 27 25 24
69 66 66 66 67 65 65 63 60 59 58 60 60 58 56 51 50 45 43 41 41 42 42 42 44 44 42 42 43 43 40 36 35 35 34 33 32 32 32 32 31 31 31 32 33 35 37 40 41 42 43 42 40 35
67 65 64 65 64 62 62 63 64 62 61 61 59 53 46 43 43 42 44 44 45 45 45 45 47 46 43 36 34 35 36 37 38 38 37 36 36 37 38 41 44 47 52 58 61 61 62 61 59 58 59 58 56 56
69 65 63 63 65 65 65 62 57 52 51 50 48 47 47 47 47 47 48 46 45 42 39 35 34 35 35 36 37 38 39 40 39 39 38 39 42 47 52 58 63 66 67 68 70 75 79 83 86 89 88 84 80 75

GFSWCAN_prec_cthk_090.txt.gz
RH
53 53 53 64 87 95 98 96 98 99 99 91 83 74 71 50 47 35 41 43 31 41 38 37 40 40 39 41 35 37 38 43 45 47 47 50 52 55 59 64 75 82 89 84 87 94 88 75 71 71 72 70 64 63
49 52 54 76 88 97 97 99 98 98 97 91 88 81 67 56 42 33 39 46 40 37 40 41 42 38 41 41 35 35 40 40 46 51 52 51 55 58 60 66 65 75 84 91 95 87 82 78 76 71 70 68 68 68
45 55 61 75 89 98 98 99 98 98 96 94 91 78 58 59 39 33 43 45 42 38 42 40 43 42 44 43 35 38 40 44 46 47 49 52 52 56 62 64 60 62 63 74 79 76 88 83 75 72 68 70 71 71
48 56 62 72 91 98 98 98 98 97 97 94 81 59 60 55 39 37 46 47 48 42 44 50 48 45 46 40 34 39 42 44 48 49 51 55 56 59 64 62 65 62 57 63 64 68 76 75 74 73 74 76 76 73
47 59 64 68 91 97 98 97 96 96 96 93 75 68 62 45 44 49 48 52 45 45 53 56 52 50 44 34 34 39 40 45 49 51 57 59 57 62 64 64 66 63 66 65 69 72 78 84 81 78 83 80 79 79
49 60 63 72 91 96 98 98 97 96 97 93 83 65 51 47 55 52 50 55 49 49 49 59 59 53 44 35 38 45 49 51 52 55 57 57 59 64 70 71 63 64 66 72 64 69 70 76 84 85 87 85 82 81
48 60 64 88 97 97 98 98 97 97 98 95 81 67 61 59 56 53 53 50 50 52 49 58 58 48 41 42 46 50 51 53 55 56 57 58 63 65 71 73 64 68 73 70 62 62 68 76 88 92 89 84 82 78
48 59 72 96 97 98 98 98 98 98 98 95 88 77 72 69 60 58 54 55 53 54 52 59 60 47 42 48 50 50 53 54 55 58 59 61 64 68 69 64 70 74 78 66 58 59 65 76 87 90 95 89 82 78
52 61 74 96 97 98 98 98 98 97 98 97 95 89 79 74 61 57 60 59 61 59 58 59 56 52 45 48 53 53 54 56 56 57 58 64 65 69 64 68 78 82 69 59 59 61 69 75 86 90 95 95 91 86
57 73 93 97 98 98 98 98 98 98 99 98 98 91 78 71 66 63 67 66 66 62 60 62 54 46 46 48 53 54 54 58 58 57 59 63 63 59 66 75 80 81 60 58 57 63 62 71 82 92 92 95 94 91
65 88 98 98 98 98 97 98 96 97 98 97 88 88 83 72 72 75 80 74 70 65 58 58 49 45 47 47 51 52 55 57 60 60 63 61 62 64 70 74 76 80 71 68 68 72 70 75 90 90 94 96 94 93
87 97 98 98 98 98 97 95 95 96 97 93 88 86 80 77 80 83 84 79 73 64 54 50 48 46 46 48 52 55 57 60 60 61 64 60 62 67 69 70 73 79 83 78 76 75 83 87 93 94 98 97 96 96
95 98 98 98 98 97 97 98 98 99 93 87 84 86 86 87 91 89 82 80 74 62 57 51 49 48 49 53 54 55 58 61 63 63 57 60 64 66 66 68 72 76 85 87 81 81 85 91 91 94 98 95 99 99
96 97 98 98 98 99 97 97 98 93 92 91 90 91 89 89 88 85 81 77 63 54 50 49 50 50 53 54 54 57 56 61 63 61 55 61 61 61 63 68 73 75 81 88 83 86 93 92 96 98 98 97 97 97
98 99 98 98 98 97 98 99 94 94 94 92 90 90 90 92 90 90 83 69 58 51 52 50 50 50 55 57 55 59 61 60 57 56 60 59 57 59 63 68 73 76 78 84 90 88 92 96 97 98 95 91 87 86
99 99 99 98 98 99 98 97 96 95 97 92 91 93 90 90 90 81 77 70 59 55 50 49 50 54 53 52 58 55 54 54 53 57 57 56 57 59 63 67 70 75 80 81 87 92 91 88 84 83 81 80 79 76
98 98 97 98 99 98 98 96 96 96 97 96 93 91 94 94 89 76 70 68 60 51 53 51 51 54 58 55 56 53 52 52 52 54 54 54 55 59 65 68 71 74 78 82 85 92 96 95 93 90 88 86 82 76
98 97 99 98 98 97 97 97 96 96 95 94 94 96 93 84 85 80 67 61 56 53 53 54 53 57 56 56 54 51 50 51 53 52 50 49 49 54 59 66 70 74 80 83 86 90 96 97 93 90 89 88 81 74
98 98 98 98 97 95 96 97 96 95 96 95 96 96 94 81 73 72 68 64 57 56 55 56 56 54 52 49 50 52 52 50 47 48 50 50 49 50 57 64 67 71 74 82 87 92 94 95 96 97 97 91 86 77
98 98 98 97 94 92 95 97 96 95 96 96 96 96 92 85 72 66 61 60 59 60 63 62 54 50 51 49 48 50 49 46 48 51 51 51 52 55 60 65 69 69 69 66 72 76 82 87 88 91 93 93 89 87
97 97 97 97 96 94 95 96 96 96 95 95 96 94 90 85 78 74 67 67 69 70 68 59 57 54 50 48 47 46 45 45 46 48 51 53 56 58 61 64 68 70 70 68 63 63 70 73 75 76 79 81 84 86
96 96 96 97 96 96 96 96 95 94 92 92 89 84 80 76 72 71 73 73 74 68 65 61 56 54 53 50 48 46 47 48 49 51 52 54 57 59 62 63 64 69 72 73 73 72 64 64 69 70 70 70 73 77
97 97 97 97 96 95 97 96 95 93 91 91 86 83 81 79 78 77 78 77 72 66 63 59 56 52 47 44 44 44 44 45 46 48 51 56 60 63 66 65 64 64 64 63 61 61 58 55 57 59 60 60 61 64
96 96 97 96 95 96 94 94 91 92 91 88 86 84 79 76 76 79 77 69 60 56 53 49 44 42 43 44 44 45 46 46 48 50 56 62 66 66 63 63 65 60 54 52 47 39 36 35 35 35 40 47 56 62
95 97 96 95 93 91 92 92 92 88 87 84 79 79 78 78 78 76 70 59 54 49 44 43 44 46 48 45 45 46 46 47 52 55 62 65 64 62 62 59 54 47 41 39 35 31 27 24 23 24 24 23 24 27
95 96 94 91 92 89 91 91 91 87 83 82 83 83 81 77 73 66 58 51 48 43 42 45 48 47 45 43 40 37 40 45 47 49 47 44 42 43 44 41 34 32 33 32 28 24 23 22 22 22 22 22 22 21
96 94 92 91 92 91 91 90 88 87 87 84 79 76 73 71 67 57 49 47 48 46 40 37 38 39 38 37 36 38 38 38 38 37 36 36 35 34 34 35 36 34 31 30 29 29 29 28 26 24 23 23 23 23
93 92 93 94 94 91 89 87 83 80 77 72 69 69 66 61 56 49 46 46 48 50 48 42 36 35 32 31 32 34 36 38 37 37 35 33 33 32 32 33 33 34 36 38 37 34 32 31 29 28 26 25 23 22
91 90 89 90 86 82 77 74 73 70 68 66 66 64 59 51 48 47 46 45 46 48 50 51 46 39 38 35 35 37 38 37 40 41 41 40 39 37 37 37 37 37 35 32 30 30 29 29 30 31 32 32 31 30
92 88 84 80 77 76 73 70 69 66 62 60 55 52 51 50 49 50 49 48 46 41 39 35 36 39 41 43 43 42 42 41 39 38 39 40 41 40 38 35 34 33 33 34 34 34 33 32 31 31 30 30 31 33
85 82 80 79 76 73 71 67 64 63 60 59 57 55 53 51 50 50 50 48 46 39 35 35 38 41 43 44 43 41 41 41 41 40 37 35 35 36 37 37 35 34 32 32 34 37 40 43 45 47 48 49 50 50
85 79 73 72 71 69 66 64 62 58 56 54 54 54 55 53 50 45 40 38 39 42 45 47 47 46 44 43 43 41 37 35 35 36 36 35 33 31 31 33 36 39 42 46 52 57 61 63 65 67 66 66 66 64
72 69 68 67 66 63 61 58 57 54 52 50 50 48 44 40 39 39 40 42 45 46 46 44 40 38 36 35 35 36 38 37 35 32 30 31 34 37 42 48 55 60 64 67 71 76 81 85 87 89 91 92 93 93

GFSWCAN_prec_cthk_093.txt.gz
RH
38 43 51 63 59 45 50 64 74 85 96 94 99 98 73 50 56 56 48 50 38 44 40 38 40 37 37 36 44 38 34 35 39 45 48 49 48 51 57 59 66 75 82 88 85 88 88 76 76 73 72 73 70 69
47 36 43 55 49 41 58 70 74 91 94 98 97 92 75 61 61 53 61 43 41 45 39 39 41 35 33 37 40 39 34 35 40 46 46 48 52 54 54 64 62 66 70 77 88 91 85 85 80 76 72 72 73 73
55 32 39 47 43 40 80 83 86 95 98 98 97 89 76 68 70 58 65 39 44 48 46 46 40 38 41 40 41 32 34 35 38 42 45 47 48 51 56 62 58 63 61 65 61 66 78 96 94 87 81 75 74 76
55 29 36 42 48 57 87 92 92 98 98 98 96 95 88 78 79 65 46 36 41 46 49 50 45 44 44 45 40 33 34 37 39 42 44 48 50 53 57 57 59 57 59 61 64 62 59 71 86 88 84 82 81 78
51 28 33 41 46 76 96 98 97 98 98 97 96 94 88 89 76 48 40 37 41 47 57 57 52 52 51 49 38 35 36 36 41 45 45 51 52 53 57 57 58 55 58 64 70 67 70 71 72 81 87 83 84 85
43 29 33 44 55 86 93 97 98 98 98 97 97 96 94 76 56 47 39 42 44 50 53 56 57 58 53 48 38 39 41 43 45 48 50 50 52 56 60 62 53 55 61 68 65 64 64 64 77 79 88 91 92 91
38 32 36 46 63 90 98 98 98 98 98 98 96 88 82 69 55 46 43 44 50 52 51 61 62 58 55 47 44 46 46 47 48 49 50 51 54 56 63 63 56 59 65 65 68 68 66 64 62 75 85 95 94 94
38 34 39 49 67 94 95 96 98 98 97 96 89 76 71 64 56 51 52 55 51 53 50 61 65 58 54 47 48 46 49 50 51 55 54 53 56 59 61 55 58 64 68 64 58 62 62 63 74 78 85 92 97 95
35 38 41 51 80 91 95 97 98 98 98 96 86 82 76 61 55 57 61 60 54 45 53 57 59 62 52 48 48 49 51 54 54 55 54 54 56 59 52 54 62 67 69 59 52 59 65 71 75 77 87 98 98 96
35 40 48 81 92 95 97 97 98 98 98 97 89 74 67 64 66 63 58 54 50 55 57 63 59 58 52 47 50 50 52 57 58 54 54 56 54 48 50 56 60 66 70 63 65 62 64 69 79 88 96 95 97 98
43 50 70 92 95 98 97 97 98 98 98 95 87 85 86 79 71 67 62 59 61 63 64 66 60 59 55 48 49 50 53 57 59 58 59 56 55 52 55 57 59 64 70 69 74 74 70 74 80 92 95 94 95 98
49 61 84 93 98 97 96 97 96 97 96 94 93 94 93 82 72 72 80 81 75 68 65 65 66 62 54 48 47 51 55 58 59 60 61 51 50 54 56 57 58 62 68 74 76 78 75 78 81 89 92 93 97 97
57 85 92 94 96 96 98 98 99 99 97 94 92 93 88 85 86 87 89 82 77 71 68 64 64 54 51 48 49 53 58 64 63 62 52 50 53 53 53 53 56 60 66 72 79 76 79 81 82 88 89 90 93 95
82 93 96 96 97 98 97 97 98 96 96 96 93 91 91 92 88 86 82 75 74 68 61 57 55 52 50 51 53 56 56 64 64 61 53 50 53 52 52 52 53 57 61 68 76 85 81 85 85 85 88 92 97 98
98 99 98 98 98 96 98 99 99 98 97 97 94 95 96 90 88 89 84 82 74 65 58 55 51 48 52 54 52 58 63 64 59 54 52 53 52 53 53 53 53 57 58 62 71 80 88 89 90 95 93 89 87 81
98 98 98 97 97 98 98 98 98 98 97 97 96 96 93 92 96 96 91 79 69 60 56 51 53 52 55 52 55 58 55 53 49 53 52 51 51 51 50 51 54 57 58 63 68 76 81 84 85 80 82 80 77 76
98 97 96 98 98 98 98 98 98 97 97 96 96 95 94 96 94 88 84 79 69 60 58 54 51 52 54 52 55 50 51 51 53 51 50 51 49 46 45 47 52 55 60 63 69 76 85 89 93 94 92 92 89 84
94 91 93 96 96 98 97 97 97 96 95 95 95 97 97 96 94 80 76 78 72 61 54 50 49 51 53 54 53 51 53 56 57 53 50 47 45 46 46 47 50 56 64 68 74 78 82 89 96 98 95 92 91 89
91 91 97 99 98 97 97 96 96 95 97 97 97 97 95 94 94 82 77 72 66 58 52 48 48 52 50 47 49 53 55 58 55 48 47 46 45 45 46 48 51 54 56 59 67 74 81 87 93 98 98 98 98 97
99 99 98 98 97 96 96 96 96 94 96 97 97 97 95 88 88 89 83 70 63 56 53 52 50 44 45 47 49 53 57 56 52 50 46 44 44 44 47 52 54 52 54 58 62 65 68 70 72 82 87 90 91 94
97 97 97 97 96 95 96 96 96 96 97 96 96 96 96 89 82 81 73 71 65 58 54 49 48 49 51 53 56 55 52 51 50 47 45 45 45 48 51 53 55 53 55 60 64 68 71 73 74 74 70 73 77 80
97 98 98 97 96 97 97 97 96 96 96 96 96 96 96 94 90 79 70 66 61 53 52 53 56 59 60 60 58 56 54 52 48 46 47 48 50 53 55 58 59 55 56 60 64 65 67 71 72 75 77 74 72 76
98 97 97 97 97 96 96 97 96 96 96 96 96 93 92 88 81 77 73 69 62 57 58 61 63 64 63 60 57 53 49 45 44 43 44 45 48 51 56 60 58 55 59 61 59 57 56 56 56 57 59 62 63 67
97 97 97 97 96 97 96 96 96 95 95 94 90 87 85 82 80 76 73 68 62 61 61 62 61 58 55 52 49 46 43 43 44 45 45 47 51 55 58 58 56 61 62 59 55 53 49 44 41 38 35 34 32 32
96 97 96 96 95 94 95 95 96 93 95 93 89 87 86 84 81 76 71 64 62 61 60 57 55 53 52 47 44 44 43 43 45 46 47 52 56 57 57 58 61 63 58 47 39 38 35 31 29 27 26 25 25 24
96 95 93 91 93 92 94 93 91 90 89 88 86 84 81 77 75 70 70 64 59 55 55 53 54 52 46 43 40 38 39 39 38 39 39 40 39 33 31 36 40 40 36 35 36 33 30 28 29 29 30 30 28 26
96 93 91 88 89 88 89 90 88 87 86 84 83 82 79 79 75 68 62 58 55 51 49 49 47 43 38 35 34 34 34 32 31 31 31 32 32 33 37 38 36 35 34 33 33 35 37 38 40 41 41 37 34 32
93 92 92 92 92 90 92 93 91 88 84 81 80 80 75 68 65 58 57 58 58 53 50 45 42 39 36 34 32 30 28 28 30 32 31 32 34 36 38 39 39 40 41 41 39 38 38 37 36 35 33 31 30 32
93 94 95 97 96 94 92 90 88 84 81 79 76 73 69 62 58 56 54 52 51 50 49 50 49 45 39 35 35 34 30 29 32 37 41 43 43 41 40 41 41 42 42 41 39 36 34 34 35 35 34 34 33 33
94 93 94 93 92 91 88 84 80 75 71 68 65 63 61 59 57 54 52 50 48 48 43 40 39 37 35 35 35 36 37 37 38 38 38 40 42 44 44 41 38 37 36 36 36 37 38 37 38 38 37 37 36 36
94 92 90 88 85 82 79 75 73 70 68 65 63 59 57 54 53 52 51 48 47 47 42 33 31 32 32 32 33 35 36 38 40 42 41 38 36 36 36 35 35 34 33 34 36 39 43 46 48 50 51 51 52 51
93 89 84 83 82 79 75 72 70 68 67 65 63 59 57 56 53 50 47 47 42 40 37 35 35 37 38 36 38 40 38 35 34 35 38 38 36 35 34 35 37 39 43 49 55 61 65 68 70 72 73 74 76 77
92 88 84 82 82 78 75 70 69 67 62 58 57 55 55 53 48 43 37 34 34 35 36 35 34 33 34 34 33 34 36 38 38 35 32 32 33 36 39 44 53 62 67 71 75 79 83 84 83 81 79 78 79 83

GFSWCAN_prec_cthk_096.txt.gz
RH
88 87 62 30 39 47 51 61 65 79 94 90 93 95 97 94 79 57 49 62 68 64 60 54 45 41 40 34 37 42 38 33 36 41 45 46 47 48 53 53 59 61 69 75 78 86 84 82 77 80 80 77 72 73
84 84 60 31 38 44 47 51 62 75 81 93 98 98 98 93 77 57 56 59 58 57 50 48 44 37 36 32 36 41 35 32 35 41 43 45 48 49 49 55 53 63 64 66 73 71 80 82 84 83 83 81 80 76
82 78 59 33 34 40 39 43 47 70 86 91 94 98 97 92 77 62 63 57 56 52 48 47 46 41 41 37 38 40 33 31 35 38 40 43 42 45 48 52 50 53 58 65 65 65 63 68 78 98 92 87 83 79
85 75 59 35 35 34 34 35 58 72 81 93 96 97 97 93 78 61 63 68 61 47 48 53 50 46 43 42 44 39 30 31 35 38 39 44 43 45 49 49 51 48 52 55 63 64 64 67 64 65 92 96 90 84
87 74 60 33 33 29 30 45 62 72 87 93 98 98 93 89 75 61 70 70 58 42 54 59 55 54 53 50 48 39 33 33 36 40 44 44 45 47 48 50 50 47 50 54 59 61 64 62 66 68 68 86 97 89
82 78 60 33 32 28 42 49 64 78 90 93 98 96 96 89 72 68 80 71 56 43 48 63 60 55 52 54 50 41 35 37 39 41 44 46 46 48 52 52 44 46 50 56 60 62 62 62 65 69 70 76 82 93
83 82 51 33 30 41 50 55 80 90 95 95 98 97 93 84 79 81 73 62 47 42 45 60 65 67 61 55 50 44 41 41 42 46 47 47 47 49 53 52 42 48 53 60 63 64 61 62 62 64 66 77 80 96
89 87 39 34 31 45 55 75 91 95 96 94 98 98 96 96 93 87 67 55 44 42 46 60 68 66 60 56 49 44 43 42 44 49 49 49 51 52 52 43 44 48 58 61 57 53 55 61 60 61 60 81 88 93
96 62 38 33 33 48 73 90 94 95 97 98 98 98 98 97 91 74 58 49 44 44 51 58 67 63 62 60 51 47 44 47 47 50 51 50 52 52 42 43 47 51 55 59 55 56 54 62 65 72 77 88 95 98
85 44 39 31 50 82 91 91 91 97 98 98 97 95 91 80 67 61 57 46 43 46 53 57 54 58 59 56 49 48 48 51 53 51 50 53 49 42 42 44 46 48 54 59 58 65 58 60 69 71 81 85 88 96
52 46 41 53 73 92 93 92 95 97 97 97 94 91 84 77 69 59 52 53 56 61 61 61 55 59 61 60 57 49 50 52 51 54 53 53 52 45 45 47 48 50 53 58 59 64 70 67 74 85 92 97 96 95
48 47 49 61 87 94 89 92 95 93 94 90 91 90 85 72 63 60 62 67 63 58 64 67 64 63 66 62 55 50 49 52 54 56 57 52 45 46 47 45 45 46 51 55 60 63 68 73 73 79 90 94 93 92
45 48 68 85 92 93 93 98 98 98 95 92 89 88 79 76 73 69 71 71 69 71 71 72 71 68 68 61 51 52 55 55 57 60 50 46 45 48 46 45 43 44 47 53 58 65 67 76 78 77 80 86 92 91
59 83 94 94 95 97 98 98 97 96 94 95 92 94 90 84 76 71 75 76 72 73 71 69 67 66 62 54 53 53 53 56 62 59 49 45 45 47 46 45 43 43 46 50 55 62 70 77 82 87 81 83 89 91
76 91 93 96 98 98 98 98 98 97 96 92 84 88 89 87 83 82 82 77 75 72 69 66 63 58 54 54 54 55 59 60 53 48 43 46 48 47 46 46 43 44 47 51 54 57 63 72 83 90 93 94 86 81
85 92 97 98 98 98 97 98 98 97 98 95 90 89 87 87 89 88 84 80 75 72 63 58 58 55 54 53 57 53 53 50 45 44 45 50 50 49 48 42 41 43 47 50 54 58 62 62 65 74 81 86 85 82
97 98 97 98 98 98 97 98 98 98 97 95 93 89 89 87 90 94 91 81 76 65 62 59 56 55 54 56 55 47 48 44 43 46 47 50 52 50 44 43 44 45 49 53 56 61 64 67 72 78 86 94 96 97
97 97 97 97 97 97 98 98 97 95 94 95 95 95 97 97 97 97 91 79 72 64 57 56 53 53 53 53 49 43 45 47 47 48 50 53 50 48 47 45 44 45 48 51 58 64 68 71 76 84 88 92 98 97
97 97 98 98 98 98 97 97 96 93 94 96 97 97 97 97 92 89 88 84 75 63 57 55 51 51 47 42 41 44 47 47 50 52 53 53 52 49 46 44 43 46 46 44 45 48 52 58 67 77 87 91 94 98
98 99 98 98 97 97 96 96 96 95 97 97 97 97 97 96 95 89 87 83 78 68 58 56 50 42 38 39 42 45 46 50 55 55 54 54 54 51 47 45 46 49 47 44 44 46 49 54 59 67 72 75 77 83
97 97 97 97 97 95 95 96 97 97 97 96 97 97 97 96 96 93 88 80 74 67 61 50 42 39 42 43 45 48 53 55 56 55 55 55 54 53 51 51 51 51 48 47 45 47 50 54 60 66 74 78 80 79
97 97 97 97 97 97 97 97 96 96 96 96 96 96 96 95 93 94 92 85 77 63 57 49 45 46 46 48 52 54 55 56 56 56 54 52 52 52 52 53 55 54 50 46 48 51 51 52 54 57 62 66 73 79
98 98 98 98 97 96 96 96 96 96 96 97 96 96 96 96 93 87 83 74 62 54 49 47 47 48 52 55 57 58 58 56 53 51 50 49 49 51 53 54 56 55 48 49 53 53 49 53 53 51 49 49 49 51
98 98 97 97 96 96 96 96 96 96 96 96 96 96 96 96 96 92 83 74 64 58 55 55 56 57 58 57 56 53 51 50 49 49 48 48 48 49 51 54 57 54 52 55 56 52 53 52 50 46 42 38 37 36
97 97 97 96 95 95 95 96 96 96 96 96 96 95 92 91 84 79 72 64 59 59 59 58 56 53 54 53 51 50 49 48 47 49 49 48 50 53 53 54 51 50 50 51 52 43 37 37 37 34 34 34 34 32
97 96 94 93 96 96 96 96 96 96 96 95 93 91 89 85 82 74 71 63 59 57 55 54 53 54 52 49 50 50 48 45 43 41 38 39 39 38 35 33 30 30 34 38 37 36 36 34 31 32 34 36 37 39
96 94 91 90 90 90 93 93 92 93 93 91 90 90 86 82 75 68 64 62 60 58 55 52 51 49 49 48 42 38 35 33 32 30 30 28 28 28 30 30 31 35 40 43 42 40 39 40 40 40 40 39 38 38
95 92 91 90 90 90 92 93 93 91 89 85 85 84 78 72 71 67 62 60 57 54 52 51 51 49 46 43 39 35 33 33 32 30 27 26 26 29 33 34 36 38 40 39 39 39 39 40 41 41 40 39 39 39
93 93 92 95 94 95 96 95 93 90 86 83 81 80 77 72 67 61 58 59 57 55 54 53 50 45 41 40 40 37 35 34 32 32 32 34 35 34 33 35 40 41 41 39 37 35 35 35 35 36 36 35 35 36
95 96 96 96 95 94 93 92 91 89 88 85 80 76 71 67 63 60 59 57 55 52 52 50 49 48 46 43 39 37 34 31 30 30 30 32 35 37 37 35 34 34 34 33 33 34 34 34 35 37 39 40 42 43
97 97 96 95 95 93 92 92 90 86 81 77 73 69 65 61 59 58 57 57 55 52 49 45 41 36 32 32 32 32 32 31 32 33 33 31 32 34 35 34 32 30 31 33 36 39 43 50 57 62 66 68 70 70
97 96 94 95 96 91 88 84 80 77 72 69 68 66 63 60 58 57 54 51 49 48 47 45 40 35 33 32 31 31 31 27 28 30 32 33 32 31 31 32 36 39 43 51 59 65 70 74 77 78 77 77 77 77
97 96 93 92 92 87 83 79 76 76 73 70 67 65 63 60 57 52 50 48 47 42 38 36 35 34 31 27 26 27 29 31 33 33 33 33 34 35 39 45 52 58 64 70 74 78 79 77 70 64 63 67 71 74

GFSWCAN_prec_cthk_099.txt.gz
RH
41 47 68 83 73 38 37 39 49 60 69 88 97 94 92 98 96 72 52 60 65 67 67 62 46 41 40 44 42 39 40 36 33 38 44 45 45 44 47 48 52 55 59 62 65 72 70 74 77 83 89 87 90 91
46 53 70 80 73 37 34 34 41 50 72 93 96 97 98 98 94 68 55 56 65 70 77 66 54 48 43 39 37 38 37 34 29 36 41 44 46 47 45 48 47 55 51 57 61 56 64 69 75 82 86 87 87 87
54 59 72 77 70 41 33 33 35 51 72 86 97 98 98 99 95 71 55 53 67 74 70 70 55 49 43 40 38 37 40 34 31 32 37 41 42 43 46 45 45 46 54 57 57 53 56 61 66 66 65 80 90 88
60 64 71 73 68 44 32 33 36 49 70 85 93 97 98 97 94 82 63 60 71 66 69 66 56 47 43 41 42 40 37 31 30 33 36 41 42 40 43 43 45 42 45 47 49 48 55 59 60 61 62 62 73 95
66 61 64 71 69 48 35 30 34 45 66 85 88 96 96 95 97 86 69 64 66 61 66 67 55 50 49 48 48 45 38 34 30 34 39 41 41 42 45 45 45 40 42 45 47 49 54 58 58 59 61 62 65 76
55 54 55 69 72 51 34 28 30 43 74 86 89 97 98 97 95 84 73 71 69 60 56 63 56 56 56 56 52 47 40 36 33 36 39 40 40 42 46 47 37 39 39 44 48 53 57 56 57 61 62 62 63 70
62 69 61 81 78 53 33 28 36 68 74 84 89 98 99 98 93 83 69 71 79 71 62 60 61 65 58 56 56 50 42 38 36 40 42 43 43 43 46 46 37 38 42 44 51 55 55 46 51 56 56 59 63 70
80 78 67 88 82 44 34 44 65 75 73 82 89 96 98 97 95 84 69 71 76 71 62 61 63 63 64 61 56 47 42 39 39 43 45 44 45 45 46 38 37 39 43 50 53 52 50 47 54 57 56 62 70 74
83 83 74 97 66 40 50 69 72 75 75 85 89 96 98 96 93 86 81 80 81 71 65 57 59 63 66 67 58 51 45 43 43 44 46 46 47 47 38 37 37 40 43 47 52 50 53 48 56 60 66 67 78 81
86 81 91 92 45 61 64 76 79 80 81 88 94 98 98 98 95 88 81 77 77 69 57 53 54 62 64 63 58 49 46 47 49 47 48 49 43 36 37 37 37 39 42 48 51 51 56 53 57 67 73 78 87 95
85 86 97 62 60 70 72 75 76 83 85 87 97 95 96 98 96 89 77 70 64 62 55 53 53 58 59 57 58 54 51 49 51 50 52 51 45 38 37 38 39 39 42 45 50 52 54 60 60 68 75 79 82 84
89 97 72 59 71 71 74 73 78 74 76 91 91 94 98 94 82 76 71 65 58 54 58 56 54 55 60 56 57 62 56 51 52 52 54 50 38 37 41 42 40 38 39 43 48 52 54 54 63 63 71 80 86 90
93 65 53 63 65 74 77 81 75 81 89 89 88 92 89 85 81 76 67 65 61 60 61 62 68 66 65 62 61 63 58 54 53 56 52 41 36 39 43 44 42 39 38 41 45 50 55 57 60 67 69 72 75 83
55 51 52 71 78 75 77 77 77 88 90 90 94 94 88 83 72 61 60 61 59 62 65 65 66 68 67 66 65 66 56 55 58 54 47 39 37 42 45 46 46 43 40 42 45 47 51 57 62 64 68 77 81 78
45 55 76 85 82 81 84 84 91 95 96 96 88 85 82 74 73 70 67 64 63 66 68 72 71 69 70 68 66 58 59 57 53 48 39 35 39 43 47 49 48 43 41 42 44 47 49 54 59 62 63 66 71 76
53 72 82 88 87 92 93 92 95 97 97 95 91 90 85 81 85 77 73 72 68 68 68 65 68 66 67 62 61 59 57 53 43 41 38 40 42 45 47 48 46 45 45 46 48 48 49 51 50 52 56 61 67 75
81 91 95 98 95 96 98 98 98 98 97 95 93 89 89 87 87 82 81 78 77 70 71 67 64 60 59 60 58 53 50 40 36 37 41 44 43 46 48 47 48 48 48 49 52 52 53 54 57 61 65 69 74 80
96 98 98 97 97 97 98 98 97 96 96 95 96 95 92 89 88 85 82 78 75 71 66 61 58 58 57 57 53 45 41 42 43 43 43 44 46 47 47 49 48 47 49 50 50 49 52 55 59 63 68 72 75 82
97 98 98 98 97 97 97 97 97 95 96 96 97 98 97 95 94 91 87 84 79 72 64 58 55 55 52 47 44 40 41 42 45 45 45 47 48 48 49 49 47 47 48 47 46 43 42 42 43 45 48 54 62 73
98 98 98 98 98 97 97 97 96 93 95 96 97 97 97 97 97 94 88 83 76 69 62 59 53 48 45 42 42 40 40 42 46 48 49 49 51 52 53 51 50 50 51 51 47 45 44 44 45 48 51 55 60 64
97 98 98 97 97 96 95 95 95 95 97 96 97 97 97 97 95 91 90 85 78 74 71 62 54 48 46 43 41 40 43 45 50 53 51 51 52 54 54 54 53 53 54 53 49 45 44 43 42 46 50 52 55 63
96 97 97 98 98 97 97 96 95 96 96 97 97 97 97 96 96 93 91 88 85 78 70 61 53 48 43 43 43 45 46 48 51 51 51 52 52 51 52 52 53 55 57 54 48 44 45 44 44 43 42 41 43 47
98 98 98 98 97 97 97 96 96 96 96 96 97 96 96 96 95 96 93 89 82 72 66 57 49 47 47 46 46 47 50 52 52 51 51 49 49 50 51 53 55 57 58 54 47 48 48 46 44 44 42 43 44 43
98 98 98 97 97 96 96 96 97 96 96 96 96 96 96 96 96 94 88 82 72 67 61 56 53 49 47 50 53 54 54 51 48 47 46 47 48 49 50 51 52 54 57 54 48 50 50 45 42 41 41 39 37 36
98 98 97 96 96 96 96 96 97 97 96 96 96 96 96 96 95 93 87 80 74 68 62 59 56 55 55 56 54 51 48 47 46 47 48 49 48 48 49 48 48 48 47 41 38 36 37 38 39 38 37 35 33 33
97 96 95 95 95 95 96 97 96 96 96 96 96 96 95 92 88 81 77 69 63 60 58 57 58 57 56 52 50 48 47 46 47 45 42 40 41 42 42 39 36 34 31 30 32 34 37 40 42 42 40 38 38 38
97 95 93 93 96 95 96 97 96 96 96 96 96 94 92 90 83 74 71 68 65 61 58 56 55 53 49 47 45 44 40 37 36 34 33 33 34 33 31 29 28 30 34 36 38 39 41 42 41 41 41 42 44 43
94 91 92 93 93 93 96 96 97 96 94 89 89 89 85 78 73 71 67 63 62 60 58 56 53 48 47 48 44 41 40 36 34 34 34 34 32 29 29 30 31 32 32 32 33 35 35 36 36 36 35 35 36 37
93 93 92 96 97 97 97 97 96 93 90 87 86 84 82 76 73 70 67 64 61 59 56 52 52 52 48 44 41 37 38 39 38 37 35 33 32 30 29 30 31 30 30 30 31 32 32 32 31 32 33 34 35 36
97 97 97 97 97 97 97 97 97 94 92 88 84 81 78 74 71 69 66 62 59 58 57 56 54 51 46 43 43 43 42 37 33 31 30 30 31 30 27 27 28 28 28 29 31 33 38 42 47 53 57 61 64 66
97 97 97 97 97 96 96 95 93 91 88 85 82 78 76 74 72 69 65 63 60 57 57 55 53 51 46 42 37 34 32 32 32 31 28 26 26 28 29 29 30 31 33 39 45 52 60 65 70 73 75 75 74 72
96 96 96 96 97 96 96 94 92 88 84 83 80 78 74 70 67 64 61 60 59 56 54 50 46 42 37 36 36 34 32 28 25 25 26 28 30 30 30 30 33 39 47 56 61 65 65 63 55 51 54 59 62 66
88 91 93 94 95 95 94 91 90 89 85 80 76 71 68 65 64 60 59 57 54 51 49 47 46 41 37 35 30 26 25 25 26 28 28 28 28 31 36 40 48 55 58 60 62 54 46 50 57 61 62 66 71 76

GFSWCAN_prec_cthk_102.txt.gz
RH
50 45 45 42 47 59 73 57 38 46 50 60 84 82 94 97 97 97 83 66 68 65 50 50 54 48 42 42 45 47 43 43 40 37 40 44 44 45 45 45 47 49 52 52 58 61 59 60 67 78 90 92 93 95
46 43 43 44 52 59 68 54 36 41 46 55 77 87 94 97 97 95 71 67 66 60 65 67 68 51 44 43 41 44 36 40 33 33 37 40 43 46 43 47 44 53 45 52 52 50 52 57 61 65 73 83 92 94
47 40 44 44 54 59 63 52 33 36 41 50 75 92 96 99 98 94 72 69 70 74 73 68 63 52 49 47 42 39 39 39 35 29 33 37 39 40 43 43 40 42 47 52 51 46 48 49 57 60 62 63 60 64
46 44 43 45 55 60 64 53 33 36 35 49 82 96 97 98 96 86 69 64 71 76 79 78 75 69 52 46 43 38 38 39 35 31 32 36 36 37 39 36 39 37 42 46 46 44 47 52 53 57 59 61 62 65
50 48 47 50 56 61 61 55 33 34 36 52 85 97 97 98 94 81 69 56 66 72 75 76 71 66 54 49 44 43 44 40 36 33 34 37 38 39 40 41 40 34 36 40 40 40 44 48 53 54 52 56 57 58
52 51 50 52 48 58 60 57 37 33 36 56 88 90 96 98 95 90 79 60 61 67 65 69 71 65 62 50 48 49 48 41 39 34 36 37 38 38 42 43 31 32 33 33 37 42 46 50 50 45 51 53 54 60
53 58 60 54 50 55 61 63 39 34 38 65 81 94 98 98 96 94 80 70 63 64 62 65 71 76 60 53 54 52 52 46 40 36 36 37 39 39 43 42 30 31 33 35 37 43 47 48 41 46 51 50 52 58
65 71 68 70 70 62 58 68 42 36 47 70 86 96 98 98 99 98 86 74 66 66 69 72 71 66 60 59 58 56 52 43 40 40 40 40 42 42 43 32 32 34 34 35 39 44 47 46 41 46 51 53 56 56
70 71 73 82 83 71 68 70 43 39 64 81 87 96 98 98 97 96 88 79 73 76 78 75 72 71 60 60 59 57 50 46 44 42 42 42 43 43 32 33 33 34 34 35 38 43 46 49 45 49 54 59 62 64
57 65 76 82 86 71 85 61 43 57 82 85 86 98 99 98 97 93 90 83 77 80 76 72 73 76 63 61 61 59 54 50 48 44 45 48 41 31 32 33 34 35 37 37 41 42 44 49 49 54 58 63 68 72
57 73 82 87 83 81 83 53 62 81 86 80 93 93 92 97 95 94 90 88 88 87 79 76 72 71 63 59 60 56 56 52 50 48 49 50 44 34 31 34 36 38 40 38 39 41 43 47 53 55 58 62 67 70
73 82 89 88 85 91 64 55 84 82 82 77 81 89 94 98 97 96 90 83 75 69 70 74 73 65 62 55 56 57 56 60 57 51 50 49 36 32 34 36 40 41 40 40 40 42 44 46 48 57 57 59 64 69
81 85 89 85 88 76 65 77 80 82 77 81 91 95 95 95 93 83 75 71 67 65 68 68 70 66 62 55 55 56 59 61 58 57 50 40 34 34 39 41 42 43 43 41 41 45 46 46 50 54 57 60 62 65
83 87 89 83 89 81 91 88 88 81 80 83 87 89 88 85 71 63 60 61 58 62 65 63 61 58 58 57 56 60 64 66 65 57 48 37 33 36 40 42 44 44 43 41 41 45 47 48 50 53 56 60 61 63
86 84 92 93 82 95 92 94 89 87 91 86 79 85 80 70 68 63 62 64 65 66 60 59 58 60 68 64 62 68 70 61 55 49 40 34 34 37 41 44 46 45 41 42 44 46 50 50 49 50 51 50 49 49
87 92 85 76 90 99 94 90 94 94 93 88 85 81 79 74 71 67 67 70 71 63 58 59 65 66 67 65 68 68 62 57 45 41 35 35 36 39 41 43 45 43 43 46 49 50 52 52 50 45 45 48 52 57
78 79 70 87 99 98 95 97 98 97 98 93 89 85 81 75 74 75 72 72 66 60 63 66 69 68 68 69 66 60 57 43 36 37 40 38 39 39 41 43 42 44 46 48 50 52 53 54 52 49 54 58 60 63
83 90 93 98 98 98 93 96 97 95 92 90 90 91 85 83 84 83 76 73 65 61 61 64 65 70 64 61 59 51 45 44 42 42 42 43 42 43 42 40 42 44 47 48 49 49 49 50 48 46 47 50 54 61
79 94 98 96 98 97 97 94 94 91 90 94 95 93 93 93 92 86 82 80 74 67 65 67 66 65 58 53 49 45 46 46 46 44 45 45 45 44 42 44 46 45 47 47 47 45 45 45 42 41 42 44 45 47
94 95 94 99 98 96 93 91 92 89 91 94 96 97 97 97 95 92 88 82 79 74 70 68 62 55 54 49 45 43 43 44 46 45 45 46 48 47 48 48 49 49 49 50 50 47 47 44 43 42 41 41 42 44
98 98 97 98 97 92 92 92 90 93 96 96 97 97 97 97 97 94 89 84 79 74 73 67 60 55 53 51 50 47 47 46 46 46 48 51 51 51 51 52 52 50 51 52 51 50 46 43 43 42 39 38 37 37
97 98 98 98 98 97 96 93 92 95 96 96 97 97 97 97 97 97 95 88 85 78 72 64 59 58 55 52 51 49 47 48 50 50 51 51 51 51 51 51 49 51 53 54 53 50 46 46 46 43 40 39 39 37
98 98 98 98 98 97 97 97 96 97 96 96 97 97 96 97 97 96 93 89 83 79 72 67 64 62 58 53 47 45 46 46 46 49 51 51 49 48 47 47 49 51 53 56 57 52 48 48 46 44 41 41 39 40
98 98 98 98 97 97 97 96 96 96 96 96 96 96 96 96 96 95 91 87 84 81 75 70 67 63 57 52 49 48 48 48 52 53 51 48 47 45 46 48 51 52 52 54 55 52 44 44 45 43 39 36 37 38
97 97 98 97 96 96 96 96 96 96 95 95 96 96 96 96 95 94 90 84 83 76 75 71 67 62 57 54 50 51 54 53 52 50 48 46 45 45 45 47 45 45 46 47 47 44 40 37 36 37 38 39 39 40
96 95 95 95 94 92 94 94 96 97 96 96 96 96 96 96 96 91 84 84 81 77 72 67 62 61 59 58 57 56 53 51 49 48 45 42 40 41 41 39 37 35 34 34 33 34 35 35 36 37 38 39 40 40
96 94 89 91 90 89 91 94 95 95 97 96 96 96 97 96 92 81 77 76 74 70 67 65 64 63 61 58 56 53 51 48 43 39 37 36 35 32 31 30 30 31 32 31 30 30 29 30 30 30 31 32 33 33
93 91 92 92 93 93 94 95 95 96 96 96 96 97 95 88 80 78 78 76 72 69 67 65 62 60 56 53 50 47 40 37 36 36 36 35 34 33 31 30 29 28 27 27 27 27 27 27 27 28 30 35 40 45
93 92 93 97 97 97 97 96 95 95 94 95 97 93 88 82 78 75 74 71 69 66 63 61 59 55 53 52 48 42 38 36 37 38 38 36 32 29 28 28 28 26 24 25 26 27 29 32 36 42 48 55 61 66
95 95 96 97 97 96 96 94 94 93 94 95 90 85 81 78 76 75 73 71 69 68 64 59 57 57 55 49 41 38 39 42 43 37 32 31 31 28 25 24 24 25 26 28 30 33 40 49 55 59 58 53 48 46
96 96 95 95 95 95 95 96 97 97 96 93 92 87 85 81 78 75 73 71 69 66 63 63 60 56 49 46 47 46 43 36 34 32 31 28 26 25 25 26 26 26 28 33 40 48 51 54 46 40 43 47 50 54
96 96 96 96 97 97 97 97 96 94 93 92 87 83 80 77 76 75 74 72 68 66 66 63 57 54 52 47 42 37 35 33 31 28 26 25 25 24 24 25 27 31 37 43 48 45 35 35 41 47 50 53 56 60
97 97 97 97 97 97 97 96 94 93 91 88 86 83 80 78 77 75 73 71 68 63 60 57 55 50 47 42 38 34 32 29 26 25 25 25 24 24 27 30 35 40 45 47 36 32 38 42 46 49 53 55 57 60

GFSWCAN_prec_cthk_105.txt.gz
RH
84 83 75 51 41 37 32 42 48 46 43 51 59 71 70 74 76 82 87 93 78 67 72 66 58 58 53 44 43 46 47 45 45 41 40 42 42 44 44 42 42 43 48 48 50 55 50 50 56 60 66 77 88 93
84 80 63 44 41 34 31 40 43 43 38 44 54 73 71 75 91 95 94 87 74 67 69 62 53 48 46 41 42 45 40 42 40 38 37 38 41 45 41 44 41 47 40 44 44 42 40 48 49 52 59 62 63 67
83 73 52 44 40 38 36 40 44 41 32 41 54 67 71 86 92 95 96 79 75 74 64 56 55 57 60 44 44 42 43 40 39 35 33 34 37 39 42 41 37 39 41 47 45 39 42 44 47 53 54 57 61 61
76 58 47 41 38 41 39 40 45 41 29 35 43 68 77 87 91 94 93 77 73 71 64 62 64 64 54 45 47 44 42 41 41 38 33 33 32 35 37 33 35 34 40 42 41 38 40 44 45 49 50 51 53 55
62 51 42 39 39 42 40 38 46 44 35 34 44 69 76 90 92 93 94 77 72 73 77 77 73 66 63 57 51 46 44 43 42 38 37 33 34 36 39 38 37 31 32 35 33 31 33 38 44 48 48 49 50 50
56 50 45 40 37 39 41 44 45 45 40 34 48 65 77 87 93 92 89 75 71 74 75 80 80 76 72 66 54 50 47 47 44 41 39 34 35 35 39 40 27 28 29 30 30 31 34 40 46 41 42 45 45 47
55 49 44 37 35 39 41 47 44 47 42 35 55 70 79 89 91 88 80 74 69 73 74 78 73 72 72 65 58 51 51 52 49 46 39 34 35 37 40 39 27 28 30 31 32 34 37 40 40 38 42 44 49 51
50 43 39 39 44 54 56 53 43 50 46 39 58 73 83 87 92 90 84 78 71 67 66 75 77 71 70 69 63 54 56 56 52 44 39 37 39 40 41 29 29 30 32 33 34 35 37 39 40 39 43 47 54 52
42 44 45 47 58 67 66 60 50 53 53 45 67 78 88 91 90 92 90 84 77 69 67 69 70 76 70 67 61 60 58 58 51 44 42 41 41 41 28 28 30 31 32 32 36 37 39 40 41 42 46 51 54 55
45 47 51 56 66 69 70 69 63 61 60 59 84 81 87 89 91 96 96 90 81 73 69 71 70 74 75 63 62 61 60 61 53 45 45 46 40 27 27 29 30 31 33 35 37 39 40 44 45 47 47 52 56 60
46 46 52 59 61 67 76 78 71 66 76 82 88 84 88 92 98 98 98 96 85 82 74 74 73 76 75 74 67 59 60 62 56 50 50 48 42 32 27 29 31 33 35 37 37 38 41 44 47 49 51 51 57 61
51 52 48 53 70 79 87 86 82 74 79 79 82 85 91 99 98 96 93 90 86 80 77 76 76 75 76 73 71 64 61 60 56 54 53 50 34 30 29 29 33 35 37 37 38 40 43 43 45 47 50 54 54 55
61 62 58 71 81 89 91 92 82 81 88 89 89 89 97 97 94 86 81 77 72 70 72 75 79 75 78 73 68 62 59 58 55 59 55 44 34 33 31 31 34 37 38 39 38 40 43 46 46 47 49 53 51 52
69 68 76 86 92 92 92 87 83 96 96 89 87 93 95 88 76 70 65 61 59 66 71 73 78 76 75 75 70 64 58 57 62 63 54 43 34 35 36 37 36 38 39 39 39 40 42 45 47 50 50 50 50 50
74 75 88 94 94 92 88 86 92 98 98 89 78 86 83 73 68 65 63 63 64 67 69 75 75 73 74 72 67 64 63 65 62 54 42 35 35 38 40 39 40 40 39 39 41 42 43 45 48 51 51 48 44 43
79 88 96 96 96 95 88 98 99 99 95 81 74 80 79 76 72 66 66 66 66 70 67 67 69 66 63 63 64 64 62 60 49 44 36 35 36 40 40 41 41 39 38 41 44 45 46 47 48 48 47 48 50 54
88 94 94 99 83 94 95 98 99 99 98 84 86 84 79 75 71 71 70 68 68 68 70 68 64 61 64 64 63 61 61 51 41 39 38 37 39 41 42 42 40 36 38 40 44 47 48 49 50 49 51 55 55 55
80 87 93 88 91 96 98 98 98 98 96 87 87 85 84 80 74 73 70 69 66 67 68 67 62 68 64 63 65 57 53 50 45 43 41 42 43 43 43 42 38 37 40 44 46 47 46 45 45 46 46 44 42 42
92 98 91 88 92 98 99 98 98 96 92 90 89 92 91 87 79 75 73 68 67 68 67 64 62 63 60 57 55 49 49 48 47 47 46 46 46 45 45 42 41 42 44 45 45 45 43 43 43 43 43 42 41 41
97 94 97 100 98 97 97 98 98 89 89 90 91 98 95 90 88 85 79 74 72 72 67 63 59 56 57 56 52 47 47 48 48 50 50 48 47 47 46 46 46 46 47 48 47 46 44 44 43 41 42 41 39 36
98 97 98 98 98 98 96 95 96 94 89 92 97 96 97 97 97 93 88 81 77 72 70 62 58 58 61 56 50 48 49 51 50 48 47 48 50 51 50 50 50 49 49 49 48 48 48 44 42 43 44 41 38 37
94 98 98 99 98 98 97 94 94 95 94 96 97 97 97 97 96 96 96 92 87 81 73 66 63 65 64 55 51 53 54 55 53 51 51 52 51 51 52 52 52 51 51 50 51 51 48 46 44 45 44 41 41 38
96 97 98 98 98 96 97 97 96 92 95 96 97 97 97 97 97 96 96 95 90 85 78 73 70 68 63 58 55 56 57 56 53 52 52 52 52 52 52 50 50 50 51 52 53 54 53 48 44 44 44 43 42 41
98 98 98 97 97 95 96 96 94 95 97 97 97 96 96 96 95 95 93 91 90 87 84 79 76 70 67 64 61 58 55 50 49 50 50 52 52 51 50 49 49 49 50 48 48 50 49 45 44 41 41 40 39 37
98 98 98 97 95 92 93 97 98 97 94 97 96 96 96 96 96 96 92 89 87 86 85 79 75 72 67 66 63 58 53 51 52 53 54 53 52 51 50 47 44 43 43 44 45 45 45 43 41 40 37 34 33 33
97 95 96 92 90 95 91 91 89 93 95 96 96 97 96 96 95 92 87 84 83 84 83 82 77 74 72 68 64 61 55 55 56 55 56 54 51 46 43 42 39 36 34 34 33 32 31 29 28 26 26 25 25 25
95 94 90 92 86 82 86 91 91 94 96 96 95 95 96 96 95 86 80 80 85 84 79 79 77 72 68 65 63 60 59 58 58 57 51 45 43 41 35 33 33 34 32 30 28 26 24 24 24 25 27 30 33 37
94 94 91 89 89 84 84 85 88 93 96 95 96 96 95 93 87 81 79 79 81 83 80 79 76 72 68 66 64 62 61 59 51 44 41 40 38 36 34 34 33 31 29 26 25 24 25 26 27 30 35 43 49 49
94 94 96 96 94 94 94 94 94 94 96 96 96 96 95 86 79 77 77 79 78 75 74 71 70 68 65 64 63 59 52 47 44 42 39 38 38 36 34 32 31 27 26 25 25 25 26 30 36 42 42 35 31 33
97 96 96 97 97 96 96 96 96 96 96 97 96 94 92 87 82 78 76 76 77 76 73 71 66 65 63 62 57 52 49 46 42 41 41 38 35 34 32 29 27 25 25 25 27 30 34 38 38 30 31 36 39 42
94 96 97 97 97 97 96 97 97 97 97 96 94 90 88 85 82 80 77 76 75 75 73 68 66 66 66 60 54 50 47 46 45 41 37 35 32 29 27 25 25 25 27 29 32 36 37 32 31 33 36 40 42 44
96 97 95 94 94 95 96 96 96 96 97 95 92 90 87 84 81 79 79 77 75 73 70 69 69 66 62 58 54 53 49 42 39 37 34 29 28 27 26 25 26 27 30 33 37 37 36 33 33 38 41 46 49 52
97 96 96 95 96 96 96 96 96 97 97 95 93 90 87 85 84 80 79 78 76 76 76 73 68 64 61 57 54 46 41 40 36 31 30 29 27 26 26 26 28 31 34 38 39 38 34 34 40 47 52 54 56 59

GFSWCAN_prec_cthk_108.txt.gz
RH
91 89 84 82 80 69 41 33 34 42 41 38 42 46 57 56 53 55 55 71 80 74 70 66 68 63 63 56 44 45 44 44 45 43 37 34 33 35 37 35 36 32 35 36 38 45 36 35 46 47 46 47 55 62
93 89 86 82 77 63 39 33 36 42 40 37 40 48 55 55 57 58 61 75 78 73 68 67 64 61 59 53 43 43 39 41 40 40 39 34 32 38 35 28 35 35 30 31 32 28 31 38 39 41 45 49 51 51
91 88 85 81 75 55 40 33 37 40 41 33 42 51 59 58 60 63 71 79 75 71 71 65 62 59 54 47 40 42 40 40 39 38 39 35 31 33 32 31 32 34 34 34 35 30 31 34 38 40 43 46 48 48
91 89 85 79 71 51 41 37 36 38 41 32 37 49 56 59 60 73 76 79 76 68 65 60 58 52 50 53 50 43 42 41 40 40 40 35 30 31 30 29 29 29 35 34 33 31 32 33 34 36 42 44 45 46
92 90 85 78 64 49 41 39 35 39 41 36 34 45 55 60 66 76 79 74 70 68 69 63 53 54 57 55 52 45 46 44 42 42 40 37 34 31 33 34 30 26 28 28 25 26 26 29 31 36 39 41 41 41
93 90 86 74 59 48 45 42 38 35 40 40 34 40 57 62 71 80 83 84 72 70 71 69 62 61 62 64 61 59 53 46 44 45 43 40 38 32 33 31 22 24 25 25 25 27 28 30 33 39 33 36 39 43
93 88 83 66 55 50 47 41 36 34 38 42 37 40 59 64 73 79 78 76 73 73 72 75 69 70 72 69 68 64 56 50 48 50 48 43 39 35 37 30 21 24 26 27 28 28 31 32 36 35 34 39 43 45
88 82 70 61 57 52 44 38 36 36 38 42 39 43 64 69 74 80 80 77 78 74 71 76 75 69 67 70 69 64 60 56 54 55 53 44 40 37 36 24 25 26 28 30 30 30 32 34 36 37 39 45 49 46
81 73 65 61 54 47 40 40 40 42 43 52 49 52 75 72 73 77 80 80 82 78 70 72 74 77 71 70 68 67 62 60 57 56 50 45 40 39 24 23 25 26 28 29 30 33 35 37 37 39 43 46 51 52
71 64 58 51 47 46 47 50 54 55 58 62 61 63 79 75 76 80 84 83 83 79 70 68 72 74 70 70 65 65 64 59 58 53 50 48 39 28 24 24 25 27 29 30 33 35 36 37 38 41 45 48 52 54
65 57 52 52 50 52 55 60 67 73 75 74 66 65 85 83 85 87 91 89 84 79 71 69 70 71 70 68 69 61 60 59 58 55 53 49 42 30 26 25 26 28 31 32 33 33 34 37 40 43 46 48 52 54
59 51 48 48 49 52 58 66 79 82 82 77 60 71 95 93 91 90 92 90 84 74 68 68 70 71 72 69 71 75 72 70 60 57 54 49 35 30 28 27 28 30 32 33 34 35 35 37 42 44 46 48 52 54
53 48 47 46 49 54 62 68 78 85 88 88 83 98 98 97 98 89 80 74 72 66 64 66 72 73 74 73 75 76 75 65 62 60 50 42 38 35 31 30 31 33 35 35 35 37 38 41 44 44 46 47 49 50
52 50 50 47 47 55 67 76 87 90 94 90 96 98 98 97 80 66 58 57 57 58 62 64 72 74 75 76 77 76 70 65 67 62 48 38 39 38 33 34 35 36 36 36 37 36 39 43 46 46 46 49 50 48
54 57 58 57 58 67 78 87 95 98 96 97 98 98 96 82 69 65 61 58 56 61 64 71 77 76 79 77 76 76 74 71 58 47 41 38 37 37 34 35 36 37 38 36 36 38 41 44 47 48 48 49 47 45
61 67 70 75 75 79 90 98 99 98 94 95 97 95 83 77 75 72 67 63 61 64 66 68 76 77 73 73 73 73 65 57 51 46 38 35 38 39 38 39 38 39 38 36 37 38 42 46 49 49 48 45 46 51
70 73 80 83 86 97 99 99 99 97 97 98 92 84 81 76 77 75 70 67 67 66 65 66 72 70 69 73 68 61 57 51 46 41 38 37 37 40 42 41 42 40 38 38 39 42 45 48 50 50 47 47 49 49
82 81 84 88 94 99 99 98 96 94 92 97 94 87 85 84 84 78 75 72 70 67 64 65 65 71 66 63 63 57 53 51 46 44 43 40 43 44 43 42 42 40 39 41 43 44 46 48 46 43 42 42 41 41
88 92 92 93 95 95 99 98 96 97 97 97 88 86 88 85 82 78 76 74 71 68 66 68 67 66 62 61 57 54 52 51 50 50 47 45 47 46 46 45 43 42 44 45 45 44 45 44 43 41 41 40 39 38
97 98 99 99 98 93 97 96 94 98 98 98 90 81 95 86 83 82 81 77 71 70 70 66 62 61 63 58 52 49 52 50 49 49 49 50 50 48 48 47 45 45 47 48 48 47 47 45 43 41 39 39 39 36
99 99 97 95 92 98 98 98 98 97 90 94 86 89 97 92 88 85 82 77 73 68 68 65 63 62 58 56 56 53 52 51 50 47 46 49 50 51 53 52 49 49 48 50 49 49 49 47 44 41 40 41 40 38
98 99 98 97 98 98 98 96 96 98 94 91 92 92 97 97 97 94 88 82 77 71 68 64 64 67 62 58 56 57 56 55 54 53 53 52 51 54 54 52 52 52 52 51 52 51 50 47 45 43 41 42 40 39
97 99 99 98 98 98 97 94 89 94 96 95 96 95 96 97 97 97 96 92 82 74 69 67 67 69 64 61 60 60 59 60 58 57 56 56 57 57 55 55 55 55 54 53 53 51 50 49 46 43 41 39 38 38
99 99 99 98 97 97 96 95 91 94 95 98 96 96 94 94 96 97 93 91 88 80 76 74 68 64 64 65 66 67 62 60 61 59 57 58 57 55 55 54 53 52 51 50 48 47 47 48 46 42 41 39 38 36
98 98 98 98 97 95 93 93 90 89 92 91 95 96 96 97 96 95 92 90 87 85 88 89 81 77 72 71 71 66 63 62 59 55 55 56 55 56 55 54 52 48 46 43 43 44 45 43 39 35 31 27 25 23
98 96 97 89 87 85 89 90 86 87 89 96 96 97 97 96 96 95 91 88 88 88 89 89 86 83 81 74 69 68 66 64 59 59 59 59 59 57 54 48 45 44 40 38 38 35 32 29 26 24 24 27 29 29
97 91 82 83 83 76 81 82 88 94 97 95 95 97 97 96 95 90 85 82 84 86 87 90 88 86 80 79 76 73 72 67 61 61 62 62 59 51 47 42 38 37 36 34 31 30 28 26 27 27 28 30 35 35
81 82 80 78 79 76 79 78 83 91 97 96 94 96 96 94 90 86 81 79 81 83 86 88 89 86 82 79 78 75 70 64 65 66 64 55 49 43 41 38 37 36 34 33 30 29 27 26 28 31 34 34 27 26
79 80 81 83 83 84 87 89 91 92 92 95 97 96 96 92 85 82 80 77 83 88 85 88 89 87 84 78 73 69 68 69 67 59 51 47 45 42 40 39 37 35 32 30 27 27 28 31 33 33 28 27 29 31
89 86 93 95 93 92 90 90 93 92 94 97 97 97 96 87 81 79 79 80 84 87 87 86 84 81 75 71 70 71 69 62 56 52 48 44 42 41 39 37 33 30 29 28 29 30 32 33 30 29 29 29 31 38
97 93 95 97 96 95 96 97 97 97 97 97 97 97 94 92 90 84 81 81 83 83 83 82 79 76 73 72 70 66 59 56 54 49 47 45 41 39 36 32 31 30 29 30 32 33 31 31 31 30 30 35 43 47
96 97 96 97 97 97 97 97 97 97 97 97 97 93 91 89 86 86 84 81 80 81 80 77 75 73 73 71 66 60 57 54 51 49 44 41 39 35 32 32 31 30 31 33 33 32 32 32 34 37 43 47 48 48
97 97 97 97 97 97 97 97 97 97 97 97 97 94 90 88 87 86 85 81 80 80 77 76 75 74 71 68 64 59 56 52 46 44 42 38 34 32 32 31 31 32 34 34 33 33 34 36 42 48 47 49 50 49

GFSWCAN_prec_cthk_111.txt.gz
RH
90 89 85 86 83 81 73 65 41 24 31 31 30 37 41 52 51 49 52 62 69 68 66 61 59 57 54 52 45 42 40 39 39 40 36 31 28 30 30 28 29 29 33 33 31 37 34 27 35 39 42 41 44 45
90 90 87 87 83 81 73 66 40 28 29 33 29 34 44 54 52 53 53 56 66 68 65 61 56 57 54 57 52 43 38 35 37 38 38 35 32 32 29 25 29 30 25 30 26 27 27 27 33 33 35 38 43 44
88 91 87 89 85 84 76 66 42 31 32 35 29 33 46 53 55 56 53 53 60 67 66 63 58 56 56 54 50 42 39 37 35 35 37 36 34 32 28 28 27 28 28 29 30 25 25 30 31 31 36 37 39 42
90 91 88 90 86 86 79 69 48 35 34 36 32 31 46 55 55 57 57 59 66 66 62 60 57 55 53 51 47 40 40 38 37 37 38 37 34 32 29 27 26 26 29 28 28 24 26 26 28 32 32 35 37 40
91 92 93 94 90 88 80 72 52 39 40 38 35 28 41 56 58 59 61 65 70 64 61 61 58 54 51 48 46 49 48 44 42 41 40 38 36 33 33 30 24 22 22 26 22 23 23 25 26 28 32 34 34 34
93 94 95 95 94 92 83 72 56 46 44 40 39 34 32 54 63 66 67 71 74 69 63 66 62 54 50 47 52 52 53 51 48 44 42 39 39 36 37 30 19 19 20 22 23 23 23 24 26 29 33 30 33 37
95 95 95 94 94 93 88 72 60 55 48 44 42 41 33 48 68 66 63 68 77 72 64 68 66 63 53 50 54 58 60 59 53 51 47 45 44 41 42 31 21 19 20 23 23 25 27 28 27 31 31 32 36 40
92 95 95 95 97 93 85 69 65 60 51 49 45 47 41 42 66 72 68 70 77 76 70 72 72 64 61 59 60 63 65 64 58 54 55 51 47 42 39 23 22 21 22 24 25 26 27 28 30 32 33 35 40 43
90 94 94 96 95 94 79 66 65 61 55 50 50 53 55 49 63 70 73 71 84 85 76 68 72 73 63 63 62 64 62 63 59 58 57 52 45 44 29 22 21 22 23 25 27 29 29 30 30 33 36 40 42 45
94 96 95 96 96 87 75 69 64 58 54 53 59 61 60 54 57 67 80 79 76 83 75 66 68 70 69 68 66 65 62 63 61 56 56 51 40 32 29 26 23 22 25 27 28 30 30 31 32 34 37 42 44 45
97 99 98 98 93 80 75 70 63 58 61 65 65 63 60 56 63 73 82 83 79 77 75 65 67 68 70 70 71 66 66 61 59 57 52 50 41 34 30 27 24 24 26 29 29 30 30 31 32 35 39 43 44 47
98 98 95 89 82 77 69 64 64 66 63 62 65 69 70 72 77 81 82 82 78 65 60 62 66 67 70 72 71 67 69 67 63 57 55 52 37 29 30 28 26 27 29 31 32 32 32 31 34 38 41 44 45 48
97 97 91 83 79 74 68 67 69 70 70 75 79 80 79 81 83 84 77 75 71 59 53 58 68 70 73 75 73 72 74 70 65 64 56 44 38 34 34 30 28 31 33 34 34 36 35 35 37 39 41 45 47 47
94 90 84 76 72 70 69 71 75 76 79 82 85 87 87 85 73 75 63 61 57 55 54 57 69 74 74 75 75 77 71 69 67 64 53 43 37 35 35 34 32 32 34 35 37 38 36 36 38 41 44 47 49 49
86 81 77 71 63 63 68 70 76 80 83 87 89 89 87 78 82 69 74 68 59 57 59 64 78 77 79 79 77 78 75 70 59 53 49 44 37 35 38 37 33 34 37 38 39 38 36 38 39 42 46 48 50 47
83 80 74 61 56 63 65 74 82 85 87 92 90 88 86 87 91 88 74 80 74 66 68 73 83 85 79 79 77 72 65 59 55 54 46 38 33 37 39 37 36 37 38 39 39 39 39 41 43 46 48 48 48 45
81 70 63 60 59 56 64 80 84 87 90 91 92 85 90 86 78 84 83 78 79 77 67 77 86 80 77 75 67 59 59 55 59 53 46 40 35 38 38 39 39 40 41 39 38 39 40 42 45 48 49 48 46 46
72 67 61 57 63 71 76 80 85 90 91 94 90 76 78 97 78 80 93 86 80 79 75 74 74 81 72 66 60 57 58 58 58 54 47 42 40 40 39 41 42 42 41 40 40 40 43 45 48 48 46 43 42 42
68 62 66 70 73 78 84 90 92 93 92 85 79 74 76 92 90 77 88 90 79 83 79 76 76 73 64 59 60 62 60 58 59 55 45 45 45 44 45 46 45 43 43 41 43 45 46 46 47 45 43 41 40 39
68 74 75 80 88 90 93 97 94 88 81 74 76 84 95 94 89 92 90 95 87 87 88 78 65 57 58 59 59 57 57 58 54 54 52 50 51 49 48 48 45 45 45 45 46 46 47 48 46 44 43 40 39 39
81 85 91 92 92 93 97 96 93 87 74 78 84 89 98 98 93 90 94 94 93 93 87 76 70 64 62 64 63 60 58 58 58 53 49 50 51 50 51 49 47 49 49 49 48 49 50 50 47 45 43 41 41 41
85 91 95 98 95 94 89 84 84 81 79 92 86 96 98 96 92 93 97 97 95 88 83 77 70 67 65 63 63 64 62 57 57 54 52 52 52 52 52 51 52 52 52 51 51 52 52 51 49 45 44 42 41 39
95 95 98 96 94 91 96 98 97 95 91 93 97 98 98 95 97 92 90 88 89 87 84 78 74 72 70 66 61 58 60 61 59 57 56 56 57 57 57 56 57 56 55 55 55 55 53 51 49 47 45 43 41 38
97 99 98 97 93 95 96 97 98 97 97 97 97 94 97 95 95 97 94 93 87 80 81 79 75 74 72 75 70 64 62 61 60 60 62 61 60 60 59 59 60 59 59 57 56 53 50 47 46 46 43 40 37 33
98 98 98 94 94 98 98 96 95 94 95 97 97 97 98 96 96 95 89 90 93 94 89 83 79 72 71 73 74 70 63 60 61 62 63 65 63 62 62 62 61 59 56 53 50 48 45 45 44 40 35 29 26 27
97 97 97 96 92 89 93 90 82 82 86 92 91 90 96 95 93 89 84 83 89 93 92 88 82 76 75 70 64 63 65 73 69 66 66 62 62 60 60 61 60 55 50 47 45 43 40 35 31 28 28 29 29 31
97 93 93 95 79 71 74 72 73 77 84 84 81 88 92 93 93 89 88 88 89 94 95 91 83 79 74 75 79 82 78 73 72 70 67 64 63 64 64 60 53 47 42 41 37 34 31 31 31 30 29 31 34 32
96 95 85 77 73 69 71 77 84 83 77 73 75 86 92 90 92 90 88 89 95 96 96 95 91 88 87 88 85 78 79 77 77 75 69 67 69 68 59 49 44 43 39 37 35 33 32 30 29 31 33 32 28 27
93 85 82 81 80 82 80 77 74 74 74 74 77 83 87 87 86 86 86 87 89 91 93 95 97 96 94 93 87 85 84 83 79 72 70 71 66 55 49 45 43 40 39 35 33 32 32 31 32 32 30 28 28 29
87 87 87 86 81 78 73 70 70 72 74 77 84 90 90 86 84 85 88 87 88 90 92 94 97 97 93 90 90 90 84 76 72 73 68 62 55 50 47 44 41 39 34 33 32 32 31 32 31 30 29 30 33 37
89 85 86 86 81 77 75 79 83 82 79 84 91 97 97 92 88 85 86 86 89 93 93 96 97 97 96 95 89 80 76 76 72 65 61 53 51 50 45 42 37 35 34 33 32 32 32 32 31 30 32 36 39 42
90 87 84 87 91 90 93 95 92 93 97 96 96 96 97 97 96 90 89 91 95 97 97 97 96 94 92 86 80 78 74 67 64 59 54 53 49 44 42 37 36 33 33 33 34 33 33 32 32 34 38 40 42 45
96 97 96 94 97 97 97 97 97 96 97 97 97 97 97 92 93 90 86 86 89 92 92 93 92 88 85 83 78 74 70 64 61 57 54 48 44 41 38 36 34 34 35 35 34 34 33 33 36 39 41 44 45 46

GFSWCAN_prec_cthk_114.txt.gz
RH
86 84 82 85 83 81 80 78 69 56 30 19 28 28 32 39 43 44 50 59 62 61 58 54 50 51 49 46 44 41 40 38 36 39 42 41 30 35 29 26 29 33 40 40 34 40 40 25 28 36 34 35 37 38
86 85 83 86 85 81 82 79 74 60 40 22 26 30 28 38 50 45 49 58 63 64 59 54 53 51 49 47 47 42 41 35 35 35 38 38 41 39 31 35 29 33 26 35 29 31 24 23 26 27 29 31 34 38
88 87 87 89 86 83 83 82 78 67 51 31 30 29 25 32 50 49 47 55 60 64 63 58 55 53 49 47 48 50 41 37 34 34 35 36 36 35 38 37 27 26 25 28 27 23 23 22 25 27 27 29 30 34
89 87 89 87 87 85 87 85 81 75 60 39 34 32 26 33 47 52 50 53 56 57 61 60 57 54 50 50 49 50 48 37 35 34 35 41 37 31 33 30 30 25 28 28 26 23 24 23 24 26 27 28 30 32
93 92 90 87 87 88 87 87 84 80 68 46 39 38 36 32 47 53 53 53 57 55 62 58 55 53 52 52 50 49 47 41 43 43 41 43 38 35 32 33 31 22 23 27 27 20 22 22 22 24 26 27 31 31
95 95 96 91 87 90 90 89 86 85 74 55 47 43 40 36 46 56 56 58 59 61 65 65 56 56 55 53 51 50 48 46 48 48 46 42 42 38 40 41 24 23 20 18 21 23 22 22 23 24 25 29 28 30
97 97 97 94 92 92 94 93 93 91 78 65 58 50 48 39 44 53 58 56 59 66 69 70 64 59 59 57 53 51 51 51 52 54 51 47 47 42 45 42 25 23 20 20 21 22 24 23 24 25 26 27 29 32
99 98 97 95 94 96 98 95 96 95 83 74 67 60 56 50 43 54 60 62 62 65 71 75 67 62 61 61 56 52 53 54 54 56 57 52 52 50 47 33 27 23 20 20 21 23 22 23 25 26 27 29 32 36
97 97 96 96 94 97 99 97 98 96 86 76 74 75 68 60 50 43 56 67 70 68 66 63 63 68 64 66 66 60 59 63 59 61 60 55 53 52 37 31 27 21 19 19 22 25 25 25 26 27 29 32 36 38
96 96 99 95 95 96 99 98 98 96 89 86 84 80 74 66 55 49 57 71 73 73 69 57 53 65 65 70 72 70 64 65 65 58 58 58 50 41 36 31 27 24 21 21 24 27 28 29 28 28 30 34 37 39
92 96 96 98 95 97 98 98 98 95 95 92 88 86 82 76 68 62 66 69 72 67 65 59 52 57 66 73 78 71 71 66 65 59 61 57 51 42 31 28 28 26 24 23 23 25 27 28 29 29 32 35 38 40
92 94 96 97 98 98 98 98 98 97 94 89 88 90 89 83 74 69 67 62 64 64 64 57 53 51 60 72 78 74 75 74 69 60 60 57 47 37 29 28 28 27 25 26 26 27 29 30 30 30 32 36 39 41
98 98 96 97 98 99 98 97 97 97 95 97 97 97 95 88 81 72 63 58 57 58 55 52 57 56 58 68 78 81 83 75 67 67 61 48 46 41 35 32 30 28 27 28 29 30 31 31 31 31 34 37 41 42
97 97 98 99 99 99 98 98 98 96 97 97 97 97 92 81 70 62 58 50 49 49 48 53 59 63 64 68 80 87 80 76 71 69 57 48 45 44 40 35 33 32 31 30 31 32 32 33 33 35 36 38 42 43
99 99 99 99 99 98 98 97 97 96 98 97 95 91 75 61 62 58 54 52 51 50 58 64 70 71 75 78 75 87 86 75 62 57 50 49 48 46 42 38 36 37 36 33 33 34 34 34 35 36 37 39 43 45
99 99 97 98 98 98 97 97 98 98 96 97 89 76 67 62 61 60 59 60 64 66 71 69 77 82 81 76 77 71 71 63 57 54 54 54 50 47 44 38 37 38 37 35 36 35 36 36 37 38 38 42 45 45
98 97 98 98 98 97 97 98 98 96 93 88 78 76 69 62 59 57 59 62 69 78 81 84 81 74 75 76 67 59 61 55 55 56 60 60 56 46 37 39 40 40 39 38 38 37 39 40 39 40 43 44 45 43
97 98 98 97 96 98 98 97 99 97 90 82 77 71 71 67 70 67 62 65 79 85 86 85 85 78 67 58 56 54 56 56 60 64 64 63 59 51 44 42 43 42 42 40 38 37 39 40 41 43 44 45 44 41
99 97 96 97 96 97 97 96 94 89 81 77 75 77 83 80 75 71 71 75 80 83 92 87 96 90 67 58 54 54 60 69 69 69 68 66 64 58 51 44 47 46 44 41 39 40 42 45 45 44 43 42 41 40
97 96 97 95 95 97 97 93 86 82 83 82 83 85 84 81 83 86 84 85 91 89 98 89 78 81 73 64 61 59 62 66 69 73 73 71 68 56 47 50 51 49 46 44 43 44 46 47 44 44 43 42 41 39
98 97 97 96 97 94 87 82 81 83 84 87 86 87 87 89 88 85 88 92 93 92 91 88 83 75 73 64 62 61 64 65 69 67 68 71 71 58 53 55 54 50 47 45 46 49 50 49 48 47 45 43 41 39
98 97 94 94 89 83 82 83 83 84 86 85 88 89 89 87 87 87 87 92 88 87 86 86 89 82 76 73 64 65 67 64 64 66 72 68 66 61 60 57 54 52 50 49 51 53 53 52 51 49 46 44 42 41
94 95 91 87 85 84 90 87 87 82 82 85 89 90 86 84 85 88 88 79 79 82 91 96 92 89 85 77 75 71 71 77 74 68 70 69 64 62 59 58 57 54 55 56 57 57 56 56 53 48 46 43 42 41
94 90 88 89 89 90 91 92 83 82 80 83 84 84 83 87 94 92 81 73 71 81 94 96 97 94 92 86 83 77 68 74 77 72 68 68 65 64 63 60 61 62 61 63 62 61 59 54 50 48 48 46 41 36
92 93 93 92 91 90 91 87 88 90 84 81 80 90 90 89 96 94 83 76 87 88 92 96 98 98 97 93 89 84 77 69 67 69 71 69 64 64 67 70 68 68 68 66 64 60 54 50 48 47 43 36 32 30
96 94 93 88 87 82 82 84 85 89 87 92 96 96 94 95 96 94 90 84 91 95 91 92 96 98 97 93 91 85 84 74 73 72 68 67 70 71 71 70 69 70 69 65 58 52 49 47 44 37 32 31 31 32
98 97 91 82 80 76 82 96 91 91 97 93 92 96 95 96 97 93 84 81 85 88 89 91 93 96 95 91 86 85 88 82 76 68 72 79 82 77 73 69 70 70 64 56 50 48 42 37 34 34 32 31 33 31
98 94 85 80 81 79 82 86 81 83 84 81 84 88 82 81 83 85 82 81 82 89 93 98 98 97 95 86 84 85 83 77 71 77 84 86 82 77 72 73 71 62 53 47 44 39 37 36 33 32 33 32 30 30
87 88 86 86 87 90 85 85 79 78 77 75 79 78 77 77 84 85 86 88 91 96 97 97 97 97 93 91 88 81 78 79 84 88 88 84 79 77 78 70 58 52 48 44 41 39 35 34 34 33 31 31 30 30
87 83 87 86 83 86 86 78 74 71 72 76 75 73 71 76 80 83 82 87 95 98 98 97 97 96 95 92 92 91 89 88 88 90 86 79 77 75 64 58 52 50 46 41 38 36 35 34 33 32 32 31 32 33
92 89 86 89 87 87 91 86 79 77 75 74 75 72 74 76 80 81 83 87 92 96 97 97 97 97 97 97 95 94 94 94 94 87 82 80 72 64 57 53 52 47 40 38 37 35 34 33 32 31 31 33 33 33
88 91 92 93 95 94 94 89 81 76 74 73 76 77 74 79 90 91 86 84 90 96 97 97 97 97 98 97 97 97 97 93 86 83 78 70 60 55 54 52 45 40 39 37 36 35 34 32 31 32 33 34 34 34
85 86 89 91 91 89 83 78 77 77 78 79 81 82 80 86 96 95 96 95 97 97 97 97 97 98 97 97 97 95 90 86 79 72 67 61 58 54 51 45 40 39 38 36 35 34 33 32 32 34 35 35 34 38

GFSWCAN_prec_cthk_117.txt.gz
RH
97 96 93 88 88 84 82 78 76 70 62 47 18 22 25 24 27 30 36 40 46 51 50 50 51 49 47 42 41 39 35 36 36 38 41 43 32 34 30 27 30 32 38 39 36 41 30 26 29 28 25 29 28 29
97 97 95 90 88 85 85 82 77 75 71 60 37 24 26 21 24 35 38 40 48 50 50 51 51 50 48 48 45 44 41 36 35 38 38 38 37 40 32 34 27 30 26 30 30 24 20 23 21 22 25 26 28 29
98 98 96 92 87 87 85 85 81 77 75 67 56 33 33 26 23 33 41 42 47 51 53 52 51 51 52 50 47 46 44 40 36 37 38 36 36 37 37 37 29 27 26 28 24 17 20 20 22 22 24 25 27 30
98 97 98 95 89 92 90 87 85 82 78 73 66 46 41 36 27 36 41 43 43 50 52 50 51 52 50 50 49 47 48 49 45 38 36 38 36 34 35 29 30 26 27 26 27 21 20 19 20 21 22 24 26 27
97 97 98 98 94 94 95 91 91 87 84 79 72 58 51 45 38 40 43 45 47 42 46 43 42 48 51 49 49 49 49 49 50 46 44 42 40 37 37 37 34 26 26 28 24 17 17 17 17 20 22 24 25 26
98 98 97 97 98 97 98 98 93 93 88 84 78 65 62 58 51 50 46 49 50 50 46 47 41 45 47 52 51 50 50 51 52 53 49 44 45 40 45 45 29 25 24 23 21 18 19 20 20 21 23 24 24 26
93 96 98 97 96 97 98 99 99 94 94 91 82 71 68 69 60 61 58 54 53 57 54 48 42 43 48 53 55 55 54 52 51 52 50 48 48 47 47 47 32 30 26 23 20 21 23 22 22 22 23 23 25 26
93 95 96 96 96 98 98 98 98 98 98 95 87 80 75 75 69 66 67 63 61 65 62 62 53 42 44 50 54 57 56 55 52 50 52 52 52 51 49 39 34 33 26 22 21 20 20 22 23 22 24 24 25 28
87 94 96 99 96 95 98 98 98 98 98 95 91 88 84 81 80 70 67 72 73 67 66 64 57 48 44 46 55 61 61 62 55 54 51 51 52 53 40 40 37 34 29 24 21 21 21 23 23 24 25 25 26 30
92 89 96 98 98 97 97 99 98 98 98 98 95 94 88 87 86 81 77 80 80 75 67 63 58 57 48 49 52 60 63 66 67 59 57 58 51 43 41 39 37 35 30 29 27 25 23 24 25 26 26 26 27 31
98 98 99 99 99 99 99 99 99 98 98 96 96 94 92 93 94 88 83 78 78 74 67 64 60 60 56 55 55 55 62 66 69 58 62 58 52 44 42 40 36 36 31 28 25 20 21 22 25 27 28 28 31 33
96 98 99 99 99 99 99 98 98 97 97 96 96 97 98 97 96 94 87 79 72 69 66 65 61 57 55 54 58 58 59 66 68 62 64 57 44 40 43 41 37 35 30 29 27 24 24 25 27 29 29 31 33 35
99 98 99 98 97 99 99 99 98 98 98 98 97 96 94 96 96 86 83 72 69 71 72 64 63 59 60 58 61 62 65 59 52 65 60 49 42 43 50 48 41 40 32 29 29 28 28 28 30 30 31 32 34 37
98 98 98 99 98 98 98 98 98 99 98 97 96 96 93 89 79 72 65 69 71 70 68 67 66 62 60 62 61 65 59 59 61 57 52 46 41 46 54 53 48 44 38 33 30 31 31 31 31 32 32 34 37 38
97 98 99 95 95 98 98 99 96 98 97 96 95 93 83 74 73 66 65 68 69 68 67 70 73 67 71 70 65 64 69 61 47 39 36 37 43 49 58 56 52 49 43 36 34 35 35 34 33 33 34 37 39 41
93 96 98 98 98 98 98 98 98 97 97 97 91 84 77 76 73 72 72 74 72 73 75 75 80 78 75 70 71 63 59 52 41 38 31 34 40 50 62 57 52 52 50 44 39 39 39 37 35 34 36 39 41 44
98 97 96 98 99 98 98 98 98 98 95 91 81 77 75 71 71 75 76 75 73 77 77 81 80 69 70 71 64 56 50 42 40 42 39 35 43 59 69 67 50 47 54 51 44 43 42 40 38 38 38 41 45 47
98 97 98 99 98 98 98 98 98 96 90 83 79 74 76 74 77 78 75 75 75 73 72 68 63 68 66 61 58 49 45 43 46 46 43 36 37 52 61 71 58 43 51 49 44 44 44 41 39 40 43 46 49 48
98 98 98 98 97 97 97 97 96 92 83 79 79 76 78 79 78 78 74 68 67 65 70 68 73 70 69 66 61 54 52 53 53 48 42 38 48 63 65 71 68 60 55 51 50 49 45 41 42 44 47 51 50 49
99 98 98 98 98 98 98 97 95 95 89 84 85 87 87 84 80 75 71 71 73 77 77 71 68 67 64 59 65 65 69 69 67 60 52 51 71 78 78 75 68 61 58 55 55 52 48 46 46 49 52 51 49 48
98 98 98 98 98 98 97 96 97 92 91 87 88 91 92 87 80 71 71 77 85 81 80 71 61 57 64 68 72 76 78 80 80 70 68 71 78 81 82 80 78 69 56 54 55 54 50 47 49 53 54 51 50 47
99 98 97 98 98 97 97 95 94 92 92 91 94 90 84 79 74 75 81 87 83 74 68 65 63 69 74 74 74 78 82 80 69 72 76 77 78 79 78 83 75 64 57 56 56 50 50 53 56 58 55 53 49 46
98 98 99 98 97 97 97 96 96 95 95 93 88 86 81 78 75 79 86 80 72 67 63 65 69 73 72 74 78 80 82 87 88 75 73 76 77 79 81 83 78 63 58 58 52 52 56 60 63 61 59 54 48 45
98 98 98 98 96 97 95 96 93 93 89 82 81 84 81 79 80 84 76 63 54 57 58 58 63 68 72 74 79 83 84 86 90 81 88 87 79 82 82 77 69 64 61 57 59 61 64 68 68 64 58 53 50 46
98 98 98 96 94 93 92 91 91 85 81 83 84 83 80 79 80 76 67 62 65 58 54 57 64 70 76 84 90 97 93 96 87 79 89 92 81 82 80 80 79 74 68 61 65 70 73 72 68 59 54 50 43 38
97 96 95 90 89 85 89 89 86 83 83 81 79 78 78 80 81 74 63 64 68 63 61 64 70 73 79 88 97 98 97 98 91 85 90 88 81 81 78 73 71 70 73 77 77 76 76 69 58 52 46 40 36 34
97 92 90 91 88 84 82 79 78 78 76 74 76 80 83 88 80 67 72 79 81 79 80 86 93 94 94 98 98 98 98 98 94 85 84 84 85 83 80 75 79 84 82 80 81 77 65 56 49 41 37 36 35 35
95 91 86 84 83 78 80 82 82 78 72 72 77 84 83 73 69 76 77 82 83 82 84 87 90 97 98 98 98 97 97 98 94 90 91 90 86 83 87 90 88 85 84 84 75 61 52 43 39 37 36 35 34 31
93 90 86 85 81 80 79 73 69 72 72 72 71 73 71 71 74 77 79 84 93 95 94 94 95 98 98 97 97 97 98 98 94 92 91 88 89 92 90 89 84 84 83 68 55 49 43 39 37 36 35 33 32 30
91 88 89 88 84 77 72 71 74 74 72 70 70 72 78 79 79 79 80 86 91 96 97 97 97 97 97 97 97 97 97 98 97 90 83 85 90 91 87 86 86 76 59 52 49 43 38 37 37 35 34 32 31 32
87 88 88 85 81 78 79 81 81 79 75 73 76 80 79 75 73 71 73 82 85 95 97 97 97 97 97 97 96 97 97 96 94 94 96 94 90 87 88 81 67 58 53 49 40 38 38 37 35 34 32 32 31 30
89 87 87 84 81 83 84 84 85 84 81 78 76 74 74 75 72 73 79 80 85 95 97 97 97 97 97 97 97 97 94 94 96 96 90 87 86 86 76 65 56 54 47 40 40 39 38 36 34 32 31 31 30 29
87 88 87 87 86 86 86 86 88 89 85 83 78 75 76 79 76 70 74 79 89 93 97 97 97 97 97 98 97 96 97 98 97 92 91 88 80 68 60 56 54 46 41 40 40 38 36 35 33 30 30 30 30 31

GFSWCAN_prec_cthk_120.txt.gz
RH
95 95 95 93 91 89 85 83 78 72 71 67 58 38 19 21 18 22 28 34 38 42 42 43 45 45 43 43 40 37 36 36 36 39 42 42 33 32 34 27 29 29 37 40 38 40 22 23 28 26 18 22 23 26
95 97 97 95 94 92 88 84 83 75 73 72 67 58 33 26 24 21 25 33 36 36 39 41 44 44 43 43 42 42 39 40 36 38 42 41 39 39 33 30 28 32 25 27 27 23 16 21 17 18 19 21 23 23
94 98 97 98 96 98 94 89 88 82 77 75 73 68 56 40 34 26 27 36 39 42 35 38 36 42 43 44 47 45 44 41 43 41 41 40 39 38 38 38 29 27 27 28 25 17 18 18 19 20 20 21 23 23
91 96 95 97 97 98 96 92 92 88 86 82 76 74 66 53 50 41 36 39 41 41 38 32 37 40 41 43 42 45 46 45 45 46 43 44 39 33 34 31 33 28 30 29 27 21 20 17 17 18 21 22 23 24
89 92 96 95 96 98 98 95 94 95 94 91 89 84 76 62 58 56 52 49 48 49 46 35 31 35 40 42 42 42 45 46 48 49 51 50 46 42 38 38 39 32 31 29 26 22 20 17 15 16 20 21 22 23
79 85 92 96 96 96 95 96 93 97 98 96 95 94 87 73 67 65 68 61 56 59 56 48 37 33 35 37 40 43 46 47 47 49 51 48 47 47 47 45 33 32 31 28 26 24 22 20 18 17 19 21 23 23
76 83 92 93 97 97 96 95 98 99 99 98 98 98 93 85 79 75 70 68 65 68 65 63 51 41 38 36 40 45 49 50 51 50 51 50 50 49 51 43 36 33 31 31 29 27 25 20 20 20 21 22 23 23
77 83 91 96 97 98 99 97 98 98 99 99 98 98 96 93 87 85 85 82 77 75 75 72 62 52 46 42 41 41 43 50 51 49 50 52 51 51 49 39 39 36 34 35 31 27 22 21 20 22 24 23 23 23
75 84 90 98 99 98 99 98 98 99 99 99 98 96 98 93 91 92 88 90 88 80 76 73 71 62 56 48 44 46 48 49 48 52 49 50 50 50 39 40 42 38 36 34 33 30 28 25 20 21 23 24 24 24
71 81 92 94 98 99 99 99 97 99 98 98 98 95 95 93 96 95 94 95 94 84 76 71 71 70 64 61 57 52 52 51 52 45 45 49 43 35 36 40 43 43 41 37 37 37 35 29 25 22 21 23 25 26
63 79 91 99 99 97 98 99 99 99 98 96 96 96 97 98 97 97 95 92 88 81 74 72 74 78 74 71 65 60 63 59 56 44 48 46 40 30 30 37 41 43 44 41 38 38 33 30 26 22 23 25 27 28
57 64 84 97 99 98 98 98 98 98 96 93 98 99 99 97 97 96 92 87 78 73 70 71 72 74 77 75 75 74 74 73 62 50 52 46 30 22 23 33 42 43 43 43 40 38 34 31 27 23 24 26 29 30
69 66 71 80 98 99 99 98 97 99 98 98 97 97 95 95 96 87 76 77 76 71 77 77 81 83 84 83 83 80 81 73 60 59 51 38 26 22 21 23 42 48 48 45 45 40 35 32 30 27 26 28 31 33
73 66 68 80 99 98 99 98 98 96 97 97 97 97 96 93 83 68 65 69 70 74 78 82 85 83 82 86 85 85 74 72 70 62 47 34 26 20 18 20 36 50 53 52 48 45 39 31 31 31 30 31 33 35
85 89 73 77 98 99 99 98 97 99 98 97 97 95 87 78 71 68 67 70 75 79 82 89 89 84 87 85 80 77 80 74 62 51 41 32 28 25 26 31 39 51 55 56 56 51 43 33 35 35 34 33 35 36
85 82 82 87 94 97 98 98 99 99 98 97 96 89 78 78 79 75 74 76 77 82 90 91 93 90 83 80 82 75 72 70 59 54 43 36 31 29 28 29 34 50 59 60 56 57 49 39 39 39 38 37 37 36
99 97 98 99 99 98 98 98 98 98 98 97 86 85 78 77 79 80 78 79 82 88 91 92 90 85 83 82 78 69 65 57 54 48 43 39 38 39 43 45 40 53 60 64 61 57 58 50 44 44 42 39 39 41
98 96 97 99 98 98 98 98 98 98 97 92 85 79 81 76 78 81 79 82 87 90 91 87 82 84 77 72 70 62 57 52 50 46 43 41 38 37 34 34 36 41 51 66 64 60 61 61 54 47 42 41 43 45
98 98 99 98 97 97 97 97 97 96 92 85 79 85 86 83 83 80 79 82 86 88 85 85 84 72 65 61 60 56 54 51 47 45 43 42 44 42 39 38 41 42 57 74 71 65 57 58 55 46 42 44 45 47
98 98 98 97 99 98 97 97 97 94 89 83 82 84 85 84 80 81 85 88 89 88 89 80 67 64 63 59 56 51 44 41 42 44 45 43 47 49 48 47 47 52 65 78 80 68 59 56 54 50 47 47 48 52
99 99 98 98 98 98 97 95 96 96 93 95 92 88 89 86 88 90 92 91 91 84 76 68 66 61 54 47 45 45 46 47 47 53 50 51 56 59 60 62 62 70 90 92 80 72 66 54 52 52 50 50 52 55
99 97 97 99 98 97 96 95 93 95 96 93 95 96 97 97 97 96 94 93 82 72 68 63 53 48 47 45 45 47 49 58 59 58 57 61 69 71 65 71 81 86 96 94 88 73 65 57 54 52 52 54 56 57
98 99 98 98 98 97 97 95 95 97 98 98 98 98 97 97 97 97 96 86 75 68 57 49 45 46 49 50 54 56 59 62 64 69 72 74 77 80 80 83 96 94 93 97 86 73 62 57 60 55 56 58 59 59
99 98 98 97 97 97 94 94 95 97 98 98 97 97 95 96 97 96 84 70 55 46 46 40 44 48 51 55 55 56 61 72 74 75 77 81 87 86 86 85 93 94 96 90 80 69 61 58 58 58 60 65 70 68
97 98 97 96 94 92 92 95 95 93 92 94 97 96 95 94 90 82 67 47 39 39 42 50 55 56 54 51 55 58 65 74 77 76 78 80 87 93 98 94 94 97 94 88 76 66 64 64 66 69 78 80 68 59
96 95 94 89 89 87 87 91 93 94 94 95 95 94 90 85 80 70 47 36 40 44 49 53 58 58 58 60 68 71 75 82 84 85 87 84 86 94 97 96 97 97 92 82 73 69 74 74 77 86 79 66 56 44
96 92 90 86 82 83 89 90 89 87 91 91 88 85 84 80 68 46 43 47 51 56 63 69 62 63 73 81 79 82 81 88 93 94 95 97 92 97 96 94 91 89 85 84 81 78 82 88 90 76 61 52 42 38
93 88 89 90 89 86 87 88 88 86 86 85 84 82 74 58 51 50 56 61 66 71 75 76 75 77 83 87 96 97 97 97 97 98 98 97 97 98 97 96 96 92 86 85 90 93 95 90 71 57 47 40 37 36
93 90 89 93 91 91 90 88 84 80 74 70 66 60 54 50 53 55 61 67 71 77 79 82 88 91 94 96 98 97 97 97 97 97 97 96 93 96 97 95 92 94 96 96 96 96 87 67 53 45 39 37 36 34
92 90 90 90 88 88 86 82 78 77 73 66 61 62 63 62 59 60 63 66 67 72 77 85 94 97 97 97 98 98 97 97 98 97 94 93 95 96 97 97 97 97 96 97 94 79 59 51 42 38 38 36 34 33
89 89 89 88 88 86 84 80 76 73 70 70 72 72 67 61 61 64 64 62 66 69 74 84 94 95 96 96 97 97 97 97 97 97 97 97 98 97 96 96 96 96 96 87 65 54 48 40 38 37 36 34 34 33
91 92 91 90 88 86 84 82 82 80 81 79 78 72 66 65 68 60 54 56 68 77 77 88 95 96 97 97 97 97 97 97 97 98 98 98 96 97 96 95 96 91 73 61 55 46 40 38 37 36 34 34 33 29
87 85 86 90 91 91 88 86 86 88 88 87 82 75 69 68 64 59 58 63 71 74 80 89 95 97 97 97 97 98 97 97 97 98 98 98 97 95 97 93 81 66 60 54 44 40 39 38 36 35 35 33 29 26

GFSWCAN_prec_cthk_123.txt.gz
RH
82 87 88 88 88 88 90 90 87 82 82 78 70 67 56 37 28 20 19 20 24 31 31 33 36 39 41 40 39 36 34 33 36 40 44 45 37 31 35 29 29 27 34 38 39 40 14 19 27 22 14 18 18 20
75 86 93 89 88 88 92 93 91 87 89 85 78 74 68 57 39 36 28 24 23 24 26 29 32 37 38 40 41 39 36 36 34 38 45 44 45 44 36 30 30 32 24 25 27 21 16 20 17 16 16 17 18 19
67 72 86 93 91 89 92 94 94 94 92 95 90 84 76 69 56 45 42 39 36 36 31 30 27 28 33 35 39 40 40 40 40 40 44 47 44 42 43 40 29 29 29 30 26 19 20 18 17 17 18 18 19 19
70 71 77 88 94 93 93 95 96 96 97 96 97 94 89 81 68 58 52 48 53 49 44 35 30 29 30 34 38 42 41 42 43 44 43 47 46 41 43 38 36 28 31 32 32 25 22 21 20 16 14 18 20 20
74 73 75 82 90 93 94 95 97 98 98 97 98 99 97 93 83 73 65 58 58 58 60 52 43 36 32 33 35 38 41 42 43 45 48 47 44 46 46 47 46 39 34 32 31 27 23 22 21 20 17 15 17 20
78 78 77 82 84 89 92 93 93 97 99 100 99 99 99 99 94 87 84 73 67 69 68 61 53 49 43 40 37 38 40 41 41 41 42 40 39 44 47 49 38 40 38 34 28 27 25 24 24 22 19 17 18 20
72 73 80 85 84 85 89 93 94 95 94 98 99 99 99 98 97 94 85 81 76 78 77 69 61 59 57 54 47 45 42 41 40 40 42 41 41 44 45 35 34 42 43 40 37 31 30 29 25 22 18 18 20 21
72 75 73 82 84 89 90 94 96 96 100 99 99 98 98 98 97 95 96 93 90 90 85 78 69 66 68 63 60 56 54 51 48 43 42 40 39 41 42 29 29 38 43 43 40 36 33 31 28 24 21 20 23 23
39 49 60 65 79 86 90 93 97 98 99 99 98 98 97 96 92 92 98 98 98 95 87 77 72 71 70 70 69 67 67 66 58 55 47 45 43 43 26 23 20 29 37 40 44 41 39 35 33 31 26 24 22 23
24 29 40 53 61 77 83 90 96 100 99 98 98 97 95 95 97 99 98 97 96 97 92 81 76 73 72 73 72 72 71 70 69 57 54 54 43 33 29 24 20 18 26 35 39 44 44 41 38 37 32 27 22 22
19 23 30 39 49 58 75 88 99 99 98 98 97 98 98 98 98 98 96 96 92 88 84 82 79 78 78 80 80 78 76 75 73 59 60 54 48 39 31 26 21 21 21 28 36 40 41 43 44 41 38 33 24 23
23 22 34 36 39 51 53 78 99 98 98 97 98 98 98 98 97 97 95 92 88 81 77 79 81 80 86 85 87 88 86 82 70 62 64 57 41 32 32 27 25 25 25 30 34 41 43 43 43 47 42 38 27 24
19 25 27 46 48 56 56 61 94 98 98 98 98 97 97 97 98 89 84 80 73 71 75 75 82 88 92 91 92 91 91 83 74 72 62 47 39 36 31 28 26 24 23 24 31 42 44 45 45 47 47 41 29 27
18 32 32 49 62 62 64 64 85 98 99 98 97 97 96 96 84 69 61 62 66 68 77 83 88 90 89 95 96 94 85 82 79 74 58 45 38 35 35 33 29 26 25 25 28 37 45 47 49 50 49 43 34 29
27 41 49 48 70 74 69 75 92 85 99 98 98 96 92 80 73 67 65 67 71 76 78 86 89 89 95 97 94 90 88 80 68 61 51 41 40 41 40 38 37 37 39 38 36 35 41 48 52 53 53 46 39 34
37 55 56 69 73 94 95 96 98 88 91 98 98 97 85 83 78 71 68 68 78 83 87 92 96 96 96 93 93 84 79 70 61 58 46 42 43 42 42 41 43 42 41 39 39 37 39 43 50 54 54 51 43 38
44 55 66 69 84 90 99 98 98 98 98 98 97 88 81 77 73 77 78 76 82 86 92 96 96 93 93 95 87 70 61 59 59 53 50 48 46 43 41 42 42 42 42 39 37 37 40 43 48 56 60 55 51 45
44 64 86 88 90 94 98 97 97 98 97 97 90 78 81 77 73 80 83 82 89 92 96 95 92 95 89 82 71 61 60 60 57 54 52 52 48 46 42 38 37 42 42 40 39 41 46 47 52 55 63 63 55 50
80 90 97 99 98 98 98 98 98 97 95 89 84 80 80 80 79 84 84 85 88 92 93 96 97 83 76 71 68 62 59 57 56 54 53 52 48 44 40 37 35 35 37 37 39 41 48 47 51 51 66 70 62 54
88 96 98 99 99 98 98 96 95 96 94 90 88 84 83 82 87 91 91 93 97 98 97 89 71 69 71 69 64 63 62 59 56 55 54 49 44 44 41 38 36 37 39 42 43 44 47 50 60 61 69 71 66 60
95 97 98 98 98 98 98 97 97 95 93 88 83 86 90 93 95 93 96 97 98 91 81 69 70 73 69 70 68 66 61 58 56 52 47 44 45 47 45 42 41 42 44 48 52 54 60 60 73 68 68 65 62 56
96 99 98 99 98 98 97 94 93 94 96 95 97 96 97 97 97 98 98 98 92 78 73 75 75 75 76 71 68 60 54 52 52 50 46 46 46 49 47 47 49 52 55 58 54 67 76 81 87 82 73 70 64 59
98 99 99 98 97 97 97 97 96 98 97 97 97 97 97 98 97 98 97 88 77 75 79 78 79 78 69 64 56 50 49 49 47 45 46 47 48 52 56 57 60 70 76 70 65 83 92 88 92 86 78 68 61 60
99 98 98 97 97 97 95 94 94 96 98 96 96 95 96 96 96 97 89 80 76 81 83 80 77 69 59 53 47 43 42 44 45 45 47 52 55 59 65 73 77 85 85 78 87 98 97 96 94 84 76 66 63 65
98 98 97 96 94 93 94 93 92 94 94 93 93 94 96 97 97 95 86 79 81 79 75 68 59 52 48 41 38 38 41 43 45 46 49 60 65 69 79 84 89 95 96 96 98 98 97 95 89 80 72 73 70 64
97 96 94 89 89 85 89 92 94 94 95 97 97 97 98 97 95 88 76 72 70 56 48 46 43 45 42 40 44 48 53 54 50 51 53 56 65 76 81 87 93 97 98 98 98 97 94 88 82 78 74 70 79 92
93 88 86 81 79 79 85 88 88 89 93 94 93 94 95 94 86 73 71 64 49 46 47 46 47 47 49 51 56 55 60 57 57 63 71 72 70 77 81 88 95 97 98 98 98 97 87 82 80 79 82 96 92 77
87 84 83 82 81 80 82 85 86 86 89 89 90 94 90 83 73 67 57 54 54 53 52 52 58 63 69 69 68 67 70 76 81 85 84 86 83 84 88 91 94 97 98 98 97 92 88 88 90 95 97 88 70 57
85 82 80 84 84 83 81 82 82 83 82 81 82 83 81 72 64 59 55 53 51 53 54 58 65 69 73 75 75 76 82 90 94 93 92 93 90 84 89 92 94 96 97 96 91 93 95 97 98 94 81 65 55 45
88 84 87 88 85 86 85 84 85 84 84 82 79 73 68 63 58 53 52 50 54 55 58 59 64 73 76 79 79 84 91 96 96 97 95 91 91 94 94 96 97 97 96 95 95 96 97 97 92 75 62 52 43 41
89 87 88 89 91 90 89 89 89 87 81 76 73 72 68 63 59 55 50 53 60 61 58 61 67 76 80 82 82 86 88 91 95 97 96 96 97 97 97 97 97 96 95 97 97 97 96 85 66 57 50 43 41 41
92 92 91 91 91 89 88 87 86 84 82 78 75 72 69 67 64 57 55 59 60 57 57 64 71 73 77 84 87 86 89 95 95 96 97 97 96 97 97 97 97 97 98 98 98 92 76 62 54 47 42 41 40 39
96 92 91 90 91 89 89 88 88 86 83 80 76 73 71 69 67 60 60 57 55 56 59 65 73 77 83 87 88 91 94 96 97 97 97 98 98 97 97 97 98 98 98 94 81 65 60 52 45 42 41 39 39 37

GFSWCAN_prec_cthk_126.txt.gz
RH
69 67 71 78 78 83 85 88 89 88 89 86 83 84 84 80 67 49 41 39 33 30 22 23 27 29 31 33 37 37 36 34 34 38 43 45 43 37 42 36 32 27 34 37 39 40 12 17 25 21 13 14 16 18
74 70 71 70 73 79 84 90 90 90 90 92 90 88 88 91 85 69 55 47 44 42 35 29 27 24 25 28 32 35 33 32 29 32 39 42 46 47 43 37 36 37 28 26 27 20 17 20 18 16 15 16 17 18
77 71 69 68 71 71 81 86 90 90 92 92 93 93 92 94 95 87 74 63 54 51 44 40 35 32 31 27 29 29 33 35 34 33 37 41 41 42 44 45 36 37 35 34 28 23 24 21 19 19 20 18 16 17
75 74 70 70 72 73 73 79 88 92 93 95 95 96 97 98 98 97 92 80 70 65 62 53 49 44 41 38 36 32 30 32 35 38 38 41 40 35 37 35 38 37 42 43 40 32 27 24 22 21 20 20 19 16
63 74 76 71 73 73 75 74 81 92 95 96 98 99 98 98 99 97 94 90 85 78 74 68 61 53 48 43 45 45 43 40 40 40 42 40 37 37 37 38 38 37 39 41 37 36 32 27 26 23 21 21 20 18
57 63 64 70 69 72 74 78 78 86 94 98 99 99 99 99 98 99 96 94 91 92 89 83 73 67 61 58 56 55 54 51 47 44 42 39 35 37 42 40 25 25 30 34 36 38 36 34 31 28 26 23 22 19
45 51 57 60 72 71 73 75 81 83 91 98 99 99 99 99 98 97 93 94 92 96 96 88 81 78 73 71 69 64 61 55 53 50 50 45 42 40 42 30 21 20 20 24 30 36 38 38 37 36 30 28 23 20
28 32 43 60 63 72 73 75 83 87 91 97 99 99 98 99 97 93 94 93 96 98 97 90 82 78 80 80 76 73 68 64 60 57 56 54 51 49 47 29 23 23 20 20 21 27 30 35 38 39 38 35 31 24
22 21 27 35 50 58 68 79 80 88 93 95 99 98 98 96 92 91 99 100 97 97 93 86 81 81 81 86 85 85 80 75 68 65 61 58 53 50 39 38 32 27 27 24 21 22 26 29 34 38 39 41 36 33
22 21 18 16 22 34 43 66 63 80 94 98 99 98 97 94 96 98 98 98 97 94 89 79 79 81 81 85 89 87 90 84 76 64 65 63 51 40 40 38 33 32 31 30 28 25 22 24 28 32 36 40 42 39
25 20 17 16 14 16 24 35 52 66 84 97 98 98 99 98 98 98 97 97 95 87 80 74 76 79 82 87 91 93 93 88 85 70 71 63 51 47 37 35 32 32 31 28 25 25 26 26 26 28 32 36 40 44
35 28 21 16 17 17 18 26 35 57 82 81 96 99 98 98 98 98 96 91 86 79 71 73 75 75 86 88 96 96 96 95 88 75 77 62 47 40 38 34 31 30 28 29 27 27 25 25 27 29 32 36 40 45
45 41 29 20 18 18 21 23 43 46 73 81 82 91 97 97 98 96 86 76 71 68 71 72 79 84 88 94 97 97 96 92 84 81 67 53 48 43 38 36 32 30 31 29 29 28 26 23 25 27 30 34 37 43
53 46 37 26 19 18 22 29 34 62 78 87 90 91 96 97 96 76 64 59 61 67 73 79 87 92 96 97 97 96 93 89 87 76 57 55 47 45 42 36 33 31 33 33 32 31 30 28 26 27 31 33 38 40
65 60 48 34 24 22 33 38 37 68 81 87 96 97 94 85 83 68 65 63 63 70 75 86 95 95 97 98 95 95 94 85 71 59 58 56 50 47 41 41 39 39 37 37 37 39 38 36 32 29 31 35 38 43
69 68 50 38 29 26 42 48 48 85 98 99 92 98 95 85 78 71 71 67 69 73 81 88 96 97 96 96 94 90 88 71 58 67 62 57 51 48 45 45 43 42 41 40 39 39 39 39 40 39 38 35 38 40
71 65 49 43 35 37 48 64 66 94 99 98 97 80 87 79 61 61 57 70 77 83 81 91 96 94 95 94 90 77 63 58 64 66 67 61 53 49 49 48 46 44 42 41 39 39 39 38 36 36 39 38 36 38
63 61 55 44 44 50 60 75 77 95 98 97 97 91 72 66 79 77 76 74 81 76 82 88 93 96 91 83 70 63 63 63 67 70 68 60 53 51 53 52 50 47 45 43 38 36 35 35 37 40 41 44 44 43
61 63 55 46 60 75 83 87 82 98 96 87 91 89 74 71 81 85 85 85 84 85 86 94 97 89 68 68 68 67 68 70 74 73 68 59 54 54 55 54 52 50 49 44 40 38 37 38 38 40 42 47 50 48
66 64 54 61 82 95 98 97 99 98 95 94 89 96 91 86 82 87 89 92 92 95 98 92 72 67 68 67 71 69 72 74 72 71 66 61 59 57 56 54 53 53 50 44 41 40 40 41 46 46 44 44 44 52
62 56 59 77 90 96 98 96 92 85 82 97 88 91 93 90 91 92 91 96 98 95 86 67 67 70 70 72 74 74 76 75 69 66 64 63 62 62 61 58 51 48 48 46 43 43 43 46 50 57 55 52 55 55
59 66 85 91 98 99 98 97 97 94 89 84 85 83 89 91 91 94 97 98 93 76 74 72 69 72 75 76 76 75 76 75 71 69 67 67 67 65 60 53 49 47 46 46 47 47 48 54 57 64 66 66 66 67
75 92 99 98 98 98 97 95 92 91 92 94 97 98 97 97 94 96 99 91 79 74 77 78 81 80 81 81 78 74 79 79 75 73 71 65 57 52 49 45 44 44 46 47 50 50 55 66 69 73 74 77 80 77
96 99 98 98 98 98 95 96 92 89 90 94 97 97 96 93 95 98 91 79 76 81 82 81 83 83 80 79 76 79 79 75 71 66 56 47 45 42 41 41 43 46 50 54 57 62 70 84 87 88 86 88 91 90
99 97 97 98 96 96 94 95 92 93 89 89 93 95 96 97 97 94 85 81 80 78 78 78 77 78 80 80 78 75 74 66 54 43 40 38 39 43 43 45 48 53 62 68 72 83 95 98 97 94 96 98 96 91
97 96 93 93 91 88 89 92 91 92 93 97 98 97 97 97 96 91 83 75 73 73 74 74 75 77 76 73 71 65 52 42 39 35 37 42 44 48 51 54 53 58 68 72 82 96 98 98 97 98 98 98 92 83
96 92 92 89 88 89 95 97 95 94 96 96 95 96 96 96 92 81 74 72 74 76 73 69 66 60 54 50 45 40 38 38 39 43 49 53 55 56 59 63 57 59 73 83 94 98 98 97 98 98 98 92 85 82
93 92 93 93 94 93 94 94 94 93 94 92 90 94 93 89 83 73 68 67 68 65 63 58 56 55 52 51 50 50 53 56 55 56 57 60 66 68 69 71 69 73 78 87 97 98 97 97 97 96 90 87 88 96
97 93 92 95 95 94 92 90 88 88 86 87 90 92 89 83 79 78 74 71 66 67 60 59 59 57 55 53 54 58 64 65 65 65 70 82 88 87 85 82 79 82 88 92 96 95 96 97 94 92 93 97 97 92
97 94 93 94 93 91 88 87 86 84 84 84 86 86 83 78 77 75 70 67 63 59 57 57 52 51 54 57 60 63 68 70 71 73 84 92 92 96 95 89 84 86 90 92 94 95 96 95 96 97 97 96 87 68
92 90 91 91 91 89 86 86 85 85 87 87 86 84 82 78 71 67 64 62 60 59 59 55 53 53 56 58 61 69 74 75 76 81 91 94 94 97 92 84 86 90 95 95 94 95 96 98 97 97 92 76 64 55
90 91 89 90 91 91 90 90 88 89 89 88 85 77 73 71 68 62 58 58 56 57 59 55 51 52 57 61 65 68 69 73 80 89 91 93 98 98 96 93 93 93 94 95 97 97 98 97 94 84 68 61 54 49
91 90 90 91 93 92 88 86 86 87 87 86 82 77 73 71 67 62 59 56 56 58 55 52 52 56 58 61 64 72 77 82 86 89 94 98 98 97 97 96 96 96 97 98 97 97 97 92 76 65 59 52 45 42